[[{"header":{"parameterUnit":"m.s-1","parameterCategory":1,"la1":31.0,"la2":29.5877,"lo1":-88.7671,"lo2":-86.6584,"dy":0.0162,"dx":0.0185,"nx":115,"ny":88,"refTime":"2024-08-08T18:00:00:Z","depth":0,"parameterNumber":2,"parameterNumberName":"U-component_of_WINDS"},"data":[0.0,0.0,0.0,0.0,0.0,0.0,0.0,0.0,0.0,0.0,0.0,0.0,0.0,0.0,0.0,0.0,0.0,0.0,0.0,0.0,0.0,0.0,0.0,0.0,0.0,0.0,0.0,0.0,0.0,0.0,0.0,0.0,0.0,0.0,0.0,0.0,0.0,0.0,0.0,0.0,0.0,0.0,0.0,0.0,0.0,0.0,0.0,0.0,0.0,0.0,0.0,0.0,0.0,0.0,0.0,0.0,0.0,0.0,0.0,0.0,0.0,0.0,0.0,0.0,0.0,0.0,0.0,0.0,0.0,0.0,0.0,0.0,0.0,0.0,0.0,0.0,0.0,0.0,0.0,0.0,0.0,0.0,0.0,0.0,0.0,0.0,0.0,0.0,0.0,0.0,0.0,0.0,0.0,0.0,0.0,0.0,0.0,0.0,0.0,0.0,0.0,0.0,0.0,0.0,0.0,0.0,0.0,0.0,0.0,0.0,0.0,0.0,0.0,0.0,0.0,0.0,0.0,0.0,0.0,0.0,0.0,0.0,0.0,0.0,0.0,0.0,0.0,0.0,0.0,0.0,0.0,0.0,0.0,0.0,0.0,0.0,0.0,0.0,0.0,0.0,0.0,0.0,0.0,0.0,0.0,0.0,0.0,0.0,0.0,0.0,0.0,0.0,0.0,0.0,0.0,0.0,0.0,0.0,0.0,0.0,0.0,0.0,0.0,0.0,0.0,0.0,0.0,0.0,0.0,0.0,0.0,0.0,0.0,0.0,0.0,0.0,0.0,0.0,0.0,0.0,0.0,0.0,0.0,0.0,0.0,0.0,0.0,0.0,0.0,0.0,0.0,0.0,0.0,0.0,0.0,0.0,0.0,0.0,0.0,0.0,0.0,0.0,0.0,0.0,0.0,0.0,0.0,0.0,0.0,0.0,0.0,0.0,0.0,0.0,0.0,0.0,0.0,0.0,0.0,0.0,0.0,0.0,0.0,0.0,0.0,0.0,0.0,0.0,0.0,0.0,0.0,0.0,0.0,0.0,0.0,0.0,0.0,0.0,0.0,0.0,0.0,0.0,0.0,0.0,0.0,0.0,0.0,0.0,0.0,0.0,0.0,0.0,0.0,0.0,0.0,0.0,0.0,0.0,0.0,0.0,0.0,0.0,0.0,0.0,0.0,0.0,0.0,0.0,0.0,0.0,0.0,0.0,0.0,0.0,0.0,0.0,0.0,0.0,0.0,0.0,0.0,0.0,0.0,0.0,0.0,0.0,0.0,0.0,0.0,0.0,0.0,0.0,0.0,0.0,0.0,0.0,0.0,0.0,0.0,0.0,0.0,0.0,0.0,0.0,0.0,0.0,0.0,0.0,0.0,0.0,0.0,0.0,0.0,0.0,0.0,0.0,0.0,0.0,0.0,0.0,0.0,0.0,0.0,0.0,0.0,0.0,0.0,0.0,0.0,0.0,0.0,0.0,0.0,0.0,0.0,0.0,0.0,0.0,0.0,0.0,0.0,0.0,0.0,0.0,0.0,0.0,0.0,0.0,0.0,0.0,0.0,0.0,0.0,0.0,0.0,0.0,0.0,0.0,0.0,0.0,0.0,0.0,0.0,0.0,0.0,0.0,0.0,0.0,0.0,0.0,0.0,0.0,0.0,0.0,0.0,0.0,0.0,0.0,0.0,0.0,0.0,0.0,0.0,0.0,0.0,0.0,0.0,0.0,0.0,0.0,0.0,0.0,0.0,0.0,0.0,0.0,0.0,0.0,0.0,0.0,0.0,0.0,0.0,0.0,0.0,0.0,0.0,0.0,0.0,0.0,0.0,0.0,0.0,0.0,0.0,0.0,0.0,0.0,0.0,0.0,0.0,0.0,0.0,0.0,0.0,0.0,0.0,0.0,0.0,0.0,0.0,0.0,0.0,0.0,0.0,0.0,0.0,0.0,0.0,0.0,0.0,0.0,0.0,0.0,0.0,0.0,0.0,0.0,0.0,0.0,0.0,0.0,0.0,0.0,0.0,0.0,0.0,0.0,0.0,0.0,0.0,0.0,0.0,0.0,0.0,0.0,0.0,0.0,0.0,0.0,0.0,0.0,0.0,0.0,0.0,0.0,0.0,0.0,0.0,0.0,0.0,0.0,0.0,0.0,0.0,0.0,0.0,0.0,0.0,0.0,0.0,0.0,0.0,0.0,0.0,0.0,0.0,0.0,0.0,0.0,0.0,0.0,0.0,0.0,0.0,0.0,0.0,0.0,0.0,0.0,0.0,0.0,0.0,0.0,0.0,0.0,0.0,0.0,0.0,0.0,0.0,0.0,0.0,0.0,0.0,0.0,0.0,0.0,0.0,0.0,0.0,0.0,0.0,0.0,0.0,0.0,0.0,0.0,0.0,0.0,0.0,0.0,0.0,0.0,0.0,0.0,0.0,0.0,0.0,0.0,0.0,0.0,0.0,0.0,0.0,0.0,0.0,0.0,0.0,0.0,0.0,0.0,0.0,0.0,0.0,0.0,0.0,0.0,0.0,0.0,0.0,0.0,0.0,0.0,0.0,0.0,0.0,0.0,0.0,0.0,0.0,0.0,0.0,0.0,0.0,0.0,0.0,0.0,0.0,0.0,0.0,0.0,0.0,0.0,0.0,0.0,0.0,0.0,0.0,0.0,0.0,0.0,0.0,0.0,0.0,0.0,0.0,0.0,0.0,0.0,0.0,0.0,0.0,0.0,0.0,0.0,0.0,0.0,0.0,0.0,0.0,0.0,0.0,0.0,0.0,0.0,0.0,0.0,0.0,0.0,0.0,0.0,0.0,0.0,0.0,0.0,0.0,0.0,0.0,0.0,0.0,0.0,0.0,0.0,0.0,0.0,0.0,0.0,0.0,0.0,0.0,0.0,0.0,0.0,0.0,0.0,0.0,0.0,0.0,0.0,0.0,0.0,0.0,0.0,0.0,0.0,0.0,0.0,0.0,0.0,0.0,0.0,0.0,0.0,0.0,0.0,0.0,0.0,0.0,0.0,0.0,0.0,0.0,0.0,0.0,0.0,0.0,0.0,0.0,0.0,0.0,0.0,0.0,0.0,0.0,0.0,0.0,0.0,0.0,0.0,0.0,0.0,0.0,0.0,0.0,0.0,0.0,0.0,0.0,0.0,0.0,0.0,0.0,0.0,0.0,0.0,0.0,0.0,0.0,0.0,0.0,0.0,0.0,0.0,0.0,0.0,0.0,0.0,0.0,0.0,0.0,0.0,0.0,0.0,0.0,0.0,0.0,0.0,0.0,0.0,0.0,0.0,0.0,0.0,0.0,0.0,0.0,0.0,0.0,0.0,0.0,0.0,0.0,0.0,0.0,0.0,0.0,0.0,0.0,0.0,0.0,0.0,0.0,0.0,0.0,0.0,0.0,0.0,0.0,0.0,0.0,0.0,0.0,0.0,0.0,0.0,0.0,0.0,0.0,0.0,0.0,0.0,0.0,0.0,0.0,0.0,0.0,0.0,0.0,0.0,0.0,0.0,0.0,0.0,0.0,0.0,0.0,0.0,0.0,0.0,0.0,0.0,0.0,0.0,0.0,0.0,0.0,0.0,0.0,0.0,0.0,0.0,0.0,0.0,0.0,0.0,0.0,0.0,0.0,0.0,0.0,0.0,0.0,0.0,0.0,0.0,0.0,0.0,0.0,0.0,0.0,0.0,0.0,0.0,0.0,0.0,0.0,0.0,0.0,0.0,0.0,0.0,0.0,0.0,0.0,0.0,0.0,0.0,0.0,0.0,0.0,0.0,0.0,0.0,0.0,0.0,0.0,0.0,0.0,0.0,0.0,0.0,0.0,0.0,0.0,0.0,0.0,0.0,0.0,0.0,0.0,0.0,0.0,0.0,0.0,0.0,0.0,0.0,0.0,0.0,0.0,0.0,0.0,0.0,0.0,0.0,0.0,0.0,0.0,0.0,0.0,0.0,0.0,0.0,0.0,0.0,0.0,0.0,0.0,0.0,0.0,0.0,0.0,0.0,0.0,0.0,0.0,0.0,0.0,0.0,0.0,0.0,0.0,0.0,0.0,0.0,0.0,0.0,0.0,0.0,0.0,0.0,0.0,0.0,0.0,0.0,0.0,0.0,0.0,0.0,0.0,0.0,0.0,0.0,0.0,0.0,0.0,0.0,0.0,0.0,0.0,0.0,0.0,0.0,0.0,0.0,0.0,0.0,0.0,0.0,0.0,0.0,0.0,0.0,0.0,0.0,0.0,0.0,0.0,0.0,0.0,0.0,0.0,0.0,0.0,0.0,2.0366,0.0,0.0,0.0,0.0,0.0,0.0,0.0,0.0,0.0,0.0,0.0,0.0,0.0,0.0,0.0,0.0,0.0,0.0,0.0,0.0,0.0,0.0,0.0,0.0,0.0,0.0,0.0,0.0,0.0,0.0,0.0,0.0,0.0,0.0,0.0,0.0,0.0,0.0,0.0,0.0,0.0,0.0,0.0,0.0,0.0,0.0,0.0,0.0,0.0,0.0,0.0,0.0,0.0,0.0,0.0,0.0,0.0,0.0,0.0,0.0,0.0,0.0,0.0,0.0,0.0,0.0,0.0,0.0,0.0,0.0,0.0,0.0,0.0,0.0,0.0,0.0,0.0,0.0,0.0,0.0,0.0,0.0,0.0,0.0,0.0,0.0,0.0,0.0,0.0,0.0,0.0,0.0,0.0,0.0,0.0,0.0,0.0,0.0,0.0,0.0,0.0,0.0,0.0,0.0,0.0,0.0,0.0,0.0,0.0,0.0,2.1395,2.0614,2.1403,2.1432,2.0526,0.0,0.0,0.0,0.0,0.0,0.0,0.0,0.0,0.0,0.0,0.0,0.0,0.0,0.0,0.0,0.0,0.0,0.0,0.0,0.0,0.0,0.0,0.0,0.0,0.0,0.0,0.0,0.0,0.0,0.0,0.0,0.0,0.0,0.0,0.0,0.0,0.0,0.0,0.0,0.0,0.0,0.0,0.0,0.0,0.0,0.0,0.0,0.0,0.0,0.0,0.0,0.0,0.0,0.0,0.0,0.0,0.0,0.0,0.0,0.0,0.0,0.0,0.0,0.0,0.0,0.0,0.0,0.0,0.0,0.0,0.0,0.0,0.0,0.0,0.0,0.0,0.0,0.0,0.0,0.0,0.0,0.0,0.0,0.0,0.0,0.0,0.0,0.0,0.0,0.0,0.0,0.0,0.0,0.0,0.0,0.0,0.0,0.0,0.0,0.0,0.0,0.0,0.0,0.0,0.0,0.0,0.0,0.0,0.0,0.0,0.0,0.0,2.1718,2.1629,2.0559,0.0,0.0,0.0,0.0,0.0,0.0,0.0,0.0,0.0,0.0,0.0,0.0,0.0,0.0,0.0,0.0,0.0,0.0,0.0,0.0,0.0,0.0,0.0,0.0,0.0,0.0,0.0,0.0,0.0,0.0,0.0,0.0,0.0,0.0,0.0,0.0,0.0,0.0,0.0,0.0,0.0,0.0,0.0,0.0,0.0,0.0,0.0,0.0,0.0,0.0,0.0,0.0,0.0,0.0,0.0,0.0,0.0,0.0,0.0,0.0,0.0,0.0,0.0,0.0,0.0,0.0,0.0,0.0,0.0,0.0,0.0,0.0,0.0,0.0,0.0,0.0,0.0,0.0,0.0,0.0,0.0,0.0,0.0,0.0,0.0,0.0,0.0,0.0,0.0,0.0,0.0,0.0,0.0,0.0,0.0,0.0,0.0,0.0,0.0,0.0,0.0,0.0,0.0,0.0,0.0,0.0,0.0,0.0,0.0,0.0,2.1789,2.1792,2.2485,0.0,2.0637,0.0,0.0,0.0,0.0,0.0,0.0,0.0,0.0,0.0,0.0,0.0,0.0,0.0,0.0,0.0,0.0,0.0,0.0,0.0,0.0,0.0,0.0,0.0,0.0,0.0,0.0,0.0,0.0,0.0,0.0,0.0,0.0,0.0,0.0,0.0,0.0,0.0,0.0,0.0,0.0,0.0,0.0,0.0,0.0,0.0,0.0,0.0,0.0,0.0,0.0,0.0,0.0,0.0,0.0,0.0,0.0,0.0,0.0,0.0,0.0,0.0,0.0,0.0,0.0,0.0,0.0,0.0,0.0,0.0,0.0,0.0,0.0,0.0,0.0,0.0,0.0,0.0,0.0,0.0,0.0,0.0,0.0,0.0,0.0,0.0,0.0,0.0,0.0,0.0,0.0,0.0,0.0,0.0,0.0,0.0,0.0,0.0,0.0,0.0,0.0,0.0,0.0,0.0,0.0,0.0,0.0,0.0,0.0,0.0,0.0,2.2299,2.1853,2.1593,2.0909,0.0,0.0,0.0,0.0,0.0,0.0,0.0,0.0,0.0,0.0,0.0,0.0,0.0,0.0,0.0,0.0,0.0,0.0,0.0,0.0,0.0,0.0,0.0,0.0,0.0,0.0,0.0,0.0,0.0,0.0,0.0,0.0,0.0,0.0,0.0,0.0,0.0,0.0,0.0,0.0,0.0,0.0,0.0,0.0,0.0,0.0,0.0,0.0,0.0,0.0,0.0,0.0,0.0,0.0,0.0,0.0,0.0,0.0,0.0,0.0,0.0,0.0,0.0,0.0,0.0,0.0,0.0,0.0,0.0,0.0,0.0,0.0,0.0,0.0,0.0,0.0,0.0,0.0,0.0,0.0,0.0,0.0,0.0,0.0,0.0,0.0,0.0,0.0,0.0,0.0,0.0,0.0,0.0,0.0,0.0,0.0,0.0,0.0,0.0,0.0,0.0,0.0,0.0,0.0,0.0,0.0,0.0,0.0,0.0,0.0,2.2148,0.0,2.2081,2.1462,2.0502,1.9217,0.0,0.0,0.0,0.0,0.0,0.0,0.0,0.0,0.0,0.0,0.0,0.0,0.0,0.0,0.0,0.0,0.0,0.0,0.0,0.0,0.0,0.0,0.0,0.0,0.0,0.0,0.0,0.0,0.0,0.0,0.0,0.0,0.0,0.0,0.0,0.0,0.0,0.0,0.0,0.0,0.0,0.0,0.0,0.0,0.0,0.0,0.0,0.0,0.0,0.0,0.0,0.0,0.0,0.0,0.0,0.0,0.0,0.0,0.0,0.0,0.0,0.0,0.0,0.0,0.0,0.0,0.0,0.0,0.0,0.0,0.0,0.0,0.0,0.0,0.0,0.0,0.0,0.0,0.0,0.0,0.0,0.0,0.0,0.0,0.0,0.0,0.0,0.0,0.0,0.0,0.0,0.0,0.0,0.0,0.0,0.0,0.0,0.0,0.0,0.0,0.0,0.0,0.0,0.0,0.0,0.0,0.0,0.0,0.0,2.2133,2.2107,2.2842,2.2854,2.1694,0.0,0.0,0.0,0.0,0.0,0.0,0.0,0.0,0.0,0.0,0.0,0.0,0.0,0.0,0.0,0.0,0.0,0.0,0.0,0.0,0.0,0.0,0.0,0.0,0.0,0.0,0.0,0.0,0.0,0.0,0.0,0.0,0.0,0.0,0.0,0.0,0.0,0.0,0.0,0.0,0.0,0.0,0.0,0.0,0.0,0.0,0.0,0.0,0.0,0.0,0.0,0.0,0.0,0.0,0.0,0.0,0.0,0.0,0.0,0.0,0.0,0.0,0.0,0.0,0.0,0.0,0.0,0.0,0.0,0.0,0.0,0.0,0.0,0.0,0.0,0.0,0.0,0.0,0.0,0.0,0.0,0.0,0.0,0.0,0.0,0.0,0.0,0.0,0.0,0.0,0.0,0.0,0.0,0.0,0.0,0.0,0.0,0.0,0.0,0.0,0.0,0.0,0.0,0.0,0.0,0.0,0.0,0.0,0.0,2.1314,2.1492,2.2242,2.3527,2.1536,2.0192,0.0,0.0,0.0,0.0,0.0,0.0,0.0,0.0,0.0,0.0,0.0,0.0,0.0,0.0,0.0,0.0,0.0,0.0,0.0,0.0,0.0,0.0,0.0,0.0,0.0,0.0,0.0,0.0,0.0,0.0,0.0,0.0,0.0,0.0,0.0,0.0,0.0,0.0,0.0,0.0,0.0,0.0,0.0,0.0,0.0,0.0,0.0,0.0,0.0,0.0,0.0,0.0,0.0,0.0,0.0,0.0,0.0,0.0,0.0,0.0,0.0,0.0,0.0,0.0,0.0,0.0,0.0,0.0,0.0,0.0,0.0,0.0,0.0,0.0,0.0,0.0,0.0,0.0,0.0,0.0,0.0,0.0,0.0,0.0,0.0,0.0,0.0,0.0,0.0,0.0,0.0,0.0,0.0,0.0,0.0,0.0,0.0,0.0,0.0,0.0,0.0,0.0,0.0,0.0,0.0,0.0,0.0,0.0,0.0,2.1143,0.0,2.2643,0.0,2.1348,1.9873,0.0,0.0,0.0,0.0,0.0,0.0,0.0,0.0,0.0,0.0,0.0,0.0,0.0,0.0,0.0,0.0,0.0,0.0,0.0,0.0,0.0,0.0,0.0,0.0,0.0,0.0,0.0,0.0,0.0,0.0,0.0,0.0,0.0,0.0,0.0,0.0,0.0,0.0,0.0,0.0,0.0,0.0,0.0,0.0,0.0,0.0,0.0,0.0,0.0,0.0,0.0,0.0,0.0,0.0,0.0,0.0,0.0,0.0,0.0,0.0,0.0,0.0,0.0,0.0,0.0,0.0,0.0,0.0,0.0,0.0,0.0,0.0,0.0,0.0,0.0,0.0,0.0,0.0,0.0,0.0,0.0,0.0,0.0,0.0,0.0,0.0,0.0,0.0,0.0,0.0,0.0,0.0,0.0,0.0,0.0,0.0,0.0,0.0,0.0,0.0,0.0,0.0,0.0,0.0,0.0,0.0,0.0,0.0,2.1135,2.2585,2.3144,2.3133,2.2647,2.2456,2.0986,0.0,0.0,0.0,0.0,0.0,0.0,0.0,0.0,0.0,0.0,0.0,0.0,0.0,0.0,0.0,0.0,0.0,0.0,0.0,0.0,0.0,0.0,0.0,0.0,0.0,0.0,0.0,0.0,0.0,0.0,0.0,0.0,0.0,0.0,0.0,0.0,0.0,0.0,0.0,0.0,0.0,0.0,0.0,0.0,0.0,0.0,0.0,0.0,0.0,0.0,0.0,0.0,0.0,0.0,0.0,0.0,0.0,0.0,0.0,0.0,0.0,0.0,0.0,0.0,0.0,0.0,0.0,0.0,0.0,0.0,0.0,0.0,0.0,0.0,0.0,0.0,0.0,0.0,0.0,0.0,0.0,0.0,0.0,0.0,0.0,0.0,0.0,0.0,0.0,0.0,0.0,0.0,0.0,0.0,0.0,0.0,0.0,0.0,0.0,0.0,0.0,0.0,0.0,0.0,0.0,0.0,0.0,0.0,0.0,2.179,2.2154,2.2595,2.305,2.1431,2.0264,0.0,0.0,0.0,0.0,0.0,0.0,0.0,0.0,0.0,0.0,0.0,0.0,0.0,0.0,0.0,0.0,0.0,0.0,0.0,0.0,0.0,0.0,0.0,0.0,0.0,0.0,0.0,0.0,0.0,0.0,0.0,0.0,0.0,0.0,0.0,0.0,0.0,0.0,0.0,0.0,0.0,0.0,0.0,0.0,0.0,0.0,0.0,0.0,0.0,0.0,0.0,0.0,0.0,0.0,0.0,0.0,0.0,0.0,0.0,0.0,0.0,0.0,0.0,0.0,0.0,0.0,0.0,0.0,0.0,0.0,0.0,0.0,0.0,0.0,0.0,0.0,0.0,0.0,0.0,0.0,0.0,0.0,0.0,0.0,0.0,0.0,0.0,0.0,0.0,0.0,0.0,0.0,0.0,0.0,0.0,0.0,0.0,0.0,0.0,0.0,0.0,0.0,0.0,0.0,0.0,0.0,0.0,0.0,0.0,2.2017,2.233,2.2733,2.3223,2.1655,2.0611,2.0141,0.0,0.0,0.0,0.0,0.0,0.0,0.0,0.0,0.0,0.0,0.0,0.0,0.0,0.0,0.0,0.0,0.0,0.0,0.0,0.0,0.0,0.0,0.0,0.0,0.0,0.0,0.0,0.0,0.0,0.0,0.0,0.0,0.0,0.0,0.0,0.0,0.0,0.0,0.0,0.0,0.0,0.0,0.0,0.0,0.0,0.0,0.0,0.0,0.0,0.0,0.0,0.0,0.0,0.0,0.0,0.0,0.0,0.0,0.0,0.0,0.0,0.0,0.0,0.0,0.0,0.0,0.0,0.0,0.0,0.0,0.0,0.0,0.0,0.0,0.0,0.0,0.0,0.0,0.0,0.0,0.0,0.0,0.0,0.0,0.0,0.0,0.0,0.0,0.0,0.0,0.0,0.0,0.0,0.0,0.0,0.0,0.0,0.0,0.0,0.0,0.0,0.0,0.0,0.0,0.0,0.0,0.0,0.0,2.3105,2.3478,2.3454,2.2978,2.2887,2.1821,0.0,0.0,0.0,0.0,0.0,0.0,0.0,0.0,0.0,0.0,0.0,0.0,0.0,0.0,0.0,0.0,0.0,0.0,0.0,0.0,0.0,0.0,0.0,0.0,0.0,0.0,0.0,0.0,0.0,0.0,0.0,0.0,0.0,0.0,0.0,0.0,0.0,0.0,0.0,0.0,0.0,0.0,0.0,0.0,0.0,0.0,0.0,0.0,0.0,0.0,0.0,0.0,0.0,0.0,0.0,0.0,0.0,0.0,0.0,0.0,0.0,0.0,0.0,0.0,0.0,0.0,0.0,0.0,0.0,0.0,0.0,0.0,0.0,0.0,0.0,0.0,0.0,0.0,0.0,0.0,0.0,0.0,0.0,0.0,0.0,0.0,0.0,0.0,0.0,0.0,0.0,0.0,0.0,0.0,0.0,0.0,0.0,0.0,0.0,0.0,0.0,0.0,0.0,0.0,0.0,0.0,0.0,0.0,0.0,2.4415,2.3884,2.3592,2.3628,2.3065,2.2153,0.0,0.0,0.0,0.0,0.0,0.0,0.0,0.0,0.0,0.0,0.0,0.0,0.0,0.0,0.0,0.0,0.0,0.0,0.0,0.0,0.0,0.0,0.0,0.0,0.0,0.0,0.0,0.0,0.0,0.0,0.0,0.0,0.0,0.0,0.0,0.0,0.0,0.0,0.0,0.0,0.0,0.0,0.0,0.0,0.0,0.0,0.0,0.0,0.0,0.0,0.0,0.0,0.0,0.0,0.0,0.0,0.0,0.0,0.0,0.0,0.0,0.0,0.0,0.0,0.0,0.0,0.0,0.0,0.0,0.0,0.0,0.0,0.0,0.0,0.0,0.0,0.0,0.0,0.0,0.0,0.0,0.0,0.0,0.0,0.0,0.0,0.0,0.0,0.0,0.0,0.0,0.0,0.0,0.0,0.0,0.0,0.0,0.0,0.0,0.0,0.0,0.0,0.0,0.0,0.0,0.0,0.0,0.0,2.4025,2.498,2.4401,2.4204,2.436,2.3539,2.252,0.0,0.0,0.0,0.0,0.0,0.0,0.0,0.0,0.0,0.0,0.0,0.0,0.0,0.0,0.0,0.0,0.0,0.0,0.0,0.0,0.0,0.0,0.0,0.0,0.0,0.0,0.0,0.0,0.0,0.0,0.0,0.0,0.0,0.0,0.0,0.0,0.0,0.0,0.0,0.0,0.0,0.0,0.0,0.0,0.0,0.0,0.0,0.0,0.0,0.0,0.0,0.0,0.0,0.0,0.0,0.0,0.0,0.0,0.0,0.0,0.0,0.0,0.0,0.0,0.0,0.0,0.0,0.0,0.0,0.0,0.0,0.0,0.0,0.0,0.0,0.0,0.0,0.0,0.0,0.0,0.0,0.0,0.0,0.0,0.0,0.0,0.0,0.0,0.0,0.0,0.0,0.0,0.0,0.0,0.0,0.0,0.0,0.0,0.0,0.0,0.0,0.0,0.0,0.0,0.0,0.0,0.0,0.0,2.4612,2.505,2.5023,2.5,2.5068,2.4195,2.3002,0.0,0.0,0.0,0.0,0.0,0.0,0.0,0.0,0.0,0.0,0.0,0.0,0.0,0.0,0.0,0.0,0.0,0.0,0.0,0.0,0.0,0.0,0.0,0.0,0.0,0.0,0.0,0.0,0.0,0.0,0.0,0.0,0.0,0.0,0.0,0.0,0.0,0.0,0.0,0.0,0.0,0.0,0.0,0.0,0.0,0.0,0.0,0.0,0.0,0.0,0.0,0.0,0.0,0.0,0.0,0.0,0.0,0.0,0.0,0.0,0.0,0.0,0.0,0.0,0.0,0.0,0.0,0.0,0.0,0.0,0.0,0.0,0.0,0.0,0.0,0.0,0.0,0.0,0.0,0.0,0.0,0.0,0.0,0.0,0.0,0.0,0.0,0.0,0.0,0.0,0.0,0.0,0.0,0.0,0.0,0.0,0.0,0.0,0.0,0.0,0.0,0.0,0.0,0.0,0.0,0.0,0.0,0.0,2.5103,2.5607,2.5618,2.5618,2.5642,2.4909,2.3827,0.0,0.0,0.0,0.0,0.0,0.0,0.0,0.0,0.0,0.0,0.0,0.0,0.0,0.0,0.0,0.0,0.0,0.0,0.0,0.0,0.0,0.0,0.0,0.0,0.0,0.0,0.0,0.0,0.0,0.0,0.0,0.0,0.0,0.0,0.0,0.0,0.0,0.0,0.0,0.0,0.0,0.0,0.0,0.0,0.0,0.0,0.0,0.0,1.7279,0.0,0.0,0.0,0.0,0.0,0.0,0.0,0.0,0.0,0.0,0.0,0.0,0.0,0.0,0.0,0.0,0.0,0.0,0.0,0.0,0.0,0.0,0.0,0.0,0.0,0.0,0.0,0.0,0.0,0.0,0.0,0.0,0.0,0.0,0.0,0.0,0.0,0.0,0.0,0.0,0.0,0.0,0.0,0.0,0.0,0.0,0.0,0.0,0.0,0.0,0.0,0.0,0.0,0.0,0.0,0.0,0.0,0.0,0.0,2.533,2.5931,2.6226,2.6244,2.5942,2.5383,2.4076,0.0,0.0,0.0,0.0,0.0,0.0,0.0,0.0,0.0,0.0,0.0,0.0,0.0,0.0,0.0,0.0,0.0,0.0,0.0,0.0,0.0,0.0,0.0,0.0,0.0,0.0,0.0,0.0,0.0,0.0,0.0,0.0,0.0,0.0,0.0,0.0,0.0,0.0,0.0,0.0,0.0,0.0,0.0,0.0,0.0,0.0,0.0,0.0,0.0,0.0,0.0,0.0,0.0,0.0,0.0,0.0,0.0,0.0,0.0,0.0,0.0,0.0,0.0,0.0,0.0,0.0,0.0,0.0,0.0,0.0,0.0,0.0,0.0,0.0,0.0,0.0,0.0,0.0,0.0,0.0,0.0,0.0,0.0,0.0,0.0,0.0,0.0,0.0,0.0,0.0,0.0,0.0,0.0,0.0,0.0,0.0,0.0,0.0,0.0,0.0,0.0,0.0,0.0,0.0,0.0,0.0,0.0,2.3898,2.5457,2.6045,2.6688,2.668,2.6015,2.548,2.3947,2.1266,0.0,0.0,0.0,0.0,0.0,0.0,0.0,0.0,0.0,0.0,0.0,0.0,0.0,0.0,0.0,0.0,0.0,0.0,0.0,0.0,0.0,0.0,0.0,0.0,0.0,0.0,0.0,0.0,0.0,0.0,0.0,0.0,0.0,0.0,0.0,0.0,0.0,0.0,1.7112,1.7628,0.0,0.0,0.0,0.0,0.0,0.0,0.0,0.0,1.733,0.0,0.0,0.0,0.0,0.0,0.0,0.0,0.0,0.0,0.0,0.0,0.0,0.0,0.0,0.0,0.0,0.0,0.0,0.0,0.0,0.0,0.0,0.0,0.0,0.0,0.0,0.0,0.0,0.0,0.0,0.0,0.0,0.0,0.0,0.0,0.0,0.0,0.0,0.0,0.0,0.0,0.0,0.0,0.0,0.0,0.0,0.0,0.0,0.0,0.0,0.0,0.0,0.0,0.0,0.0,0.0,2.215,2.4635,2.5895,2.5868,2.6593,2.6525,2.5544,2.4866,2.332,2.0947,0.0,0.0,0.0,0.0,0.0,0.0,0.0,0.0,0.0,0.0,0.0,0.0,0.0,0.0,0.0,0.0,0.0,0.0,0.0,0.0,0.0,0.0,0.0,0.0,0.0,0.0,0.0,0.0,0.0,0.0,0.0,0.0,0.0,0.0,0.0,0.0,0.0,0.0,0.0,1.742,1.7837,0.0,0.0,0.0,0.0,0.0,0.0,0.0,0.0,1.7394,0.0,0.0,0.0,0.0,0.0,0.0,0.0,0.0,0.0,0.0,0.0,0.0,0.0,0.0,0.0,0.0,0.0,0.0,0.0,0.0,0.0,0.0,0.0,0.0,0.0,0.0,0.0,0.0,0.0,0.0,0.0,0.0,0.0,0.0,0.0,0.0,0.0,0.0,0.0,0.0,0.0,0.0,0.0,0.0,0.0,0.0,0.0,0.0,0.0,0.0,0.0,0.0,0.0,0.0,0.0,2.2612,2.4433,2.5499,2.58,2.6175,2.6064,2.5402,2.4165,2.2593,0.0,0.0,0.0,0.0,0.0,0.0,0.0,0.0,0.0,0.0,0.0,0.0,0.0,0.0,0.0,0.0,0.0,0.0,0.0,0.0,0.0,0.0,0.0,0.0,0.0,0.0,0.0,0.0,0.0,0.0,0.0,0.0,0.0,0.0,0.0,0.0,0.0,0.0,0.0,0.0,1.7978,1.8341,1.7996,0.0,0.0,0.0,0.0,0.0,0.0,1.8129,1.8367,0.0,0.0,0.0,0.0,0.0,0.0,0.0,0.0,0.0,0.0,0.0,0.0,0.0,0.0,0.0,0.0,0.0,0.0,0.0,0.0,0.0,0.0,0.0,0.0,0.0,0.0,0.0,0.0,0.0,0.0,0.0,0.0,0.0,0.0,0.0,0.0,0.0,0.0,0.0,0.0,0.0,0.0,0.0,0.0,0.0,0.0,0.0,0.0,0.0,0.0,0.0,0.0,0.0,0.0,0.0,2.2772,2.4078,2.5004,2.5551,2.5586,2.5443,2.5174,2.358,2.2086,0.0,0.0,0.0,0.0,0.0,0.0,0.0,0.0,0.0,0.0,0.0,0.0,0.0,0.0,0.0,0.0,0.0,0.0,0.0,0.0,0.0,0.0,0.0,0.0,0.0,0.0,0.0,0.0,0.0,0.0,0.0,0.0,0.0,0.0,0.0,0.0,0.0,0.0,0.0,0.0,0.0,1.8918,1.85,1.8237,0.0,0.0,0.0,0.0,1.8183,1.8626,0.0,0.0,0.0,0.0,0.0,0.0,0.0,0.0,0.0,0.0,0.0,0.0,0.0,0.0,0.0,0.0,0.0,0.0,0.0,0.0,0.0,0.0,0.0,0.0,0.0,0.0,0.0,0.0,0.0,0.0,0.0,0.0,0.0,0.0,0.0,0.0,0.0,0.0,0.0,0.0,0.0,0.0,0.0,0.0,0.0,0.0,0.0,0.0,0.0,0.0,0.0,0.0,0.0,0.0,0.0,0.0,2.2671,2.4104,2.4872,2.4819,2.4819,2.4679,2.4427,2.3311,2.2062,0.0,0.0,0.0,0.0,0.0,0.0,0.0,0.0,0.0,0.0,0.0,0.0,0.0,0.0,0.0,0.0,0.0,0.0,0.0,0.0,0.0,0.0,0.0,0.0,0.0,0.0,0.0,0.0,0.0,0.0,0.0,0.0,0.0,0.0,0.0,0.0,0.0,0.0,0.0,0.0,0.0,1.9114,1.8654,1.8299,1.8079,0.0,0.0,1.7844,1.8434,1.837,0.0,0.0,0.0,0.0,0.0,0.0,0.0,0.0,0.0,0.0,0.0,0.0,0.0,0.0,0.0,0.0,0.0,0.0,0.0,0.0,0.0,0.0,0.0,0.0,0.0,0.0,0.0,0.0,0.0,0.0,0.0,0.0,0.0,0.0,0.0,0.0,0.0,0.0,0.0,0.0,0.0,0.0,0.0,0.0,0.0,0.0,0.0,0.0,0.0,0.0,0.0,0.0,0.0,0.0,0.0,2.2045,2.2773,2.3649,2.43,2.4659,2.4266,2.4129,2.4286,2.301,2.1814,0.0,0.0,0.0,0.0,0.0,0.0,0.0,0.0,0.0,0.0,0.0,0.0,0.0,0.0,0.0,0.0,0.0,0.0,0.0,0.0,0.0,0.0,0.0,0.0,0.0,0.0,0.0,0.0,0.0,0.0,0.0,0.0,0.0,0.0,0.0,0.0,0.0,0.0,0.0,0.0,0.0,0.0,1.9229,1.9106,0.0,0.0,0.0,1.8827,1.8915,0.0,0.0,0.0,0.0,0.0,0.0,0.0,0.0,0.0,0.0,0.0,0.0,0.0,0.0,0.0,0.0,0.0,0.0,0.0,0.0,0.0,0.0,0.0,0.0,0.0,0.0,0.0,0.0,0.0,0.0,0.0,0.0,0.0,0.0,0.0,0.0,0.0,0.0,0.0,0.0,0.0,0.0,0.0,0.0,0.0,0.0,0.0,0.0,0.0,0.0,0.0,0.0,0.0,0.0,0.0,0.0,0.0,2.285,2.3286,2.3802,2.4355,2.3797,2.3691,2.407,2.2838,0.0,0.0,0.0,0.0,0.0,0.0,0.0,0.0,0.0,0.0,0.0,0.0,0.0,0.0,0.0,0.0,0.0,0.0,0.0,0.0,0.0,0.0,0.0,0.0,0.0,0.0,0.0,1.0971,0.0,0.0,0.0,0.0,0.0,0.0,0.0,0.0,0.0,0.0,0.0,0.0,0.0,0.0,1.9579,1.9703,1.9641,1.947,0.0,0.0,1.9383,1.9201,1.9591,1.9691,0.0,0.0,0.0,0.0,0.0,0.0,0.0,0.0,0.0,0.0,0.0,0.0,0.0,0.0,0.0,0.0,0.0,0.0,0.0,0.0,0.0,0.0,0.0,0.0,0.0,0.0,0.0,0.0,0.0,0.0,0.0,0.0,0.0,0.0,0.0,0.0,0.0,0.0,0.0,0.0,0.0,0.0,0.0,0.0,0.0,0.0,0.0,0.0,0.0,0.0,0.0,0.0,0.0,0.0,0.0,2.2792,2.3282,2.3512,2.3583,2.3529,2.3512,2.3542,2.2968,2.2059,0.0,0.0,0.0,0.0,0.0,0.0,0.0,0.0,0.0,0.0,0.0,0.0,0.0,0.0,0.0,0.0,0.0,0.0,0.0,0.0,0.0,0.0,0.0,0.0,0.0,0.0,0.0,0.0,0.0,0.0,0.0,0.0,0.0,0.0,0.0,0.0,0.0,0.0,0.0,0.0,0.0,2.0512,1.9803,1.9435,1.9218,0.0,0.0,1.8758,1.9053,1.9132,1.8848,1.7873,0.0,0.0,0.0,0.0,0.0,0.0,0.0,0.0,0.0,0.0,0.0,0.0,0.0,0.0,0.0,0.0,0.0,0.0,0.0,0.0,0.0,0.0,0.0,0.0,0.0,0.0,0.0,0.0,0.0,0.0,0.0,0.0,0.0,0.0,0.0,0.0,0.0,0.0,0.0,0.0,0.0,0.0,0.0,0.0,0.0,0.0,0.0,0.0,0.0,0.0,0.0,0.0,0.0,2.1935,2.2792,2.3261,2.3494,2.3494,2.3494,2.3494,2.3494,2.3168,2.2275,0.0,0.0,0.0,0.0,0.0,0.0,0.0,0.0,0.0,0.0,0.0,0.0,0.0,0.0,0.0,0.0,0.0,0.0,0.0,0.0,0.0,0.0,0.0,0.0,0.0,0.0,0.0,0.0,1.3289,1.3557,1.4242,0.0,0.0,0.0,0.0,0.0,0.0,0.0,0.0,0.0,0.0,1.9559,1.9677,1.9589,0.0,0.0,1.9214,1.9248,1.9095,1.9116,1.8833,1.808,1.785,0.0,0.0,0.0,0.0,0.0,0.0,0.0,0.0,0.0,0.0,0.0,0.0,0.0,0.0,0.0,0.0,0.0,0.0,0.0,0.0,0.0,0.0,0.0,0.0,0.0,0.0,0.0,0.0,0.0,0.0,0.0,0.0,0.0,0.0,0.0,0.0,0.0,0.0,0.0,0.0,0.0,0.0,0.0,0.0,0.0,0.0,0.0,0.0,0.0,0.0,0.0,0.0,2.1935,2.2792,2.3261,2.3494,2.3494,2.3494,2.3494,2.3494,2.3241,2.2487,0.0,0.0,0.0,0.0,0.0,0.0,0.0,0.0,0.0,0.0,0.0,0.0,0.0,0.0,0.0,0.0,0.0,0.0,0.0,0.0,0.0,0.0,0.0,0.0,0.0,0.0,0.0,0.0,1.4406,1.4607,1.5184,0.0,0.0,0.0,0.0,0.0,0.0,0.0,0.0,0.0,0.0,1.904,1.9483,1.9589,1.9561,1.9325,1.9603,1.9711,1.9362,1.9236,1.8906,1.8057,0.0,0.0,0.0,0.0,0.0,0.0,0.0,0.0,0.0,0.0,0.0,0.0,0.0,0.0,0.0,0.0,0.0,0.0,0.0,0.0,0.0,0.0,0.0,0.0,0.0,0.0,0.0,0.0,0.0,0.0,2.0399,0.0,0.0,0.0,0.0,0.0,0.0,0.0,0.0,0.0,0.0,0.0,0.0,0.0,0.0,0.0,0.0,0.0,0.0,0.0,0.0,0.0,0.0,2.1953,2.2792,2.33,2.3499,2.3517,2.3494,2.3494,2.3494,2.3241,2.2716,2.1919,0.0,0.0,0.0,0.0,0.0,0.0,0.0,0.0,0.0,0.0,0.0,0.0,0.0,0.0,0.0,0.0,0.0,0.0,0.0,0.0,0.0,0.0,0.0,0.0,0.0,0.0,1.5145,1.5043,1.5111,0.0,0.0,0.0,0.0,0.0,0.0,0.0,0.0,0.0,0.0,1.9125,1.9386,1.9155,1.9328,1.9517,1.9645,1.9945,2.005,1.9726,1.9566,1.9002,0.0,0.0,0.0,0.0,0.0,0.0,0.0,0.0,0.0,0.0,0.0,0.0,0.0,0.0,0.0,0.0,0.0,0.0,0.0,0.0,0.0,0.0,0.0,0.0,0.0,0.0,0.0,2.2182,2.2019,0.0,0.0,0.0,0.0,0.0,0.0,0.0,0.0,0.0,0.0,0.0,2.4011,2.3963,0.0,0.0,0.0,0.0,0.0,0.0,0.0,0.0,0.0,0.0,0.0,0.0,2.2959,2.3803,2.3852,2.3768,2.3642,2.3624,2.3594,2.3517,2.3241,2.2235,2.0464,0.0,0.0,0.0,0.0,0.0,0.0,0.0,0.0,0.0,0.0,0.0,0.0,0.0,0.0,0.0,0.0,0.0,0.0,0.0,0.0,0.0,0.0,0.0,0.0,0.0,1.5772,0.0,0.0,0.0,0.0,0.0,0.0,0.0,0.0,0.0,0.0,0.0,1.891,1.9165,1.9169,1.9156,1.904,1.9109,1.9192,0.0,0.0,0.0,0.0,0.0,0.0,0.0,0.0,0.0,0.0,0.0,0.0,0.0,0.0,1.4228,1.291,1.2457,1.2373,1.2833,0.0,0.0,0.0,0.0,0.0,0.0,0.0,0.0,0.0,0.0,0.0,0.0,0.0,0.0,2.372,0.0,2.245,0.0,0.0,0.0,0.0,0.0,0.0,0.0,0.0,2.4515,2.502,2.5571,2.5261,2.5446,0.0,2.5002,2.4113,0.0,0.0,0.0,0.0,0.0,0.0,0.0,0.0,2.3487,2.4263,2.4099,2.3939,2.3816,2.3801,2.3717,2.3571,2.3342,2.2394,2.0612,1.9946,1.9026,0.0,0.0,0.0,0.0,0.0,0.0,0.0,0.0,0.0,0.0,0.0,0.0,0.0,0.0,0.0,0.0,0.0,0.0,0.0,0.0,0.0,0.0,0.0,1.6407,0.0,0.0,0.0,0.0,0.0,0.0,0.0,0.0,0.0,1.9322,1.8959,1.8745,1.9037,1.9049,1.895,1.8774,0.0,0.0,0.0,0.0,0.0,0.0,0.0,1.9027,1.7974,1.8058,1.792,1.6959,1.6888,1.7003,1.6924,0.0,0.0,1.3227,1.2571,1.2304,1.2499,1.2926,1.3303,1.3299,1.3271,1.318,0.0,0.0,0.0,0.0,0.0,0.0,0.0,0.0,2.6365,2.6223,0.0,2.4466,0.0,0.0,0.0,0.0,0.0,2.4276,0.0,0.0,2.6153,2.6796,2.6935,2.6313,2.5903,2.58,2.6042,2.5687,2.4813,2.3353,0.0,0.0,0.0,0.0,0.0,0.0,2.3611,2.4266,2.4209,2.4077,2.4052,2.4058,2.3943,2.3692,2.3571,2.3124,2.2321,2.2232,2.1132,1.8698,1.8471,0.0,0.0,0.0,0.0,0.0,0.0,0.0,0.0,0.0,0.0,0.0,0.0,0.0,0.0,0.0,0.0,0.0,0.0,0.0,0.0,1.6238,0.0,0.0,0.0,0.0,0.0,0.0,0.0,0.0,0.0,0.0,1.8835,1.8963,1.8788,1.8422,0.0,0.0,0.0,0.0,1.9371,1.9362,1.963,1.9722,1.9391,1.9719,1.9412,1.7597,0.0,0.0,1.6978,1.7123,1.7301,1.698,1.5984,1.4969,1.4524,1.3972,1.3585,1.319,1.3369,1.3341,1.251,1.2236,1.199,3.1078,0.0,0.0,0.0,0.0,2.9876,2.9924,3.015,2.8988,2.8089,2.7419,2.7008,0.0,0.0,0.0,0.0,0.0,0.0,2.8596,2.8989,2.8838,2.8782,2.8802,2.8032,2.7744,2.7808,2.7289,2.7225,2.7475,2.6392,2.5307,2.4326,0.0,0.0,0.0,0.0,2.5128,2.5422,2.5857,2.5706,2.5017,2.5,2.4588,2.3732,2.3589,2.3124,2.2343,2.2307,2.1711,2.0403,1.9047,0.0,0.0,0.0,0.0,0.0,0.0,0.0,0.0,0.0,0.0,0.0,0.0,0.0,0.0,0.0,0.0,0.0,0.0,0.0,1.5825,1.6567,1.6899,0.0,0.0,0.0,0.0,0.0,0.0,0.0,0.0,0.0,1.8742,1.8402,1.8238,0.0,0.0,1.8593,1.9026,1.9013,1.8902,1.8903,1.8912,0.0,1.876,1.8955,1.8686,1.7406,1.7137,1.7186,1.7714,1.7556,1.741,1.7693,1.6521,1.5458,1.53,1.4104,1.3322,1.3322,1.2977,1.2615,1.2457,1.1915,1.1488,3.3181,3.1631,3.1178,3.1413,3.2015,3.156,3.1318,3.1297,3.0632,3.0031,2.9477,2.9198,2.854,2.7692,2.8202,0.0,0.0,0.0,3.0367,3.0941,3.047,3.0413,3.0657,2.9933,2.9604,2.9633,2.8946,2.8812,2.9232,2.8631,2.7736,2.6561,0.0,0.0,2.592,2.6118,2.6262,2.6316,2.6711,2.6599,2.6003,2.5553,2.4988,2.4327,2.3777,2.3267,2.2803,2.2785,2.2349,2.148,2.0414,1.9311,0.0,0.0,0.0,0.0,0.0,0.0,0.0,0.0,0.0,0.0,0.0,1.5298,1.5954,0.0,0.0,0.0,1.4862,1.5729,1.6054,1.6879,0.0,0.0,0.0,0.0,0.0,0.0,0.0,1.8369,1.814,1.8016,1.8354,1.8004,1.7975,1.8492,1.8585,1.8621,1.8822,0.0,1.8965,1.8652,1.8556,1.8478,1.8478,1.8649,1.8495,1.7709,1.721,1.7207,1.8025,1.8052,1.8014,1.7901,1.6982,1.6018,1.5932,1.4546,1.3447,1.3691,1.3298,1.2894,1.2855,1.2167,1.152,3.5113,3.4394,3.3291,3.307,3.345,3.3469,3.2482,3.0987,3.1671,3.1949,3.1838,3.1102,3.1225,3.1923,3.0784,0.0,3.0186,3.0443,3.0914,3.1471,3.149,3.1851,3.2458,3.1882,3.1516,3.1328,3.0835,3.0471,3.0255,3.0295,2.9884,2.9007,2.802,2.7375,2.7133,2.7134,2.7119,2.699,2.7083,2.7083,2.699,2.5807,2.5202,2.5184,2.4096,2.3494,2.3494,2.3494,2.3087,2.2177,2.2211,2.1031,1.8398,0.0,0.0,0.0,0.0,0.0,0.0,0.0,0.0,0.0,0.0,0.0,0.0,0.0,0.0,0.0,1.5798,0.0,1.6276,1.7196,0.0,0.0,0.0,1.8886,1.8889,1.8741,1.8662,1.8727,0.0,0.0,1.7995,1.8007,1.8131,1.8349,1.8769,1.8857,1.8313,1.9086,1.9432,1.8939,1.8728,1.8658,1.8647,1.8645,1.8612,1.838,1.7823,1.7604,1.8145,1.8378,1.849,1.8201,1.7252,1.6429,1.6342,1.5114,1.4238,1.4204,1.4053,1.3844,1.3341,1.2575,1.1748,3.6675,3.6786,3.5901,3.4955,3.4027,3.4027,3.3753,3.3361,3.3481,3.3215,3.2678,3.2995,3.3078,3.2895,3.2568,3.2504,3.2656,3.3318,3.3715,3.3866,3.3923,3.3788,3.3473,3.3344,3.3015,3.2492,3.2378,3.2263,3.2198,3.2129,3.1974,3.1745,3.1339,2.9769,2.7226,2.7606,2.7866,2.7827,2.8477,2.8496,2.7789,2.6121,2.5202,2.5202,2.4114,2.3494,2.3494,2.3494,2.3405,2.314,2.2445,2.1674,2.0739,1.8975,0.0,0.0,0.0,0.0,0.0,0.0,0.0,0.0,0.0,1.7575,1.7125,0.0,1.7624,0.0,1.6219,1.6386,1.7178,1.7996,0.0,0.0,1.9867,2.0423,1.9948,1.9852,1.9704,1.9309,1.9131,1.918,1.9446,1.9893,2.0284,2.056,1.9297,1.8819,2.0081,2.0246,2.0339,2.0526,2.0189,1.9782,1.9251,1.86,1.8503,1.9206,1.8262,1.7736,1.865,1.7836,1.7289,1.7821,1.6819,1.6011,1.6218,1.5615,1.5117,1.5002,1.4137,1.3405,1.3476,1.2417,1.1324,3.7307,3.7137,3.6639,3.5974,3.521,3.484,3.4692,3.4654,3.424,3.379,3.342,3.3769,3.3783,3.3499,3.3717,3.389,3.4033,3.4661,3.4962,3.4981,3.5053,3.4854,3.4515,3.4576,3.4405,3.4064,3.4051,3.4051,3.4032,3.359,3.3306,3.3219,3.2778,3.1509,2.9563,2.9383,2.9156,2.8763,2.9187,2.9165,2.8643,2.6827,2.5855,2.5837,2.4368,2.3576,2.3594,2.3522,2.3494,2.3476,2.2975,2.2335,2.1606,2.0294,1.8889,0.0,0.0,0.0,0.0,0.0,0.0,0.0,0.0,0.0,0.0,0.0,1.8175,1.7167,1.7102,1.7413,1.8199,1.8933,1.9509,1.9924,2.0882,2.1339,2.1002,2.0893,2.0918,2.0957,2.0591,2.0542,2.1116,2.1208,2.1309,2.1719,2.0731,2.0385,2.1353,2.1572,2.1527,2.1327,2.1034,2.058,2.0002,1.9249,1.9001,1.9523,1.8845,1.8338,1.8871,1.8246,1.7774,1.7943,1.7093,1.6224,1.626,1.5806,1.542,1.5187,1.4592,1.4099,1.4209,1.3313,1.2406,3.7634,3.6796,3.6693,3.6711,3.6722,3.5947,3.5467,3.5246,3.4471,3.4083,3.3972,3.3921,3.3895,3.3928,3.4375,3.4632,3.4714,3.5102,3.5281,3.53,3.5364,3.5398,3.5412,3.546,3.5507,3.5507,3.5507,3.5507,3.5468,3.4737,3.4279,3.4072,3.3402,3.2905,3.2604,3.1693,3.0678,2.957,2.9471,2.9427,2.9368,2.7742,2.679,2.6562,2.4823,2.3757,2.3624,2.3504,2.3448,2.3448,2.3448,2.29,2.1788,2.16,2.0653,0.0,1.8635,0.0,0.0,0.0,0.0,0.0,0.0,0.0,0.0,1.835,1.8519,1.8017,1.8311,1.8767,1.929,2.003,2.0712,2.1307,2.1758,2.2098,2.2203,2.2124,2.2268,2.3003,2.232,2.2127,2.272,2.2325,2.2172,2.264,2.2787,2.2765,2.2734,2.2985,2.2831,2.1865,2.164,2.1461,2.1029,2.0475,2.0127,2.0143,1.9598,1.9145,1.9129,1.8951,1.8744,1.8391,1.7867,1.7322,1.6743,1.6229,1.5664,1.5595,1.5281,1.4999,1.4942,1.4355,1.38,3.8848,3.8279,3.8279,3.8279,3.8205,3.7426,3.6398,3.5283,3.5063,3.4549,3.386,3.3815,3.403,3.4375,3.4486,3.4734,3.5107,3.5174,3.5242,3.5308,3.53,3.533,3.5412,3.546,3.5507,3.5507,3.5507,3.5507,3.5488,3.5353,3.5243,3.5196,3.5042,3.4606,3.3868,0.0,0.0,0.0,2.9474,2.9492,2.9307,2.8363,2.7329,2.6326,2.5126,0.0,2.3259,2.3193,2.3193,2.3168,2.307,0.0,0.0,0.0,0.0,0.0,0.0,0.0,0.0,0.0,0.0,0.0,1.9498,1.9092,1.8545,1.8809,1.9111,1.931,2.0015,2.0524,2.064,2.1714,2.2613,2.3129,2.327,2.3493,2.39,2.4134,2.4221,2.3959,2.3987,2.397,2.3774,2.4076,2.4361,2.4408,2.4928,2.5224,2.5149,2.439,2.4047,2.4174,2.3322,2.276,2.2636,2.2138,2.1776,2.1707,2.0642,1.9833,1.9618,1.8927,1.8758,1.9202,1.8981,1.8612,1.8731,1.7882,1.6941,1.6807,1.6111,1.5368,1.4859,1.4172,1.3545,3.9253,0.0,3.875,3.8707,0.0,3.8248,3.7463,3.6362,3.5919,3.5468,3.5037,3.5037,3.5225,3.5605,3.5702,3.5941,3.6272,3.5976,3.5854,3.5873,3.5477,3.5315,3.5354,3.5383,3.5398,3.5398,3.5412,3.5412,3.5412,3.5412,3.5412,3.546,3.5412,3.5182,3.4773,3.3952,3.2312,2.9869,2.9574,2.9351,2.9243,2.8468,2.7534,2.6457,0.0,0.0,0.0,0.0,0.0,0.0,0.0,0.0,0.0,0.0,0.0,2.0638,2.0531,2.0481,2.0416,2.0731,2.1034,2.129,2.0821,2.0224,1.9478,1.9713,2.0101,2.0609,2.1346,2.1953,2.2411,2.302,2.3612,2.4062,2.4388,2.4633,2.4796,2.5128,2.5297,2.5077,2.4806,2.472,2.4937,2.4921,2.5118,2.5397,2.5729,2.5893,2.5851,2.5374,2.5036,2.5033,2.4272,2.3716,2.3926,2.3579,2.306,2.2682,2.1794,2.0898,2.0297,1.9756,1.9533,1.9957,1.9574,1.9205,1.9163,1.8219,1.7316,1.7089,1.6234,1.5364,1.493,1.4445,1.4061,3.935,3.9073,3.881,3.8707,3.8707,3.8707,3.8352,3.7695,0.0,0.0,0.0,3.637,3.6554,3.6827,3.7005,3.7206,3.7414,3.695,3.6619,3.6487,3.5825,3.5438,3.5308,3.532,3.5315,3.5315,3.5315,3.5315,3.5315,3.5315,3.535,3.5379,3.533,3.5266,3.5178,3.4073,3.2587,3.084,2.9902,2.9351,2.9178,2.8572,2.7811,2.6864,2.5885,2.4919,2.4033,2.3684,2.341,2.3255,2.3187,2.2903,2.232,2.2355,2.224,2.1875,2.1884,2.2183,2.2726,2.2718,2.2781,2.298,2.2117,2.1177,2.0216,2.0537,2.0978,2.1456,2.2387,2.3258,2.3999,2.433,2.4554,2.4897,2.5292,2.5517,2.5374,2.5678,2.5851,2.5839,2.5301,2.5134,2.5715,2.5453,2.5342,2.5784,2.5893,2.5893,2.5893,2.5837,2.564,2.5233,2.4769,2.4587,2.491,2.4598,2.4063,2.3434,2.2721,2.1941,2.1076,2.0696,2.0626,2.0451,2.0029,1.9835,1.9535,1.8601,1.7612,1.7349,1.6331,1.5448,1.5276,1.4989,1.4708,3.935,3.9073,3.881,3.8707,3.8707,3.8707,3.8766,3.8739,3.7043,3.6436,3.666,3.6642,3.6881,3.7291,3.733,3.7471,3.7658,3.7578,3.7154,0.0,3.6364,3.5975,3.532,3.53,3.5315,3.5315,3.5315,3.5315,3.5315,3.53,3.5315,3.5315,3.5315,3.5119,3.4679,3.3863,3.3026,3.2298,3.1051,2.9981,2.913,2.9175,2.8611,2.7447,2.7149,2.6453,2.52,2.5112,2.4646,2.3749,2.3577,2.3102,2.222,2.2605,2.2687,2.246,2.2916,2.327,2.3381,2.3383,2.3365,2.3377,2.2933,2.1869,2.0005,2.066,2.1182,2.1193,2.3124,2.4432,2.4772,2.5689,2.6257,2.6211,2.6189,2.609,2.5955,2.5932,2.5893,2.5893,2.5825,2.5701,2.5839,2.5784,2.5729,2.5893,2.5893,2.5893,2.5893,2.5893,2.5865,2.5795,2.5711,2.5683,2.56,2.5273,2.4637,2.3992,2.3007,2.2101,2.1402,2.1164,2.1045,2.0973,2.1087,2.1148,2.0996,1.9942,1.9026,1.8592,1.7288,1.6206,1.6028,1.5505,1.4919,3.9458,3.9082,3.8979,3.8822,3.8689,3.8851,3.9073,3.9223,3.8409,3.81,3.8203,3.8228,3.8404,3.8736,3.8757,3.8898,3.9107,3.8647,3.8244,3.7804,3.6922,3.6307,3.5927,3.5468,3.5239,3.5258,3.5736,3.5717,3.5315,3.5698,3.5733,3.5346,3.5324,3.5105,3.4754,3.4256,3.3608,3.2804,3.1201,3.0157,2.9687,2.9355,2.8684,2.7675,2.7505,2.6917,2.5875,2.5535,2.5181,2.4669,2.4482,2.4081,2.349,2.3569,2.3519,2.3342,2.342,2.367,2.4096,2.4426,2.445,2.4078,2.389,2.3294,2.2117,2.2827,2.3383,2.3651,2.5119,2.6104,2.6281,2.6586,2.6788,2.6776,2.6481,2.6326,2.6272,2.6042,2.5893,2.5893,2.5893,2.5893,2.5893,2.5893,2.5893,2.5893,2.5893,2.5893,2.5893,2.5893,2.5893,2.5893,2.5893,2.5893,2.5893,2.5397,2.4765,2.4092,2.3288,2.2499,2.1873,2.1568,2.1445,2.131,2.146,2.1451,2.1348,2.0484,1.9694,1.8936,1.7903,1.693,1.6363,1.5817,1.5249,3.9726,3.921,3.9129,3.9017,3.8892,3.9101,3.935,3.958,3.958,3.9623,3.967,3.9623,3.9739,3.9956,3.9996,4.0098,4.0196,3.9659,3.9257,3.8877,3.7651,3.6982,3.6738,3.6069,3.5763,3.584,3.647,3.6337,3.5668,3.6184,3.6086,3.5372,3.5296,3.5124,3.4793,3.4612,3.4076,3.3141,3.1575,3.065,3.0448,2.9696,2.8962,2.8393,2.7958,2.744,2.6789,2.6257,2.5914,2.5674,2.5386,2.506,2.4662,2.4519,2.4365,2.4194,2.407,2.4216,2.4778,2.5309,2.5373,2.4806,2.4851,2.4799,2.4621,2.5219,2.5756,2.6067,2.6758,2.7425,2.7465,2.7276,2.7086,2.7115,2.6811,2.6645,2.6669,2.6365,2.615,2.615,2.615,2.6204,2.615,2.615,2.6204,2.6204,2.615,2.615,2.6002,2.5934,2.5893,2.5729,2.5743,2.5798,2.5798,2.5104,2.4523,2.4034,2.3314,2.264,2.2051,2.1901,2.1714,2.1416,2.1376,2.1348,2.1158,2.0431,1.9628,1.9023,1.7992,1.7035,1.6446,1.6074,1.5625,4.0184,3.9464,3.921,3.9219,3.9408,3.9433,3.9623,3.9848,3.9851,3.9996,4.0157,3.9956,3.9996,4.0253,4.0253,4.0272,4.031,4.0215,3.9756,3.9088,3.8839,3.8343,3.7617,3.7483,3.7483,3.7426,3.754,3.7177,3.6413,3.6453,3.6069,3.5305,3.5209,3.5,3.4593,3.4529,3.4228,3.3732,3.2834,3.2027,3.1274,3.0503,3.0044,2.9971,2.9232,2.8712,2.8318,2.8022,2.7431,2.6553,2.6167,2.5605,2.4815,2.4991,2.5096,2.4875,2.5163,2.5433,2.5497,2.5562,2.5546,2.553,2.5837,2.6054,2.6094,2.7058,2.7287,2.6816,2.7355,2.7859,2.7861,2.7805,2.763,2.753,2.7372,2.7284,2.7284,2.7086,2.7019,2.6982,2.6916,2.6967,2.6916,2.6864,2.693,2.6826,2.6759,2.6563,2.6082,2.5974,2.5756,2.5342,2.53,2.5494,2.5425,2.4523,2.406,2.3943,2.2944,2.2285,2.2173,2.1851,2.1388,2.14,2.1336,2.1221,2.0903,2.0172,1.9233,1.8911,1.8026,1.6803,1.6431,1.6294,1.6056,4.0645,4.0159,3.9589,3.9502,3.9717,3.9739,3.9892,4.0137,4.0137,4.0196,4.0291,4.0176,4.0215,4.031,4.0329,4.0329,4.0329,4.0329,4.0119,3.9737,3.926,3.8801,3.8457,3.7922,3.7693,3.775,3.8209,3.8037,3.7273,3.674,3.605,3.5286,3.519,3.4963,3.4532,3.4489,3.426,3.3815,3.3476,3.3146,3.2706,3.1568,3.0687,3.0228,2.9879,2.941,2.8846,2.8342,2.7887,2.7483,2.7039,2.663,2.6227,2.6197,2.6067,2.5789,2.5566,2.5426,2.5426,2.5333,2.5431,2.5791,2.5998,2.6433,2.7232,2.7775,2.7958,2.8042,2.8108,2.817,2.8105,2.7905,2.7765,2.7769,2.758,2.7452,2.764,2.7306,2.7122,2.7122,2.7122,2.7122,2.7122,2.7122,2.7019,2.6811,2.6774,2.6582,2.5921,2.5729,2.5508,2.5118,2.4948,2.5005,2.5061,2.4536,2.406,2.3826,2.3065,2.2297,2.2185,2.1788,2.1388,2.1336,2.1221,2.1233,2.1233,2.0442,1.9573,1.8977,1.791,1.6775,1.6542,1.6446,1.6356,4.1524,4.1079,4.0282,3.9951,3.9996,4.0017,4.0137,4.0291,4.0329,4.0329,4.0329,4.0329,4.0329,4.0329,4.0329,4.0329,4.0329,4.0329,4.0329,4.0253,3.9642,3.9355,3.9298,3.8725,3.84,3.8514,3.9069,3.8782,3.7731,3.6891,3.6069,3.5324,3.519,3.4982,3.4532,3.4489,3.4242,3.3842,3.3807,3.3807,3.3642,3.2651,3.1678,3.0925,3.0411,2.9916,2.9342,2.8521,2.8102,2.8102,2.76,2.7299,2.7299,2.699,2.6623,2.6234,2.5897,2.563,2.5504,2.552,2.574,2.623,2.6393,2.6844,2.7693,2.8041,2.834,2.8717,2.8527,2.831,2.8367,2.8122,2.7997,2.8097,2.783,2.7755,2.7955,2.7675,2.7494,2.7444,2.7545,2.7533,2.7667,2.769,2.7543,2.7554,2.7302,2.6811,2.619,2.6005,2.5723,2.5118,2.4789,2.4696,2.4818,2.4305,2.406,2.3839,2.3138,2.2285,2.2235,2.1776,2.1336,2.1221,2.1233,2.1169,2.1031,2.0506,1.9441,1.8576,1.7569,1.683,1.6636,1.6594,1.6524,4.3042,4.2223,4.137,4.072,4.0291,4.0291,4.0291,4.0329,4.0329,4.0329,4.0329,4.0329,4.0329,4.0329,4.0329,4.0329,4.0329,4.0329,4.0329,4.031,4.0234,4.0234,4.0253,4.0215,4.0138,3.9966,4.0043,3.9336,3.7769,3.6929,3.6069,3.5267,3.5193,3.4963,3.4553,3.4467,3.426,3.3842,3.3807,3.3807,3.3807,3.3697,3.322,3.2394,3.1054,3.0265,2.9978,2.8835,2.812,2.8102,2.76,2.7299,2.725,2.7007,2.6537,2.5979,2.6273,2.6366,2.6081,2.6441,2.6824,2.6965,2.723,2.7609,2.7796,2.8124,2.8369,2.8444,2.8444,2.8465,2.8576,2.8545,2.8493,2.8424,2.8363,2.8314,2.8394,2.8281,2.8363,2.8345,2.8403,2.8629,2.9138,2.8894,2.8809,2.8955,2.8741,2.794,2.7193,2.6836,2.6215,2.5362,2.4951,2.4906,2.4553,2.4189,2.391,2.3806,2.3258,2.2273,2.2137,2.1939,2.1526,2.1221,2.1233,2.1106,2.0903,2.0096,1.8767,1.7842,1.7304,1.676,1.6542,1.6603,1.6473,4.3095,4.2341,4.1597,4.1205,4.1036,4.054,4.0329,4.0329,4.0329,4.0329,4.0329,4.0329,4.0329,4.0329,4.0329,4.0329,4.0329,4.0329,4.0329,4.0329,4.0329,4.0329,4.0329,4.0329,4.0329,4.0329,4.031,3.9718,3.8572,3.7693,3.6871,3.6016,3.5339,3.4832,3.4529,3.4371,3.413,3.386,3.3807,3.3807,3.3807,3.3807,3.3642,3.3348,3.232,3.1256,3.0246,2.9358,2.8637,2.8055,2.7491,2.7152,2.7124,2.7284,2.7339,2.7252,2.7146,2.6914,2.6549,2.6536,2.6789,2.7208,2.7411,2.7721,2.8092,2.8306,2.8411,2.8411,2.8411,2.8446,2.8479,2.8494,2.8691,2.8904,2.8667,2.8565,2.8842,2.8688,2.855,2.8996,2.9396,2.9827,2.9833,2.9441,2.9035,2.8939,2.8293,2.7553,2.6909,2.6606,2.6193,2.5353,2.4962,2.4826,2.4294,2.4099,2.3936,2.3878,2.345,2.2884,2.2555,2.2063,2.1577,2.1221,2.1169,2.1031,2.0764,1.9901,1.8509,1.7373,1.6908,1.6621,1.6482,1.6403,1.6272,4.3577,4.2826,4.2362,4.1874,4.1418,4.0903,4.0521,4.0348,4.0329,4.0329,4.0329,4.0329,4.0329,4.0329,4.0329,4.0329,4.0329,4.0329,4.0329,4.0329,4.0329,4.0329,4.0329,4.0329,4.0329,4.0329,4.0329,3.9871,3.903,3.84,3.7505,3.6347,3.559,3.496,3.4476,3.4274,3.4074,3.386,3.3807,3.3807,3.3807,3.3807,3.3807,3.3733,3.3275,3.2375,3.0992,2.9873,2.9037,2.8415,2.7778,2.7518,2.7708,2.7996,2.8182,2.8202,2.8143,2.7795,2.7284,2.719,2.7411,2.7657,2.7734,2.795,2.8365,2.8411,2.8411,2.8411,2.8411,2.8411,2.8411,2.8411,2.8575,2.8915,2.8667,2.8596,2.9012,2.8873,2.9089,2.9643,3.0074,3.0428,3.0584,3.0051,2.9622,2.9246,2.8439,2.7626,2.7064,2.6744,2.6422,2.5743,2.5664,2.5249,2.4773,2.4491,2.4197,2.4027,2.345,2.3053,2.2616,2.2125,2.1639,2.1285,2.1031,2.0828,2.0366,1.9573,1.8509,1.7235,1.6691,1.6412,1.6342,1.6202,1.607,4.457,4.3847,4.377,4.2802,4.1607,4.1359,4.094,4.0349,4.0291,4.0291,4.0291,4.031,4.0329,4.0329,4.0329,4.0329,4.0329,4.0329,4.0329,4.0329,4.0329,4.0329,4.0329,4.0329,4.0329,4.0329,4.0329,3.989,3.9145,3.886,3.7947,3.6463,3.6043,3.5305,3.4221,3.4173,3.4049,3.386,3.3807,3.3807,3.3807,3.3807,3.3807,3.3807,3.3715,3.3303,3.2507,3.0476,2.9354,2.9113,2.8464,2.8459,2.8988,2.9085,2.8918,2.8765,2.9052,2.8918,2.8287,2.86,2.8607,2.8465,2.8365,2.8334,2.8462,2.846,2.8411,2.8411,2.8411,2.8427,2.8488,2.8504,2.8596,2.8473,2.8593,2.8581,2.8781,2.9119,2.9689,3.0237,3.0514,3.0751,3.1091,3.0659,3.016,2.9894,2.9279,2.8452,2.7838,2.7459,2.7183,2.6752,2.6334,2.5876,2.538,2.4922,2.457,2.4164,2.3356,2.2798,2.2494,2.2063,2.1451,2.1094,2.0764,2.0506,1.9573,1.8844,1.823,1.7226,1.6821,1.6272,1.6202,1.6061,1.6,4.4862,4.4646,4.403,4.3216,4.2174,4.1584,4.0879,4.0176,4.0196,4.0215,4.0234,4.0272,4.0329,4.031,4.0329,4.031,4.0329,4.0329,4.0329,4.0311,4.031,4.0329,4.0329,4.0329,4.0329,4.0329,4.0329,4.0158,3.9795,3.9108,3.8096,3.7048,3.607,3.5147,3.4271,3.4023,3.3887,3.3834,3.3807,3.3807,3.3807,3.3807,3.3807,3.3807,3.3753,3.3497,3.2962,3.1572,3.0362,2.9487,2.9025,2.9102,2.9658,2.9773,2.9804,2.9886,3.0037,2.9753,2.8984,2.8978,2.909,2.8873,2.8605,2.8573,2.8779,2.8573,2.8444,2.8411,2.8411,2.8581,2.8978,2.907,2.9239,2.9735,2.9373,2.9458,3.0151,3.0551,3.0791,3.093,3.1343,3.153,3.1076,3.0529,2.9935,2.94,2.8675,2.7987,2.7736,2.759,2.7288,2.6804,2.6621,2.6321,2.5439,2.4732,2.4214,2.3773,2.3163,2.2604,2.2298,2.1815,2.1262,2.0764,2.0442,1.9846,1.8911,1.824,1.7696,1.7088,1.6482,1.6202,1.614,1.6,1.5867,4.4962,4.4919,4.4113,4.3282,4.2512,4.1635,4.0857,4.0174,4.0157,4.0138,4.0176,4.0234,4.0273,4.0291,4.0272,4.0272,4.0253,4.0272,4.0272,4.0234,4.0272,4.031,4.0329,4.0329,4.0234,4.0176,4.0157,4.0098,3.9977,3.9296,3.8486,3.7539,3.6733,3.5725,3.4641,3.4355,3.4137,3.3862,3.3807,3.3807,3.3807,3.3807,3.3788,3.3753,3.3744,3.3437,3.2916,3.2183,3.1243,3.0127,2.9657,2.9827,3.0429,3.0531,3.0583,3.0704,3.0683,3.0335,2.9528,2.954,2.9422,2.9182,2.9013,2.892,2.9044,2.8779,2.8605,2.8444,2.8411,2.8596,2.8947,2.9269,2.9715,3.0317,3.0001,3.0237,3.1113,3.1344,3.1374,3.1463,3.1607,3.1477,3.1028,3.03,2.958,2.8839,2.8247,2.7683,2.763,2.7536,2.7249,2.6974,2.6778,2.6205,2.5262,2.4551,2.39,2.3401,2.2823,2.2494,2.2175,2.1439,2.0828,2.0302,1.9911,1.9452,1.8586,1.7969,1.7413,1.6742,1.614,1.6008,1.5938,1.5876,1.5805,4.4895,4.48,4.4042,4.3213,4.2446,4.1611,4.0834,4.0153,4.0077,4.0098,4.0098,4.0157,4.0215,4.0215,4.0253,4.0234,4.0234,4.0253,4.0215,4.0157,4.0176,4.0234,4.0291,4.0273,4.0157,3.9935,3.9914,3.9762,3.9537,3.9364,3.892,3.7891,3.7588,3.686,3.5257,3.4972,3.4513,3.388,3.3807,3.3807,3.3807,3.3807,3.3753,3.3716,3.3671,3.3291,3.2601,3.2229,3.1742,3.082,3.035,3.0446,3.1021,3.119,3.114,3.1134,3.119,3.0716,3.014,3.014,3.0081,2.9422,2.9454,2.9661,2.9332,2.9074,2.8779,2.8525,2.8444,2.8488,2.8701,2.9147,2.9823,3.0391,3.0637,3.0845,3.1151,3.1304,3.1525,3.1728,3.148,3.097,3.0852,3.0133,2.9518,2.8776,2.84,2.7959,2.7683,2.7523,2.7497,2.7157,2.6765,2.5807,2.4734,2.3677,2.303,2.2454,2.2051,2.1865,2.1678,2.106,2.0377,1.9857,1.9396,1.8931,1.8317,1.7628,1.7079,1.6473,1.607,1.5876,1.5805,1.5805,1.5655,4.4895,4.48,4.4042,4.3208,4.2379,4.1563,4.0729,4.0011,3.9996,4.0017,4.0057,4.0117,4.0137,4.0137,4.0137,4.0137,4.0117,4.0137,4.0137,4.0096,3.9933,4.0017,4.0176,4.0157,3.9996,3.9762,3.9717,3.9585,3.9275,3.9082,3.8554,3.7692,3.7548,3.6641,3.5143,3.496,3.4541,3.3917,3.3807,3.378,3.3726,3.3726,3.3698,3.3633,3.3577,3.316,3.2419,3.1804,3.1435,3.1134,3.1002,3.097,3.1157,3.119,3.119,3.119,3.119,3.0975,3.0477,3.0435,3.0377,3.0123,2.9705,2.9572,3.0081,2.9182,2.8795,2.8748,2.8684,2.8747,2.9495,2.9858,3.0433,3.1402,3.1549,3.1641,3.1728,3.1794,3.1814,3.1811,3.1655,3.1014,3.0194,2.969,2.9142,2.8208,2.7881,2.7802,2.759,2.7469,2.7456,2.6777,2.6193,2.5229,2.4188,2.3011,2.2075,2.1389,2.1112,2.0996,2.0869,2.056,1.9922,1.933,1.8998,1.8539,1.7852,1.7157,1.6682,1.6202,1.5929,1.5726,1.5735,1.5805,1.5505,4.4706,4.4326,4.3493,4.2678,4.1844,4.101,4.0366,3.9987,3.9933,3.9954,3.9975,4.0036,4.0057,4.0038,3.9989,3.9927,3.987,3.9785,3.9698,3.9609,3.947,3.9543,3.9702,3.9724,3.9585,3.9364,3.9338,3.9117,3.8886,3.87,3.8364,3.804,3.7765,3.6882,3.5506,3.5323,3.4804,3.3918,3.3726,3.3698,3.3661,3.3661,3.3615,3.3549,3.3404,3.2943,3.2144,3.1504,3.119,3.119,3.119,3.119,3.119,3.119,3.119,3.119,3.119,3.0998,3.0642,3.0658,3.0699,3.0518,3.0081,3.0149,3.026,2.9629,2.9377,2.913,2.881,2.9149,2.9882,3.0339,3.0967,3.1652,3.1996,3.1996,3.1883,3.1868,3.1841,3.1655,3.1351,3.0837,2.9628,2.9317,2.8583,2.7842,2.759,2.7523,2.7469,2.7416,2.7258,2.671,2.5711,2.4636,2.3587,2.245,2.1411,2.0691,2.0344,2.0237,2.0172,2.0053,1.9726,1.9131,1.8607,1.8134,1.751,1.6959,1.6482,1.6132,1.5788,1.5576,1.5576,1.5513,1.5284,4.4421,4.3644,4.2754,4.1939,4.1181,4.0309,3.9946,3.9889,3.9911,3.9911,3.9911,3.9956,3.9977,3.9975,3.9857,3.9693,3.9599,3.9464,3.9171,3.9063,3.8999,3.9036,3.909,3.9231,3.909,3.8905,3.8789,3.8658,3.851,3.8382,3.8382,3.8273,3.8259,3.7562,3.634,3.6012,3.5155,3.4043,3.3688,3.3633,3.3605,3.3577,3.3502,3.3309,3.2943,3.2486,3.186,3.1389,3.119,3.119,3.119,3.119,3.119,3.119,3.119,3.119,3.119,3.1015,3.074,3.0975,3.1015,3.0757,3.0878,3.0975,3.0518,3.014,2.9761,2.9496,2.9136,2.9356,2.9999,3.0608,3.1091,3.1603,3.1784,3.1799,3.1799,3.1784,3.1727,3.1539,3.0955,3.0329,2.958,2.8967,2.8338,2.7709,2.7456,2.7443,2.7403,2.7294,2.7178,2.6852,2.5589,2.4086,2.3054,2.1932,2.096,2.0074,1.9791,1.966,1.966,1.9594,1.9396,1.9065,1.8472,1.793,1.752,1.6968,1.6342,1.5921,1.5497,1.5275,1.5133,1.4999,1.4848,4.4421,4.3625,4.2773,4.1939,4.1124,4.0268,3.9889,3.9889,3.9889,3.9889,3.9911,3.9911,3.9914,3.9911,3.9841,3.9754,3.9508,3.9364,3.9163,3.8718,3.8688,3.8554,3.8585,3.8781,3.8857,3.8688,3.8628,3.851,3.8289,3.8274,3.8241,3.8241,3.8219,3.7766,3.6921,3.623,3.5533,3.4579,3.3952,3.3613,3.352,3.3509,3.328,3.2939,3.2368,3.195,3.1714,3.1389,3.119,3.119,3.119,3.119,3.119,3.119,3.119,3.119,3.119,3.1151,3.1095,3.1112,3.1173,3.1015,3.0757,3.0618,3.0933,2.9967,2.9691,2.9671,2.9515,2.9643,3.0327,3.0543,3.0979,3.1432,3.1597,3.1597,3.1539,3.1612,3.1539,3.1409,3.1292,3.0851,2.9704,2.9393,2.8648,2.7776,2.7456,2.7364,2.7242,2.7146,2.6777,2.6493,2.4841,2.3332,2.2659,2.1643,2.0673,2.0044,1.9779,1.9546,1.9536,1.9147,1.9044,1.8724,1.8192,1.7725,1.7273,1.6551,1.585,1.5568,1.5204,1.4991,1.4776,1.4633,1.4274,4.3834,4.3019,4.2204,4.137,4.0593,4.0119,3.9889,3.9889,3.9889,3.9889,3.9889,3.9889,3.9889,3.9889,3.9754,3.9551,3.9219,3.898,3.8718,3.8465,3.8401,3.8322,3.8274,3.8446,3.8541,3.8433,3.8401,3.8322,3.8225,3.8192,3.8225,3.8192,3.8192,3.7754,3.7134,3.659,3.5823,3.4824,3.4309,3.388,3.3524,3.3268,3.2844,3.2401,3.1878,3.1657,3.1449,3.1274,3.119,3.119,3.119,3.119,3.119,3.119,3.119,3.119,3.119,3.119,3.119,3.119,3.119,3.119,3.0878,3.0866,3.0991,3.0347,3.0028,3.0068,2.9998,3.0066,3.0554,3.0953,3.1195,3.139,3.1467,3.1467,3.1467,3.1467,3.1336,3.1161,3.097,3.0222,2.9594,2.9205,2.8648,2.759,2.7297,2.7204,2.6752,2.6549,2.612,2.5438,2.3802,2.2616,2.2181,2.1396,2.0498,2.0094,2.0063,1.9983,1.9983,1.9407,1.8781,1.837,1.8018,1.7389,1.6851,1.6105,1.5497,1.5062,1.4776,1.4633,1.4418,1.4129,1.3768,4.3133,4.2166,4.1484,4.0707,3.9965,3.9889,3.9889,3.9889,3.9889,3.9889,3.9889,3.9889,3.9889,3.9845,3.9626,3.932,3.8888,3.8511,3.8274,3.8241,3.8241,3.8225,3.8225,3.8241,3.8274,3.8192,3.8225,3.8225,3.8225,3.8192,3.8192,3.8192,3.8192,3.7917,3.7355,3.6961,3.6413,3.5344,3.4635,3.4153,3.3514,3.3051,3.2401,3.1932,3.1657,3.1504,3.1291,3.119,3.119,3.1173,3.119,3.119,3.1151,3.119,3.119,3.119,3.119,3.119,3.119,3.1151,3.1151,3.1151,3.1015,3.1015,3.0964,3.0782,3.0555,3.0418,3.0316,3.038,3.0623,3.0896,3.1228,3.1437,3.1467,3.1467,3.1467,3.1424,3.1043,3.0703,3.0584,3.0086,2.9219,2.8661,2.8039,2.7523,2.7284,2.6963,2.6455,2.5915,2.5338,2.4965,2.3498,2.2248,2.1718,2.1263,2.0377,2.0267,2.0267,2.0134,2.0063,1.9394,1.8635,1.8291,1.7858,1.7055,1.6351,1.5655,1.5062,1.4633,1.4418,1.4274,1.3985,1.363,1.3193,4.281,4.1389,4.1275,4.0707,3.9946,3.9889,3.9889,3.9889,3.9889,3.9889,3.9889,3.9889,3.9889,3.986,3.9618,3.9208,3.8833,3.8423,3.8192,3.8192,3.8192,3.8192,3.8192,3.8192,3.8192,3.8192,3.8192,3.8192,3.8192,3.8192,3.8192,3.8192,3.8192,3.8029,3.7724,3.7359,3.6805,3.5858,3.4867,3.4089,3.3577,3.2836,3.2162,3.1694,3.1466,3.1308,3.123,3.119,3.1151,3.1072,3.1151,3.1072,3.0992,3.1032,3.1055,3.1095,3.1055,3.1055,3.0975,3.1015,3.1015,3.0935,3.0535,3.0586,3.066,3.0495,3.0494,3.0791,3.0529,3.0322,3.1225,3.1106,3.1046,3.1315,3.1467,3.1467,3.1351,3.1029,3.0598,3.0208,3.0147,2.9964,2.8917,2.817,2.7776,2.7201,2.6658,2.6346,2.5995,2.5157,2.4409,2.3963,2.3543,2.2345,2.1418,2.0969,2.0432,2.0442,2.035,1.9879,1.9705,1.9141,1.8557,1.7759,1.6988,1.6157,1.5539,1.5062,1.4697,1.4201,1.4057,1.3985,1.355,1.3193,1.2746,4.2318,4.1181,4.0726,4.029,3.9927,3.9889,3.9889,3.9889,3.9889,3.9889,3.9889,3.9908,4.0173,4.0371,4.0258,3.9788,3.9179,3.8449,3.8262,3.8192,3.8192,3.8192,3.8192,3.8192,3.8192,3.8192,3.8192,3.8192,3.8192,3.8192,3.8192,3.8192,3.8192,3.8106,3.7844,3.7451,3.6681,3.5881,3.4817,3.388,3.3174,3.2319,3.1858,3.1504,3.1291,3.119,3.1112,3.1112,3.1072,3.0935,3.0757,3.0617,3.0493,3.0393,3.0393,3.0559,3.0617,3.0535,3.0335,3.0208,3.0166,3.0123,2.9821,2.9749,2.9957,3.0064,3.0433,3.1006,3.1192,3.0878,3.1435,3.118,3.1255,3.142,3.1467,3.1351,3.1029,3.0703,3.0147,2.9642,2.9268,2.8839,2.8222,2.7656,2.7523,2.693,2.6213,2.577,2.537,2.4409,2.3412,2.3224,2.2894,2.2328,2.1424,2.1123,2.0761,2.0645,2.0229,1.9829,1.9049,1.8405,1.7587,1.6692,1.5897,1.524,1.4737,1.4346,1.4065,1.3775,1.355,1.3258,1.2966,1.2599,1.2231,4.1692,4.0896,4.0195,3.9889,3.9889,3.9889,3.9889,3.9908,4.0116,4.0214,4.0173,4.0382,4.0855,4.1123,4.0816,4.0253,3.9639,3.8619,3.8262,3.8192,3.8192,3.8192,3.8192,3.8192,3.8192,3.8192,3.8192,3.8192,3.8192,3.8192,3.8192,3.8192,3.8192,3.7967,3.7596,3.7506,3.6289,3.5379,3.4471,3.3684,3.2386,3.1768,3.1487,3.123,3.119,3.1134,3.1015,3.0878,3.0757,3.0593,3.0284,2.9951,2.9865,2.954,2.948,2.9685,2.9832,2.9733,2.956,2.9435,2.9524,2.9524,2.9414,2.9265,2.9481,3.0211,3.0937,3.1369,3.1465,3.1405,3.1452,3.1452,3.1452,3.1452,3.1467,3.1278,3.0703,3.0147,2.9532,2.8967,2.8403,2.7894,2.739,2.696,2.6812,2.6389,2.5676,2.5028,2.4541,2.3341,2.2488,2.2435,2.2241,2.1939,2.1486,2.139,2.112,2.108,2.0246,1.9466,1.8461,1.7512,1.6602,1.5732,1.5178,1.4551,1.4053,1.3783,1.3702,1.3484,1.2973,1.2673,1.2673,1.2157,1.1564,4.084,4.0041,3.9927,3.9889,3.9889,3.9889,3.9908,4.0022,4.0685,4.1048,4.1063,4.1688,4.1987,4.1806,4.0865,4.0099,3.9352,3.8767,3.8303,3.8269,3.8285,3.8319,3.8228,3.8192,3.814,3.814,3.8192,3.8192,3.8106,3.8106,3.8192,3.814,3.8106,3.7933,3.7395,3.7321,3.6877,3.5653,3.4557,3.3137,3.1701,3.1329,3.1252,3.119,3.1134,3.1055,3.0838,3.0559,3.0267,3.0054,2.9689,2.9422,2.9257,2.9255,2.8917,2.8856,2.9041,2.9441,2.9294,2.9232,2.9153,2.9202,2.9247,2.9472,2.9858,3.0525,3.1218,3.1447,3.1467,3.1409,3.1336,3.1394,3.1467,3.1321,3.1175,3.0822,3.0329,2.9504,2.8903,2.8117,2.7537,2.7242,2.6875,2.6483,2.6045,2.5615,2.5193,2.448,2.3745,2.2626,2.1858,2.1907,2.1873,2.1568,2.1262,2.1195,2.0954,2.1031,1.9869,1.8847,1.7752,1.6657,1.5692,1.4838,1.4321,1.4048,1.3747,1.3564,1.3492,1.3193,1.2753,1.2599,1.2592,1.1855,1.0893,4.0028,3.9689,3.9689,3.967,3.9689,3.967,3.9972,4.0424,4.0892,4.135,4.1723,4.1952,4.1924,4.153,4.0873,4.0198,3.949,3.8971,3.8687,3.851,3.858,3.8651,3.8456,3.8254,3.8088,3.788,3.7967,3.7828,3.7774,3.7933,3.8088,3.781,3.7756,3.7395,3.6978,3.6821,3.607,3.5007,3.3768,3.244,3.1501,3.119,3.1151,3.1072,3.0838,3.0617,3.0351,2.9919,2.9629,2.9422,2.9042,2.8764,2.8591,2.8432,2.8128,2.803,2.8192,2.835,2.836,2.8655,2.8876,2.8993,2.923,2.9682,3.0182,3.0633,3.1159,3.1495,3.1146,3.097,3.0807,3.0572,3.0422,3.0377,3.0437,2.9846,2.9366,2.8939,2.8182,2.7404,2.6676,2.6346,2.6082,2.5779,2.5405,2.5205,2.4564,2.3706,2.3054,2.236,2.1756,2.1405,2.1425,2.1349,2.0954,2.0731,2.0157,1.9904,1.8514,1.7525,1.6766,1.5753,1.4879,1.4248,1.3857,1.3594,1.3492,1.3419,1.3346,1.2973,1.2532,1.2231,1.1855,1.1111,1.0293,3.9383,3.9383,3.9458,3.9483,3.9521,3.9727,4.0178,4.0804,4.1387,4.1927,4.2253,4.2254,4.175,4.1011,4.0675,3.9987,3.9193,3.8977,3.8599,3.8452,3.8507,3.84,3.8039,3.781,3.7596,3.734,3.7469,3.7395,3.7246,3.7358,3.7505,3.7358,3.7358,3.6978,3.6516,3.6239,3.5752,3.4253,3.3032,3.2026,3.1286,3.1151,3.0975,3.074,3.0435,3.0123,2.9761,2.9316,2.8996,2.881,2.8448,2.8158,2.8061,2.7894,2.7745,2.772,2.7926,2.8132,2.8216,2.8441,2.8637,2.8981,2.9376,3.0043,3.0357,3.052,3.0452,3.0881,3.051,3.0269,3.0179,2.9779,2.9714,2.9543,2.9254,2.8602,2.7984,2.7525,2.6925,2.6064,2.5463,2.5334,2.5063,2.4921,2.4779,2.4707,2.3998,2.2927,2.2327,2.1873,2.1502,2.1051,2.0644,2.0557,2.0323,1.9932,1.952,1.885,1.7543,1.6605,1.6065,1.5247,1.4351,1.3829,1.3382,1.32,1.3046,1.3119,1.3127,1.268,1.2231,1.149,1.0968,1.0218,0.969,3.9129,3.9156,3.9401,3.9521,3.9571,4.0384,4.0741,4.1109,4.2393,4.2919,4.2921,4.2791,4.194,4.0866,4.0042,3.9405,3.8663,3.7877,3.7671,3.739,3.7083,3.7334,3.7202,3.7097,3.6904,3.6882,3.6943,3.6847,3.6649,3.6609,3.6825,3.69,3.6843,3.6638,3.6385,3.6097,3.5292,3.3931,3.284,3.1948,3.1278,3.0929,3.0699,3.0251,3.0081,2.9848,2.9284,2.8764,2.8511,2.8352,2.7978,2.7745,2.7745,2.766,2.7625,2.7855,2.8128,2.8398,2.8693,2.883,2.9011,2.949,2.9963,3.0317,3.05,3.0498,3.03,2.9875,2.9752,2.951,2.9476,2.9428,2.8911,2.8356,2.7748,2.73,2.6642,2.6127,2.546,2.4589,2.4264,2.4192,2.3902,2.3756,2.3986,2.3998,2.318,2.2101,2.1797,2.1415,2.1118,2.0731,2.001,1.9687,1.9371,1.8966,1.839,1.7857,1.692,1.6238,1.5676,1.4774,1.3932,1.3422,1.2973,1.2826,1.2599,1.2378,1.2231,1.2231,1.1861,1.1111,1.0438,0.9841,0.9311,3.9295,3.9605,3.9703,3.9854,4.0066,4.0402,4.1111,4.2053,4.2791,4.2901,4.2723,4.2563,4.153,4.009,3.9533,3.9193,3.8831,3.8338,3.8007,3.7924,3.7714,3.7293,3.7037,3.6631,3.6487,3.6381,3.6364,3.6155,3.5837,3.6002,3.595,3.6054,3.6249,3.6114,3.5932,3.581,3.5006,3.4054,3.3084,3.2261,3.1248,3.0617,3.0166,2.9597,2.918,2.8996,2.8607,2.8158,2.7993,2.786,2.771,2.761,2.7604,2.759,2.7825,2.8152,2.8531,2.8985,2.9578,2.9759,3.0088,3.0514,3.0658,3.0426,3.0315,3.0133,2.9827,2.9518,2.9066,2.8707,2.8094,2.7643,2.7069,2.6591,2.617,2.5787,2.5298,2.4767,2.4316,2.3588,2.339,2.3254,2.2883,2.251,2.2894,2.3128,2.2241,2.1492,2.1021,2.0702,2.0323,1.9923,1.9204,1.8798,1.8487,1.7917,1.7261,1.679,1.6401,1.5682,1.5078,1.4428,1.3607,1.3064,1.2459,1.2157,1.1781,1.1409,1.1335,1.1409,1.1186,1.0669,1.0067,0.9311,0.8775,3.9956,4.0252,4.0157,4.027,4.0517,4.0829,4.1452,4.2328,4.3036,4.2866,4.2298,4.1941,4.0959,3.9589,3.8779,3.8631,3.8368,3.7972,3.7777,3.7404,3.6999,3.6798,3.6505,3.6188,3.589,3.582,3.5803,3.5644,3.5367,3.5498,3.5453,3.5424,3.556,3.5577,3.5566,3.5396,3.493,3.3952,3.319,3.215,3.0926,3.0168,2.9569,2.9011,2.867,2.84,2.8158,2.7845,2.771,2.766,2.761,2.761,2.7649,2.782,2.8117,2.8514,2.9049,2.958,3.0256,3.0743,3.0887,3.0866,3.0719,3.0286,2.9903,2.9393,2.9016,2.8698,2.826,2.7682,2.6817,2.6464,2.5943,2.5508,2.4732,2.4299,2.3902,2.3441,2.3136,2.2713,2.2349,2.1745,2.1507,2.1125,2.1278,2.1583,2.1058,2.0294,1.9894,1.9502,1.9274,1.8798,1.8238,1.7836,1.7594,1.6935,1.6355,1.6062,1.5613,1.4911,1.4324,1.3636,1.3037,1.2443,1.1861,1.1416,1.0962,1.0432,1.0438,1.0588,1.0212,0.976,0.8917,0.8237,0.7851,4.1112,4.1135,4.0802,4.0719,4.0881,4.1879,4.1991,4.1889,4.3095,4.301,4.1734,4.0889,4.022,3.9401,3.8311,3.794,3.7732,3.705,3.6492,3.618,3.5949,3.5564,3.5421,3.5383,3.5379,3.5274,3.5258,3.5241,3.5088,3.5118,3.4994,3.4994,3.5071,3.5102,3.5245,3.5274,3.4492,3.3278,3.2628,3.1389,3.0433,2.9624,2.8934,2.8465,2.8255,2.8027,2.781,2.766,2.756,2.756,2.756,2.7619,2.7754,2.8203,2.8516,2.8695,2.9708,3.0238,3.0483,3.1055,3.0955,3.0615,3.0329,2.978,2.8917,2.8417,2.8078,2.7604,2.7242,2.662,2.6101,2.566,2.4945,2.4261,2.3468,2.2938,2.2531,2.2124,2.1811,2.1497,2.0663,1.9972,1.9816,1.9737,1.9728,1.9719,1.9571,1.9256,1.8859,1.8461,1.823,1.7768,1.7293,1.6903,1.6569,1.5936,1.544,1.5238,1.4839,1.423,1.3439,1.2726,1.2197,1.1702,1.1031,1.0357,0.9836,0.9458,0.9458,0.9458,0.9231,0.8699,0.7855,0.7238,0.7088,4.153,4.1659,4.1537,4.1615,4.1807,4.2187,4.259,4.2976,4.2894,4.1882,4.036,3.9697,3.9085,3.8346,3.8039,3.7668,3.765,3.6713,3.6044,3.6156,3.5462,3.5138,3.5041,3.5041,3.4994,3.4994,3.4947,3.4899,3.4947,3.4899,3.4899,3.4899,3.4594,3.448,3.43,3.3974,3.3064,3.2784,3.1787,3.0574,3.0034,2.9155,2.8369,2.7894,2.7894,2.7825,2.7685,2.7715,2.7664,2.7664,2.7664,2.7784,2.8002,2.8495,2.8723,2.903,2.9811,2.9725,2.9757,2.9936,3.0208,2.9997,2.9504,2.8889,2.8352,2.7723,2.7108,2.6539,2.6264,2.5505,2.441,2.4131,2.3543,2.2745,2.2025,2.1711,2.1308,2.076,2.0362,2.0119,1.9502,1.9167,1.893,1.847,1.831,1.8372,1.8301,1.8461,1.8221,1.7577,1.7172,1.6831,1.6401,1.5942,1.5554,1.5245,1.4942,1.4692,1.4234,1.3696,1.2836,1.1823,1.11,1.0472,0.9846,0.9155,0.8927,0.8703,0.8399,0.8246,0.8093,0.7859,0.7318,0.6857,0.6553,4.2228,4.2322,4.2122,4.2186,4.2426,4.2487,4.2855,4.3074,4.2158,4.0848,3.9787,3.9284,3.8848,3.8231,3.7656,3.7435,3.7523,3.6526,3.5834,3.6097,3.5338,3.4996,3.4947,3.4899,3.4947,3.4899,3.4899,3.4899,3.4899,3.4899,3.4804,3.4497,3.4068,3.3748,3.3387,3.287,3.238,3.1934,3.0814,2.9799,2.9295,2.8599,2.7944,2.771,2.764,2.773,2.791,2.797,2.7955,2.7904,2.7964,2.7891,2.8084,2.8399,2.8598,2.8857,2.9023,2.9043,2.9021,2.8291,2.8463,2.8547,2.8058,2.771,2.7324,2.6471,2.5906,2.5475,2.524,2.446,2.3467,2.3128,2.2595,2.1863,2.1252,2.0934,2.042,1.9944,1.9094,1.8779,1.832,1.8099,1.7963,1.735,1.6886,1.6952,1.7017,1.7261,1.7504,1.6862,1.6378,1.6055,1.5845,1.5636,1.5231,1.4712,1.4497,1.4216,1.343,1.2606,1.1718,1.0572,0.9972,0.9423,0.8946,0.8551,0.8246,0.7944,0.7633,0.7326,0.7092,0.6857,0.6703,0.6321,0.5938,4.3178,4.3105,4.2552,4.2436,4.2655,4.2639,4.2412,4.1883,4.0854,4.0311,4.0113,3.8936,3.8564,3.869,3.7532,3.6856,3.671,3.5943,3.5496,3.5202,3.498,3.4899,3.4899,3.4899,3.4899,3.4899,3.4899,3.4851,3.4851,3.4578,3.4317,3.3968,3.3439,3.3002,3.2585,3.1992,3.1589,3.0992,3.0083,2.9221,2.8645,2.8191,2.7906,2.7814,2.797,2.8128,2.8323,2.8427,2.8397,2.8397,2.8375,2.775,2.7603,2.79,2.7897,2.7919,2.8005,2.7749,2.755,2.6516,2.6269,2.6297,2.6273,2.612,2.5869,2.5264,2.4838,2.448,2.4253,2.3587,2.2966,2.2678,2.2371,2.1634,2.0857,2.0353,1.9828,1.9058,1.803,1.7405,1.6748,1.6557,1.6732,1.6327,1.5997,1.6162,1.6229,1.6147,1.6312,1.6154,1.5741,1.5726,1.553,1.5365,1.4928,1.4351,1.3612,1.3213,1.1905,1.0967,1.0131,0.9566,0.9068,0.8641,0.8336,0.8025,0.7638,0.7253,0.6791,0.6556,0.6244,0.6012,0.578,0.5473,0.501,4.3232,4.2844,4.2634,4.2534,4.2432,4.2432,4.1818,4.0854,4.0474,3.977,3.8347,3.7742,3.7633,3.7496,3.6754,3.6268,3.5963,3.5661,3.5321,3.5071,3.4899,3.4899,3.4899,3.4899,3.4899,3.4899,3.4851,3.4643,3.4284,3.4002,3.3475,3.2873,3.2803,3.2327,3.1637,3.0843,3.063,3.0233,2.9343,2.8717,2.8427,2.8218,2.8201,2.8263,2.8637,2.8816,2.8651,2.8591,2.8412,2.7965,2.7416,2.6915,2.7494,2.7158,2.6743,2.5937,2.5358,2.4673,2.4558,2.4173,2.3983,2.3955,2.3909,2.4249,2.4329,2.423,2.3734,2.3316,2.3084,2.2509,2.1892,2.1535,2.1231,2.0683,1.9872,1.9256,1.8638,1.7834,1.6798,1.602,1.5365,1.5375,1.5523,1.5582,1.5333,1.5514,1.5431,1.5264,1.5264,1.5264,1.5257,1.5242,1.4942,1.4837,1.4435,1.3868,1.2939,1.2088,1.0827,0.9717,0.917,0.87,0.8236,0.794,0.7791,0.7407,0.6945,0.656,0.6173,0.5783,0.547,0.5162,0.4932,0.4698,0.4465,4.316,4.2693,4.2595,4.2454,4.231,4.2287,4.1515,4.0378,4.0181,3.9333,3.8057,3.727,3.6803,3.6591,3.6165,3.5749,3.535,3.5321,3.5102,3.4977,3.4899,3.4899,3.4899,3.4899,3.4899,3.4851,3.4659,3.4382,3.3933,3.3491,3.2949,3.2508,3.2398,3.184,3.1181,3.0483,2.9946,2.9418,2.8761,2.8248,2.8233,2.8357,2.8539,2.8689,2.9212,2.9124,2.8847,2.8645,2.8067,2.7457,2.6773,2.6299,2.6385,2.5598,2.5105,2.4379,2.3725,2.3191,2.2977,2.2283,2.2093,2.1896,2.1571,2.175,2.2177,2.2243,2.205,2.1745,2.1638,2.138,2.0785,2.0227,1.9835,1.943,1.8718,1.7925,1.7195,1.6466,1.5612,1.4756,1.4405,1.4393,1.4504,1.4636,1.458,1.4496,1.4412,1.4412,1.4496,1.4664,1.4748,1.4824,1.4497,1.4102,1.3715,1.315,1.2117,1.1056,0.9806,0.8898,0.8295,0.8021,0.7744,0.7557,0.7326,0.6945,0.6483,0.5941,0.555,0.5162,0.4851,0.454,0.4387,0.4309,0.4075,4.2957,4.2634,4.2391,4.2328,4.2287,4.218,4.1324,4.0057,3.986,3.9323,3.8389,3.7351,3.6563,3.6147,3.5688,3.5362,3.5118,3.5024,3.5024,3.4899,3.4899,3.4851,3.4739,3.4787,3.4594,3.4546,3.4284,3.3866,3.3713,3.3177,3.2532,3.2342,3.2287,3.1708,3.0743,3.0328,2.9723,2.8869,2.8226,2.7727,2.7844,2.8158,2.8532,2.8604,2.8876,2.9068,2.8929,2.8482,2.7824,2.7165,2.6315,2.5456,2.4387,2.355,2.3131,2.2669,2.1916,2.1417,2.103,2.0445,2.0055,1.9817,1.9576,1.9502,1.9801,2.0817,2.0864,2.0498,2.0324,1.9812,1.9177,1.854,1.8149,1.761,1.6911,1.6327,1.5731,1.5043,1.4303,1.3682,1.3634,1.3635,1.386,1.399,1.4075,1.3652,1.3633,1.3633,1.3646,1.3977,1.4062,1.4146,1.4021,1.3542,1.2831,1.2157,1.1149,1.0053,0.8909,0.8255,0.7977,0.7651,0.7411,0.7019,0.663,0.6479,0.6093,0.5553,0.501,0.4621,0.4309,0.3997,0.3841,0.3919,0.3919,4.2652,4.2409,4.231,4.2287,4.2198,4.1645,4.1199,4.0717,3.9539,3.8439,3.7369,3.6667,3.619,3.582,3.5316,3.5024,3.4947,3.4899,3.4899,3.4899,3.4899,3.4707,3.4399,3.4399,3.4118,3.3681,3.3423,3.323,3.2803,3.2327,3.1894,3.1739,3.1781,3.1336,3.0417,3.0118,2.9307,2.8345,2.7642,2.7305,2.7528,2.7642,2.7893,2.8165,2.8512,2.8401,2.8186,2.7704,2.7103,2.64,2.4747,2.3403,2.2002,2.1302,2.075,2.0237,1.9849,1.9473,1.9008,1.859,1.8213,1.7942,1.7703,1.7458,1.7956,1.9285,1.9778,1.9298,1.8761,1.8075,1.7446,1.6927,1.6437,1.5831,1.5292,1.4832,1.4295,1.3689,1.3033,1.2868,1.2801,1.2991,1.3134,1.3313,1.3398,1.3372,1.3419,1.3334,1.3033,1.3039,1.2948,1.3033,1.347,1.3093,1.2202,1.1354,1.0325,0.9389,0.8439,0.7961,0.7508,0.7142,0.671,0.6244,0.5857,0.5783,0.555,0.5087,0.4623,0.4233,0.4077,0.3841,0.3841,0.3841,0.3841,4.2516,4.2328,4.2287,4.2073,4.1716,4.127,4.0735,3.9946,3.8919,3.7774,3.6673,3.6298,3.6062,3.5732,3.5224,3.4899,3.4899,3.4899,3.4899,3.4899,3.4804,3.4562,3.43,3.405,3.3748,3.3319,3.2949,3.2602,3.2064,3.1796,3.1582,3.1467,3.1407,3.0989,3.0182,2.9421,2.8596,2.7636,2.6909,2.6769,2.6977,2.717,2.7258,2.7551,2.775,2.7659,2.7039,2.6518,2.5616,2.4689,2.312,2.1815,2.0719,2.0118,1.9386,1.8741,1.8212,1.7725,1.7304,1.6839,1.6465,1.6208,1.5625,1.5276,1.5344,1.6533,1.7121,1.6773,1.6684,1.6087,1.5731,1.5209,1.4936,1.4473,1.4196,1.3818,1.3092,1.2288,1.1962,1.1911,1.1827,1.1908,1.2093,1.2203,1.2289,1.2289,1.2419,1.2054,1.1912,1.1849,1.1757,1.1655,1.1912,1.1918,1.1123,1.0304,0.9542,0.8702,0.8002,0.7186,0.6595,0.6345,0.6015,0.5625,0.5315,0.5085,0.4854,0.4543,0.4309,0.3997,0.3919,0.3841,0.3841,0.3841,0.3841,4.2243,4.2042,4.1966,4.1573,4.0985,4.0806,4.0057,3.8874,3.817,3.7353,3.6409,3.6172,3.6088,3.5759,3.5299,3.5071,3.4899,3.4899,3.4899,3.4899,3.4787,3.4448,3.4151,3.3882,3.3282,3.2841,3.2422,3.2064,3.164,3.1467,3.1467,3.1467,3.1081,3.0607,2.9548,2.8502,2.7551,2.6702,2.605,2.5736,2.6079,2.6517,2.6534,2.6754,2.6971,2.6881,2.5955,2.5116,2.4112,2.2895,2.1707,2.0399,1.9486,1.8911,1.8365,1.7706,1.7295,1.7019,1.6585,1.5587,1.5092,1.4521,1.3652,1.3278,1.3397,1.3684,1.428,1.4603,1.4489,1.442,1.4065,1.3672,1.3455,1.3212,1.3008,1.2776,1.1934,1.1109,1.1007,1.0963,1.1066,1.112,1.1171,1.1284,1.1257,1.1176,1.0911,1.0472,1.0125,1.0135,1.0057,0.985,0.9744,0.9662,0.9758,0.9473,0.8875,0.8435,0.774,0.6634,0.5786,0.5631,0.5395,0.516,0.4849,0.4621,0.4387,0.4231,0.3919,0.3841,0.3841,0.3841,0.3841,0.3841,0.3841,4.0989,4.036,4.036,4.0271,4.0057,3.9539,3.9058,3.8643,3.7567,3.6965,3.6574,3.595,3.5526,3.5131,3.5024,3.4899,3.4899,3.4899,3.4899,3.4899,3.4611,3.43,3.3832,3.314,3.2437,3.2064,3.1838,3.1625,3.1467,3.1482,3.1394,3.1218,3.0148,2.9377,2.8483,2.7456,2.644,2.5743,2.5401,2.5122,2.4528,2.4962,2.5667,2.5801,2.578,2.5405,2.4789,2.4291,2.3293,2.2066,2.0555,1.9152,1.8365,1.7833,1.7285,1.6724,1.6315,1.5737,1.5092,1.4299,1.3723,1.307,1.2418,1.2065,1.2018,1.1751,1.2313,1.2798,1.2864,1.3102,1.2814,1.2334,1.198,1.1849,1.1736,1.1543,1.1002,1.0652,1.0431,1.0546,1.0729,1.0781,1.0873,1.083,1.0707,1.0534,1.0183,0.9657,0.8807,0.8572,0.8424,0.8212,0.7918,0.854,0.9157,0.8905,0.8451,0.8014,0.7375,0.6105,0.5274,0.4937,0.4776,0.4618,0.4384,0.4075,0.3919,0.3919,0.3919,0.3841,0.3841,0.3841,0.3841,0.3841,0.3841]},{"header":{"parameterUnit":"m.s-1","parameterCategory":1,"la1":31.0,"la2":29.5877,"lo1":-88.7671,"lo2":-86.6584,"dy":0.0162,"dx":0.0185,"nx":115,"ny":88,"refTime":"2024-08-08T18:00:00:Z","depth":0,"parameterNumber":3,"parameterNumberName":"V-component_of_WINDS"},"data":[0.0,0.0,0.0,0.0,0.0,0.0,0.0,0.0,0.0,0.0,0.0,0.0,0.0,0.0,0.0,0.0,0.0,0.0,0.0,0.0,0.0,0.0,0.0,0.0,0.0,0.0,0.0,0.0,0.0,0.0,0.0,0.0,0.0,0.0,0.0,0.0,0.0,0.0,0.0,0.0,0.0,0.0,0.0,0.0,0.0,0.0,0.0,0.0,0.0,0.0,0.0,0.0,0.0,0.0,0.0,0.0,0.0,0.0,0.0,0.0,0.0,0.0,0.0,0.0,0.0,0.0,0.0,0.0,0.0,0.0,0.0,0.0,0.0,0.0,0.0,0.0,0.0,0.0,0.0,0.0,0.0,0.0,0.0,0.0,0.0,0.0,0.0,0.0,0.0,0.0,0.0,0.0,0.0,0.0,0.0,0.0,0.0,0.0,0.0,0.0,0.0,0.0,0.0,0.0,0.0,0.0,0.0,0.0,0.0,0.0,0.0,0.0,0.0,0.0,0.0,0.0,0.0,0.0,0.0,0.0,0.0,0.0,0.0,0.0,0.0,0.0,0.0,0.0,0.0,0.0,0.0,0.0,0.0,0.0,0.0,0.0,0.0,0.0,0.0,0.0,0.0,0.0,0.0,0.0,0.0,0.0,0.0,0.0,0.0,0.0,0.0,0.0,0.0,0.0,0.0,0.0,0.0,0.0,0.0,0.0,0.0,0.0,0.0,0.0,0.0,0.0,0.0,0.0,0.0,0.0,0.0,0.0,0.0,0.0,0.0,0.0,0.0,0.0,0.0,0.0,0.0,0.0,0.0,0.0,0.0,0.0,0.0,0.0,0.0,0.0,0.0,0.0,0.0,0.0,0.0,0.0,0.0,0.0,0.0,0.0,0.0,0.0,0.0,0.0,0.0,0.0,0.0,0.0,0.0,0.0,0.0,0.0,0.0,0.0,0.0,0.0,0.0,0.0,0.0,0.0,0.0,0.0,0.0,0.0,0.0,0.0,0.0,0.0,0.0,0.0,0.0,0.0,0.0,0.0,0.0,0.0,0.0,0.0,0.0,0.0,0.0,0.0,0.0,0.0,0.0,0.0,0.0,0.0,0.0,0.0,0.0,0.0,0.0,0.0,0.0,0.0,0.0,0.0,0.0,0.0,0.0,0.0,0.0,0.0,0.0,0.0,0.0,0.0,0.0,0.0,0.0,0.0,0.0,0.0,0.0,0.0,0.0,0.0,0.0,0.0,0.0,0.0,0.0,0.0,0.0,0.0,0.0,0.0,0.0,0.0,0.0,0.0,0.0,0.0,0.0,0.0,0.0,0.0,0.0,0.0,0.0,0.0,0.0,0.0,0.0,0.0,0.0,0.0,0.0,0.0,0.0,0.0,0.0,0.0,0.0,0.0,0.0,0.0,0.0,0.0,0.0,0.0,0.0,0.0,0.0,0.0,0.0,0.0,0.0,0.0,0.0,0.0,0.0,0.0,0.0,0.0,0.0,0.0,0.0,0.0,0.0,0.0,0.0,0.0,0.0,0.0,0.0,0.0,0.0,0.0,0.0,0.0,0.0,0.0,0.0,0.0,0.0,0.0,0.0,0.0,0.0,0.0,0.0,0.0,0.0,0.0,0.0,0.0,0.0,0.0,0.0,0.0,0.0,0.0,0.0,0.0,0.0,0.0,0.0,0.0,0.0,0.0,0.0,0.0,0.0,0.0,0.0,0.0,0.0,0.0,0.0,0.0,0.0,0.0,0.0,0.0,0.0,0.0,0.0,0.0,0.0,0.0,0.0,0.0,0.0,0.0,0.0,0.0,0.0,0.0,0.0,0.0,0.0,0.0,0.0,0.0,0.0,0.0,0.0,0.0,0.0,0.0,0.0,0.0,0.0,0.0,0.0,0.0,0.0,0.0,0.0,0.0,0.0,0.0,0.0,0.0,0.0,0.0,0.0,0.0,0.0,0.0,0.0,0.0,0.0,0.0,0.0,0.0,0.0,0.0,0.0,0.0,0.0,0.0,0.0,0.0,0.0,0.0,0.0,0.0,0.0,0.0,0.0,0.0,0.0,0.0,0.0,0.0,0.0,0.0,0.0,0.0,0.0,0.0,0.0,0.0,0.0,0.0,0.0,0.0,0.0,0.0,0.0,0.0,0.0,0.0,0.0,0.0,0.0,0.0,0.0,0.0,0.0,0.0,0.0,0.0,0.0,0.0,0.0,0.0,0.0,0.0,0.0,0.0,0.0,0.0,0.0,0.0,0.0,0.0,0.0,0.0,0.0,0.0,0.0,0.0,0.0,0.0,0.0,0.0,0.0,0.0,0.0,0.0,0.0,0.0,0.0,0.0,0.0,0.0,0.0,0.0,0.0,0.0,0.0,0.0,0.0,0.0,0.0,0.0,0.0,0.0,0.0,0.0,0.0,0.0,0.0,0.0,0.0,0.0,0.0,0.0,0.0,0.0,0.0,0.0,0.0,0.0,0.0,0.0,0.0,0.0,0.0,0.0,0.0,0.0,0.0,0.0,0.0,0.0,0.0,0.0,0.0,0.0,0.0,0.0,0.0,0.0,0.0,0.0,0.0,0.0,0.0,0.0,0.0,0.0,0.0,0.0,0.0,0.0,0.0,0.0,0.0,0.0,0.0,0.0,0.0,0.0,0.0,0.0,0.0,0.0,0.0,0.0,0.0,0.0,0.0,0.0,0.0,0.0,0.0,0.0,0.0,0.0,0.0,0.0,0.0,0.0,0.0,0.0,0.0,0.0,0.0,0.0,0.0,0.0,0.0,0.0,0.0,0.0,0.0,0.0,0.0,0.0,0.0,0.0,0.0,0.0,0.0,0.0,0.0,0.0,0.0,0.0,0.0,0.0,0.0,0.0,0.0,0.0,0.0,0.0,0.0,0.0,0.0,0.0,0.0,0.0,0.0,0.0,0.0,0.0,0.0,0.0,0.0,0.0,0.0,0.0,0.0,0.0,0.0,0.0,0.0,0.0,0.0,0.0,0.0,0.0,0.0,0.0,0.0,0.0,0.0,0.0,0.0,0.0,0.0,0.0,0.0,0.0,0.0,0.0,0.0,0.0,0.0,0.0,0.0,0.0,0.0,0.0,0.0,0.0,0.0,0.0,0.0,0.0,0.0,0.0,0.0,0.0,0.0,0.0,0.0,0.0,0.0,0.0,0.0,0.0,0.0,0.0,0.0,0.0,0.0,0.0,0.0,0.0,0.0,0.0,0.0,0.0,0.0,0.0,0.0,0.0,0.0,0.0,0.0,0.0,0.0,0.0,0.0,0.0,0.0,0.0,0.0,0.0,0.0,0.0,0.0,0.0,0.0,0.0,0.0,0.0,0.0,0.0,0.0,0.0,0.0,0.0,0.0,0.0,0.0,0.0,0.0,0.0,0.0,0.0,0.0,0.0,0.0,0.0,0.0,0.0,0.0,0.0,0.0,0.0,0.0,0.0,0.0,0.0,0.0,0.0,0.0,0.0,0.0,0.0,0.0,0.0,0.0,0.0,0.0,0.0,0.0,0.0,0.0,0.0,0.0,0.0,0.0,0.0,0.0,0.0,0.0,0.0,0.0,0.0,0.0,0.0,0.0,0.0,0.0,0.0,0.0,0.0,0.0,0.0,0.0,0.0,0.0,0.0,0.0,0.0,0.0,0.0,0.0,0.0,0.0,0.0,0.0,0.0,0.0,0.0,0.0,0.0,0.0,0.0,0.0,0.0,0.0,0.0,0.0,0.0,0.0,0.0,0.0,0.0,0.0,0.0,0.0,0.0,0.0,0.0,0.0,0.0,0.0,0.0,0.0,0.0,0.0,0.0,0.0,0.0,0.0,0.0,0.0,0.0,0.0,0.0,0.0,0.0,0.0,0.0,0.0,0.0,0.0,0.0,0.0,0.0,0.0,0.0,0.0,0.0,0.0,0.0,0.0,0.0,0.0,0.0,0.0,0.0,0.0,0.0,0.0,0.0,0.0,0.0,0.0,0.0,0.0,0.0,0.0,0.0,0.0,0.0,0.0,0.0,0.0,0.0,0.0,0.0,0.0,0.0,0.0,0.0,0.0,0.0,0.0,0.0,0.0,0.0,0.0,0.0,0.0,0.0,0.0,0.0,0.0,0.0,0.0,0.0,0.0,0.0,0.0,0.0,0.0,0.0,0.0,0.0,0.0,0.0,0.0,0.0,0.0,0.0,0.0,0.0,0.0,0.0,0.0,0.0,0.0,0.0,0.0,0.0,0.0,0.0,0.0,0.0,0.0,0.0,0.0,0.0,0.0,0.0,0.2862,0.0,0.0,0.0,0.0,0.0,0.0,0.0,0.0,0.0,0.0,0.0,0.0,0.0,0.0,0.0,0.0,0.0,0.0,0.0,0.0,0.0,0.0,0.0,0.0,0.0,0.0,0.0,0.0,0.0,0.0,0.0,0.0,0.0,0.0,0.0,0.0,0.0,0.0,0.0,0.0,0.0,0.0,0.0,0.0,0.0,0.0,0.0,0.0,0.0,0.0,0.0,0.0,0.0,0.0,0.0,0.0,0.0,0.0,0.0,0.0,0.0,0.0,0.0,0.0,0.0,0.0,0.0,0.0,0.0,0.0,0.0,0.0,0.0,0.0,0.0,0.0,0.0,0.0,0.0,0.0,0.0,0.0,0.0,0.0,0.0,0.0,0.0,0.0,0.0,0.0,0.0,0.0,0.0,0.0,0.0,0.0,0.0,0.0,0.0,0.0,0.0,0.0,0.0,0.0,0.0,0.0,0.0,0.0,0.0,0.0,0.1731,0.0675,-0.0374,-0.0748,-0.0269,0.0,0.0,0.0,0.0,0.0,0.0,0.0,0.0,0.0,0.0,0.0,0.0,0.0,0.0,0.0,0.0,0.0,0.0,0.0,0.0,0.0,0.0,0.0,0.0,0.0,0.0,0.0,0.0,0.0,0.0,0.0,0.0,0.0,0.0,0.0,0.0,0.0,0.0,0.0,0.0,0.0,0.0,0.0,0.0,0.0,0.0,0.0,0.0,0.0,0.0,0.0,0.0,0.0,0.0,0.0,0.0,0.0,0.0,0.0,0.0,0.0,0.0,0.0,0.0,0.0,0.0,0.0,0.0,0.0,0.0,0.0,0.0,0.0,0.0,0.0,0.0,0.0,0.0,0.0,0.0,0.0,0.0,0.0,0.0,0.0,0.0,0.0,0.0,0.0,0.0,0.0,0.0,0.0,0.0,0.0,0.0,0.0,0.0,0.0,0.0,0.0,0.0,0.0,0.0,0.0,0.0,0.0,0.0,0.0,0.0,0.0,0.0,-0.1852,-0.2704,-0.2752,0.0,0.0,0.0,0.0,0.0,0.0,0.0,0.0,0.0,0.0,0.0,0.0,0.0,0.0,0.0,0.0,0.0,0.0,0.0,0.0,0.0,0.0,0.0,0.0,0.0,0.0,0.0,0.0,0.0,0.0,0.0,0.0,0.0,0.0,0.0,0.0,0.0,0.0,0.0,0.0,0.0,0.0,0.0,0.0,0.0,0.0,0.0,0.0,0.0,0.0,0.0,0.0,0.0,0.0,0.0,0.0,0.0,0.0,0.0,0.0,0.0,0.0,0.0,0.0,0.0,0.0,0.0,0.0,0.0,0.0,0.0,0.0,0.0,0.0,0.0,0.0,0.0,0.0,0.0,0.0,0.0,0.0,0.0,0.0,0.0,0.0,0.0,0.0,0.0,0.0,0.0,0.0,0.0,0.0,0.0,0.0,0.0,0.0,0.0,0.0,0.0,0.0,0.0,0.0,0.0,0.0,0.0,0.0,0.0,0.0,-0.2146,-0.1667,-0.1819,0.0,-0.2443,0.0,0.0,0.0,0.0,0.0,0.0,0.0,0.0,0.0,0.0,0.0,0.0,0.0,0.0,0.0,0.0,0.0,0.0,0.0,0.0,0.0,0.0,0.0,0.0,0.0,0.0,0.0,0.0,0.0,0.0,0.0,0.0,0.0,0.0,0.0,0.0,0.0,0.0,0.0,0.0,0.0,0.0,0.0,0.0,0.0,0.0,0.0,0.0,0.0,0.0,0.0,0.0,0.0,0.0,0.0,0.0,0.0,0.0,0.0,0.0,0.0,0.0,0.0,0.0,0.0,0.0,0.0,0.0,0.0,0.0,0.0,0.0,0.0,0.0,0.0,0.0,0.0,0.0,0.0,0.0,0.0,0.0,0.0,0.0,0.0,0.0,0.0,0.0,0.0,0.0,0.0,0.0,0.0,0.0,0.0,0.0,0.0,0.0,0.0,0.0,0.0,0.0,0.0,0.0,0.0,0.0,0.0,0.0,0.0,0.0,-0.2344,-0.2635,-0.2508,-0.2475,0.0,0.0,0.0,0.0,0.0,0.0,0.0,0.0,0.0,0.0,0.0,0.0,0.0,0.0,0.0,0.0,0.0,0.0,0.0,0.0,0.0,0.0,0.0,0.0,0.0,0.0,0.0,0.0,0.0,0.0,0.0,0.0,0.0,0.0,0.0,0.0,0.0,0.0,0.0,0.0,0.0,0.0,0.0,0.0,0.0,0.0,0.0,0.0,0.0,0.0,0.0,0.0,0.0,0.0,0.0,0.0,0.0,0.0,0.0,0.0,0.0,0.0,0.0,0.0,0.0,0.0,0.0,0.0,0.0,0.0,0.0,0.0,0.0,0.0,0.0,0.0,0.0,0.0,0.0,0.0,0.0,0.0,0.0,0.0,0.0,0.0,0.0,0.0,0.0,0.0,0.0,0.0,0.0,0.0,0.0,0.0,0.0,0.0,0.0,0.0,0.0,0.0,0.0,0.0,0.0,0.0,0.0,0.0,0.0,0.0,-0.2084,0.0,-0.3152,-0.3064,-0.2881,-0.2615,0.0,0.0,0.0,0.0,0.0,0.0,0.0,0.0,0.0,0.0,0.0,0.0,0.0,0.0,0.0,0.0,0.0,0.0,0.0,0.0,0.0,0.0,0.0,0.0,0.0,0.0,0.0,0.0,0.0,0.0,0.0,0.0,0.0,0.0,0.0,0.0,0.0,0.0,0.0,0.0,0.0,0.0,0.0,0.0,0.0,0.0,0.0,0.0,0.0,0.0,0.0,0.0,0.0,0.0,0.0,0.0,0.0,0.0,0.0,0.0,0.0,0.0,0.0,0.0,0.0,0.0,0.0,0.0,0.0,0.0,0.0,0.0,0.0,0.0,0.0,0.0,0.0,0.0,0.0,0.0,0.0,0.0,0.0,0.0,0.0,0.0,0.0,0.0,0.0,0.0,0.0,0.0,0.0,0.0,0.0,0.0,0.0,0.0,0.0,0.0,0.0,0.0,0.0,0.0,0.0,0.0,0.0,0.0,0.0,-0.3061,-0.3107,-0.321,-0.3263,-0.3097,0.0,0.0,0.0,0.0,0.0,0.0,0.0,0.0,0.0,0.0,0.0,0.0,0.0,0.0,0.0,0.0,0.0,0.0,0.0,0.0,0.0,0.0,0.0,0.0,0.0,0.0,0.0,0.0,0.0,0.0,0.0,0.0,0.0,0.0,0.0,0.0,0.0,0.0,0.0,0.0,0.0,0.0,0.0,0.0,0.0,0.0,0.0,0.0,0.0,0.0,0.0,0.0,0.0,0.0,0.0,0.0,0.0,0.0,0.0,0.0,0.0,0.0,0.0,0.0,0.0,0.0,0.0,0.0,0.0,0.0,0.0,0.0,0.0,0.0,0.0,0.0,0.0,0.0,0.0,0.0,0.0,0.0,0.0,0.0,0.0,0.0,0.0,0.0,0.0,0.0,0.0,0.0,0.0,0.0,0.0,0.0,0.0,0.0,0.0,0.0,0.0,0.0,0.0,0.0,0.0,0.0,0.0,0.0,0.0,-0.2995,-0.326,-0.3523,-0.3779,-0.3604,-0.347,0.0,0.0,0.0,0.0,0.0,0.0,0.0,0.0,0.0,0.0,0.0,0.0,0.0,0.0,0.0,0.0,0.0,0.0,0.0,0.0,0.0,0.0,0.0,0.0,0.0,0.0,0.0,0.0,0.0,0.0,0.0,0.0,0.0,0.0,0.0,0.0,0.0,0.0,0.0,0.0,0.0,0.0,0.0,0.0,0.0,0.0,0.0,0.0,0.0,0.0,0.0,0.0,0.0,0.0,0.0,0.0,0.0,0.0,0.0,0.0,0.0,0.0,0.0,0.0,0.0,0.0,0.0,0.0,0.0,0.0,0.0,0.0,0.0,0.0,0.0,0.0,0.0,0.0,0.0,0.0,0.0,0.0,0.0,0.0,0.0,0.0,0.0,0.0,0.0,0.0,0.0,0.0,0.0,0.0,0.0,0.0,0.0,0.0,0.0,0.0,0.0,0.0,0.0,0.0,0.0,0.0,0.0,0.0,0.0,-0.3349,0.0,-0.4401,0.0,-0.4101,-0.3908,0.0,0.0,0.0,0.0,0.0,0.0,0.0,0.0,0.0,0.0,0.0,0.0,0.0,0.0,0.0,0.0,0.0,0.0,0.0,0.0,0.0,0.0,0.0,0.0,0.0,0.0,0.0,0.0,0.0,0.0,0.0,0.0,0.0,0.0,0.0,0.0,0.0,0.0,0.0,0.0,0.0,0.0,0.0,0.0,0.0,0.0,0.0,0.0,0.0,0.0,0.0,0.0,0.0,0.0,0.0,0.0,0.0,0.0,0.0,0.0,0.0,0.0,0.0,0.0,0.0,0.0,0.0,0.0,0.0,0.0,0.0,0.0,0.0,0.0,0.0,0.0,0.0,0.0,0.0,0.0,0.0,0.0,0.0,0.0,0.0,0.0,0.0,0.0,0.0,0.0,0.0,0.0,0.0,0.0,0.0,0.0,0.0,0.0,0.0,0.0,0.0,0.0,0.0,0.0,0.0,0.0,0.0,0.0,-0.3395,-0.4288,-0.5503,-0.5714,-0.4865,-0.4824,-0.4413,0.0,0.0,0.0,0.0,0.0,0.0,0.0,0.0,0.0,0.0,0.0,0.0,0.0,0.0,0.0,0.0,0.0,0.0,0.0,0.0,0.0,0.0,0.0,0.0,0.0,0.0,0.0,0.0,0.0,0.0,0.0,0.0,0.0,0.0,0.0,0.0,0.0,0.0,0.0,0.0,0.0,0.0,0.0,0.0,0.0,0.0,0.0,0.0,0.0,0.0,0.0,0.0,0.0,0.0,0.0,0.0,0.0,0.0,0.0,0.0,0.0,0.0,0.0,0.0,0.0,0.0,0.0,0.0,0.0,0.0,0.0,0.0,0.0,0.0,0.0,0.0,0.0,0.0,0.0,0.0,0.0,0.0,0.0,0.0,0.0,0.0,0.0,0.0,0.0,0.0,0.0,0.0,0.0,0.0,0.0,0.0,0.0,0.0,0.0,0.0,0.0,0.0,0.0,0.0,0.0,0.0,0.0,0.0,0.0,-0.4285,-0.5988,-0.6586,-0.5961,-0.5743,-0.5715,0.0,0.0,0.0,0.0,0.0,0.0,0.0,0.0,0.0,0.0,0.0,0.0,0.0,0.0,0.0,0.0,0.0,0.0,0.0,0.0,0.0,0.0,0.0,0.0,0.0,0.0,0.0,0.0,0.0,0.0,0.0,0.0,0.0,0.0,0.0,0.0,0.0,0.0,0.0,0.0,0.0,0.0,0.0,0.0,0.0,0.0,0.0,0.0,0.0,0.0,0.0,0.0,0.0,0.0,0.0,0.0,0.0,0.0,0.0,0.0,0.0,0.0,0.0,0.0,0.0,0.0,0.0,0.0,0.0,0.0,0.0,0.0,0.0,0.0,0.0,0.0,0.0,0.0,0.0,0.0,0.0,0.0,0.0,0.0,0.0,0.0,0.0,0.0,0.0,0.0,0.0,0.0,0.0,0.0,0.0,0.0,0.0,0.0,0.0,0.0,0.0,0.0,0.0,0.0,0.0,0.0,0.0,0.0,0.0,-0.5745,-0.7309,-0.7828,-0.7211,-0.6984,-0.6846,-0.6837,0.0,0.0,0.0,0.0,0.0,0.0,0.0,0.0,0.0,0.0,0.0,0.0,0.0,0.0,0.0,0.0,0.0,0.0,0.0,0.0,0.0,0.0,0.0,0.0,0.0,0.0,0.0,0.0,0.0,0.0,0.0,0.0,0.0,0.0,0.0,0.0,0.0,0.0,0.0,0.0,0.0,0.0,0.0,0.0,0.0,0.0,0.0,0.0,0.0,0.0,0.0,0.0,0.0,0.0,0.0,0.0,0.0,0.0,0.0,0.0,0.0,0.0,0.0,0.0,0.0,0.0,0.0,0.0,0.0,0.0,0.0,0.0,0.0,0.0,0.0,0.0,0.0,0.0,0.0,0.0,0.0,0.0,0.0,0.0,0.0,0.0,0.0,0.0,0.0,0.0,0.0,0.0,0.0,0.0,0.0,0.0,0.0,0.0,0.0,0.0,0.0,0.0,0.0,0.0,0.0,0.0,0.0,0.0,-0.8125,-0.9248,-0.9416,-0.8591,-0.8387,-0.7888,0.0,0.0,0.0,0.0,0.0,0.0,0.0,0.0,0.0,0.0,0.0,0.0,0.0,0.0,0.0,0.0,0.0,0.0,0.0,0.0,0.0,0.0,0.0,0.0,0.0,0.0,0.0,0.0,0.0,0.0,0.0,0.0,0.0,0.0,0.0,0.0,0.0,0.0,0.0,0.0,0.0,0.0,0.0,0.0,0.0,0.0,0.0,0.0,0.0,0.0,0.0,0.0,0.0,0.0,0.0,0.0,0.0,0.0,0.0,0.0,0.0,0.0,0.0,0.0,0.0,0.0,0.0,0.0,0.0,0.0,0.0,0.0,0.0,0.0,0.0,0.0,0.0,0.0,0.0,0.0,0.0,0.0,0.0,0.0,0.0,0.0,0.0,0.0,0.0,0.0,0.0,0.0,0.0,0.0,0.0,0.0,0.0,0.0,0.0,0.0,0.0,0.0,0.0,0.0,0.0,0.0,0.0,0.0,0.0,-0.9372,-1.0015,-0.9953,-0.9188,-0.8912,-0.867,0.0,0.0,0.0,0.0,0.0,0.0,0.0,0.0,0.0,0.0,0.0,0.0,0.0,0.0,0.0,0.0,0.0,0.0,0.0,0.0,0.0,0.0,0.0,0.0,0.0,0.0,0.0,0.0,0.0,0.0,0.0,0.0,0.0,0.0,0.0,0.0,0.0,0.0,0.0,0.0,0.0,0.0,0.0,0.0,0.0,0.0,0.0,0.0,0.0,0.0,0.0,0.0,0.0,0.0,0.0,0.0,0.0,0.0,0.0,0.0,0.0,0.0,0.0,0.0,0.0,0.0,0.0,0.0,0.0,0.0,0.0,0.0,0.0,0.0,0.0,0.0,0.0,0.0,0.0,0.0,0.0,0.0,0.0,0.0,0.0,0.0,0.0,0.0,0.0,0.0,0.0,0.0,0.0,0.0,0.0,0.0,0.0,0.0,0.0,0.0,0.0,0.0,0.0,0.0,0.0,0.0,0.0,0.0,-0.8685,-0.9966,-1.0295,-1.0212,-0.978,-0.957,-0.9328,0.0,0.0,0.0,0.0,0.0,0.0,0.0,0.0,0.0,0.0,0.0,0.0,0.0,0.0,0.0,0.0,0.0,0.0,0.0,0.0,0.0,0.0,0.0,0.0,0.0,0.0,0.0,0.0,0.0,0.0,0.0,0.0,0.0,0.0,0.0,0.0,0.0,0.0,0.0,0.0,0.0,0.0,0.0,0.0,0.0,0.0,0.0,0.0,0.0,0.0,0.0,0.0,0.0,0.0,0.0,0.0,0.0,0.0,0.0,0.0,0.0,0.0,0.0,0.0,0.0,0.0,0.0,0.0,0.0,0.0,0.0,0.0,0.0,0.0,0.0,0.0,0.0,0.0,0.0,0.0,0.0,0.0,0.0,0.0,0.0,0.0,0.0,0.0,0.0,0.0,0.0,0.0,0.0,0.0,0.0,0.0,0.0,0.0,0.0,0.0,0.0,0.0,0.0,0.0,0.0,0.0,0.0,0.0,-0.8958,-1.0312,-1.0429,-1.0483,-1.032,-1.0332,-0.9942,0.0,0.0,0.0,0.0,0.0,0.0,0.0,0.0,0.0,0.0,0.0,0.0,0.0,0.0,0.0,0.0,0.0,0.0,0.0,0.0,0.0,0.0,0.0,0.0,0.0,0.0,0.0,0.0,0.0,0.0,0.0,0.0,0.0,0.0,0.0,0.0,0.0,0.0,0.0,0.0,0.0,0.0,0.0,0.0,0.0,0.0,0.0,0.0,0.0,0.0,0.0,0.0,0.0,0.0,0.0,0.0,0.0,0.0,0.0,0.0,0.0,0.0,0.0,0.0,0.0,0.0,0.0,0.0,0.0,0.0,0.0,0.0,0.0,0.0,0.0,0.0,0.0,0.0,0.0,0.0,0.0,0.0,0.0,0.0,0.0,0.0,0.0,0.0,0.0,0.0,0.0,0.0,0.0,0.0,0.0,0.0,0.0,0.0,0.0,0.0,0.0,0.0,0.0,0.0,0.0,0.0,0.0,0.0,-1.0079,-1.1201,-1.1272,-1.1272,-1.1216,-1.0895,-1.0298,0.0,0.0,0.0,0.0,0.0,0.0,0.0,0.0,0.0,0.0,0.0,0.0,0.0,0.0,0.0,0.0,0.0,0.0,0.0,0.0,0.0,0.0,0.0,0.0,0.0,0.0,0.0,0.0,0.0,0.0,0.0,0.0,0.0,0.0,0.0,0.0,0.0,0.0,0.0,0.0,0.0,0.0,0.0,0.0,0.0,0.0,0.0,0.0,-0.9876,0.0,0.0,0.0,0.0,0.0,0.0,0.0,0.0,0.0,0.0,0.0,0.0,0.0,0.0,0.0,0.0,0.0,0.0,0.0,0.0,0.0,0.0,0.0,0.0,0.0,0.0,0.0,0.0,0.0,0.0,0.0,0.0,0.0,0.0,0.0,0.0,0.0,0.0,0.0,0.0,0.0,0.0,0.0,0.0,0.0,0.0,0.0,0.0,0.0,0.0,0.0,0.0,0.0,0.0,0.0,0.0,0.0,0.0,0.0,-1.0298,-1.1141,-1.154,-1.1547,-1.1213,-1.1368,-1.0846,0.0,0.0,0.0,0.0,0.0,0.0,0.0,0.0,0.0,0.0,0.0,0.0,0.0,0.0,0.0,0.0,0.0,0.0,0.0,0.0,0.0,0.0,0.0,0.0,0.0,0.0,0.0,0.0,0.0,0.0,0.0,0.0,0.0,0.0,0.0,0.0,0.0,0.0,0.0,0.0,0.0,0.0,0.0,0.0,0.0,0.0,0.0,0.0,0.0,0.0,0.0,0.0,0.0,0.0,0.0,0.0,0.0,0.0,0.0,0.0,0.0,0.0,0.0,0.0,0.0,0.0,0.0,0.0,0.0,0.0,0.0,0.0,0.0,0.0,0.0,0.0,0.0,0.0,0.0,0.0,0.0,0.0,0.0,0.0,0.0,0.0,0.0,0.0,0.0,0.0,0.0,0.0,0.0,0.0,0.0,0.0,0.0,0.0,0.0,0.0,0.0,0.0,0.0,0.0,0.0,0.0,0.0,-0.9777,-1.035,-1.0922,-1.1604,-1.167,-1.1043,-1.1814,-1.1358,-0.9524,0.0,0.0,0.0,0.0,0.0,0.0,0.0,0.0,0.0,0.0,0.0,0.0,0.0,0.0,0.0,0.0,0.0,0.0,0.0,0.0,0.0,0.0,0.0,0.0,0.0,0.0,0.0,0.0,0.0,0.0,0.0,0.0,0.0,0.0,0.0,0.0,0.0,0.0,-0.8532,-0.9323,0.0,0.0,0.0,0.0,0.0,0.0,0.0,0.0,-1.1254,0.0,0.0,0.0,0.0,0.0,0.0,0.0,0.0,0.0,0.0,0.0,0.0,0.0,0.0,0.0,0.0,0.0,0.0,0.0,0.0,0.0,0.0,0.0,0.0,0.0,0.0,0.0,0.0,0.0,0.0,0.0,0.0,0.0,0.0,0.0,0.0,0.0,0.0,0.0,0.0,0.0,0.0,0.0,0.0,0.0,0.0,0.0,0.0,0.0,0.0,0.0,0.0,0.0,0.0,0.0,0.0,-0.9746,-1.0394,-1.0925,-1.1382,-1.1771,-1.2018,-1.2047,-1.1927,-1.1311,-1.016,0.0,0.0,0.0,0.0,0.0,0.0,0.0,0.0,0.0,0.0,0.0,0.0,0.0,0.0,0.0,0.0,0.0,0.0,0.0,0.0,0.0,0.0,0.0,0.0,0.0,0.0,0.0,0.0,0.0,0.0,0.0,0.0,0.0,0.0,0.0,0.0,0.0,0.0,0.0,-0.9706,-1.004,0.0,0.0,0.0,0.0,0.0,0.0,0.0,0.0,-1.1899,0.0,0.0,0.0,0.0,0.0,0.0,0.0,0.0,0.0,0.0,0.0,0.0,0.0,0.0,0.0,0.0,0.0,0.0,0.0,0.0,0.0,0.0,0.0,0.0,0.0,0.0,0.0,0.0,0.0,0.0,0.0,0.0,0.0,0.0,0.0,0.0,0.0,0.0,0.0,0.0,0.0,0.0,0.0,0.0,0.0,0.0,0.0,0.0,0.0,0.0,0.0,0.0,0.0,0.0,0.0,-0.9308,-1.0371,-1.1154,-1.1487,-1.1654,-1.1947,-1.2253,-1.1982,-1.1326,0.0,0.0,0.0,0.0,0.0,0.0,0.0,0.0,0.0,0.0,0.0,0.0,0.0,0.0,0.0,0.0,0.0,0.0,0.0,0.0,0.0,0.0,0.0,0.0,0.0,0.0,0.0,0.0,0.0,0.0,0.0,0.0,0.0,0.0,0.0,0.0,0.0,0.0,0.0,0.0,-1.0068,-1.0536,-1.119,0.0,0.0,0.0,0.0,0.0,0.0,-1.2171,-1.2447,0.0,0.0,0.0,0.0,0.0,0.0,0.0,0.0,0.0,0.0,0.0,0.0,0.0,0.0,0.0,0.0,0.0,0.0,0.0,0.0,0.0,0.0,0.0,0.0,0.0,0.0,0.0,0.0,0.0,0.0,0.0,0.0,0.0,0.0,0.0,0.0,0.0,0.0,0.0,0.0,0.0,0.0,0.0,0.0,0.0,0.0,0.0,0.0,0.0,0.0,0.0,0.0,0.0,0.0,0.0,-0.8856,-1.0158,-1.1067,-1.1376,-1.1392,-1.1662,-1.2142,-1.2015,-1.1375,0.0,0.0,0.0,0.0,0.0,0.0,0.0,0.0,0.0,0.0,0.0,0.0,0.0,0.0,0.0,0.0,0.0,0.0,0.0,0.0,0.0,0.0,0.0,0.0,0.0,0.0,0.0,0.0,0.0,0.0,0.0,0.0,0.0,0.0,0.0,0.0,0.0,0.0,0.0,0.0,0.0,-1.1367,-1.2071,-1.2186,0.0,0.0,0.0,0.0,-1.285,-1.3103,0.0,0.0,0.0,0.0,0.0,0.0,0.0,0.0,0.0,0.0,0.0,0.0,0.0,0.0,0.0,0.0,0.0,0.0,0.0,0.0,0.0,0.0,0.0,0.0,0.0,0.0,0.0,0.0,0.0,0.0,0.0,0.0,0.0,0.0,0.0,0.0,0.0,0.0,0.0,0.0,0.0,0.0,0.0,0.0,0.0,0.0,0.0,0.0,0.0,0.0,0.0,0.0,0.0,0.0,0.0,0.0,-0.9217,-1.0046,-1.0686,-1.105,-1.105,-1.1312,-1.1848,-1.1942,-1.1423,0.0,0.0,0.0,0.0,0.0,0.0,0.0,0.0,0.0,0.0,0.0,0.0,0.0,0.0,0.0,0.0,0.0,0.0,0.0,0.0,0.0,0.0,0.0,0.0,0.0,0.0,0.0,0.0,0.0,0.0,0.0,0.0,0.0,0.0,0.0,0.0,0.0,0.0,0.0,0.0,0.0,-1.2772,-1.3367,-1.2754,-1.2659,0.0,0.0,-1.3447,-1.5129,-1.4743,0.0,0.0,0.0,0.0,0.0,0.0,0.0,0.0,0.0,0.0,0.0,0.0,0.0,0.0,0.0,0.0,0.0,0.0,0.0,0.0,0.0,0.0,0.0,0.0,0.0,0.0,0.0,0.0,0.0,0.0,0.0,0.0,0.0,0.0,0.0,0.0,0.0,0.0,0.0,0.0,0.0,0.0,0.0,0.0,0.0,0.0,0.0,0.0,0.0,0.0,0.0,0.0,0.0,0.0,0.0,-0.8242,-0.8799,-0.9917,-1.0629,-1.0979,-1.0804,-1.106,-1.178,-1.141,-1.0876,0.0,0.0,0.0,0.0,0.0,0.0,0.0,0.0,0.0,0.0,0.0,0.0,0.0,0.0,0.0,0.0,0.0,0.0,0.0,0.0,0.0,0.0,0.0,0.0,0.0,0.0,0.0,0.0,0.0,0.0,0.0,0.0,0.0,0.0,0.0,0.0,0.0,0.0,0.0,0.0,0.0,0.0,-1.3906,-1.4009,0.0,0.0,0.0,-1.4123,-1.5249,0.0,0.0,0.0,0.0,0.0,0.0,0.0,0.0,0.0,0.0,0.0,0.0,0.0,0.0,0.0,0.0,0.0,0.0,0.0,0.0,0.0,0.0,0.0,0.0,0.0,0.0,0.0,0.0,0.0,0.0,0.0,0.0,0.0,0.0,0.0,0.0,0.0,0.0,0.0,0.0,0.0,0.0,0.0,0.0,0.0,0.0,0.0,0.0,0.0,0.0,0.0,0.0,0.0,0.0,0.0,0.0,0.0,-0.8543,-0.9824,-1.0597,-1.0844,-1.0657,-1.0797,-1.1417,-1.1139,0.0,0.0,0.0,0.0,0.0,0.0,0.0,0.0,0.0,0.0,0.0,0.0,0.0,0.0,0.0,0.0,0.0,0.0,0.0,0.0,0.0,0.0,0.0,0.0,0.0,0.0,0.0,-0.6989,0.0,0.0,0.0,0.0,0.0,0.0,0.0,0.0,0.0,0.0,0.0,0.0,0.0,0.0,-1.2776,-1.4646,-1.5277,-1.5557,0.0,0.0,-1.494,-1.5549,-1.5936,-1.5874,0.0,0.0,0.0,0.0,0.0,0.0,0.0,0.0,0.0,0.0,0.0,0.0,0.0,0.0,0.0,0.0,0.0,0.0,0.0,0.0,0.0,0.0,0.0,0.0,0.0,0.0,0.0,0.0,0.0,0.0,0.0,0.0,0.0,0.0,0.0,0.0,0.0,0.0,0.0,0.0,0.0,0.0,0.0,0.0,0.0,0.0,0.0,0.0,0.0,0.0,0.0,0.0,0.0,0.0,0.0,-0.8806,-0.9883,-1.053,-1.0561,-1.0538,-1.053,-1.0605,-1.1451,-1.13,0.0,0.0,0.0,0.0,0.0,0.0,0.0,0.0,0.0,0.0,0.0,0.0,0.0,0.0,0.0,0.0,0.0,0.0,0.0,0.0,0.0,0.0,0.0,0.0,0.0,0.0,0.0,0.0,0.0,0.0,0.0,0.0,0.0,0.0,0.0,0.0,0.0,0.0,0.0,0.0,0.0,-1.4496,-1.6108,-1.6308,-1.6414,0.0,0.0,-1.6021,-1.6931,-1.7076,-1.6602,-1.5131,0.0,0.0,0.0,0.0,0.0,0.0,0.0,0.0,0.0,0.0,0.0,0.0,0.0,0.0,0.0,0.0,0.0,0.0,0.0,0.0,0.0,0.0,0.0,0.0,0.0,0.0,0.0,0.0,0.0,0.0,0.0,0.0,0.0,0.0,0.0,0.0,0.0,0.0,0.0,0.0,0.0,0.0,0.0,0.0,0.0,0.0,0.0,0.0,0.0,0.0,0.0,0.0,0.0,-0.8475,-0.8806,-0.9933,-1.0522,-1.0522,-1.0522,-1.0522,-1.0522,-1.1175,-1.1045,0.0,0.0,0.0,0.0,0.0,0.0,0.0,0.0,0.0,0.0,0.0,0.0,0.0,0.0,0.0,0.0,0.0,0.0,0.0,0.0,0.0,0.0,0.0,0.0,0.0,0.0,0.0,0.0,-0.8548,-0.8637,-0.9161,0.0,0.0,0.0,0.0,0.0,0.0,0.0,0.0,0.0,0.0,-1.4806,-1.6293,-1.6731,0.0,0.0,-1.6629,-1.6439,-1.7118,-1.7212,-1.6883,-1.5996,-1.5932,0.0,0.0,0.0,0.0,0.0,0.0,0.0,0.0,0.0,0.0,0.0,0.0,0.0,0.0,0.0,0.0,0.0,0.0,0.0,0.0,0.0,0.0,0.0,0.0,0.0,0.0,0.0,0.0,0.0,0.0,0.0,0.0,0.0,0.0,0.0,0.0,0.0,0.0,0.0,0.0,0.0,0.0,0.0,0.0,0.0,0.0,0.0,0.0,0.0,0.0,0.0,0.0,-0.853,-0.8806,-0.9933,-1.0522,-1.0522,-1.0522,-1.0522,-1.0522,-1.1023,-1.0968,0.0,0.0,0.0,0.0,0.0,0.0,0.0,0.0,0.0,0.0,0.0,0.0,0.0,0.0,0.0,0.0,0.0,0.0,0.0,0.0,0.0,0.0,0.0,0.0,0.0,0.0,0.0,0.0,-0.9266,-0.9531,-1.0146,0.0,0.0,0.0,0.0,0.0,0.0,0.0,0.0,0.0,0.0,-1.5281,-1.6494,-1.6731,-1.6854,-1.6947,-1.6595,-1.6466,-1.6905,-1.7018,-1.6948,-1.6692,0.0,0.0,0.0,0.0,0.0,0.0,0.0,0.0,0.0,0.0,0.0,0.0,0.0,0.0,0.0,0.0,0.0,0.0,0.0,0.0,0.0,0.0,0.0,0.0,0.0,0.0,0.0,0.0,0.0,0.0,-0.2912,0.0,0.0,0.0,0.0,0.0,0.0,0.0,0.0,0.0,0.0,0.0,0.0,0.0,0.0,0.0,0.0,0.0,0.0,0.0,0.0,0.0,0.0,-0.8537,-0.8806,-0.989,-1.0462,-1.047,-1.0522,-1.0522,-1.0522,-1.1023,-1.1079,-1.0573,0.0,0.0,0.0,0.0,0.0,0.0,0.0,0.0,0.0,0.0,0.0,0.0,0.0,0.0,0.0,0.0,0.0,0.0,0.0,0.0,0.0,0.0,0.0,0.0,0.0,0.0,-0.9742,-0.9863,-1.0289,0.0,0.0,0.0,0.0,0.0,0.0,0.0,0.0,0.0,0.0,-1.5765,-1.6123,-1.7021,-1.6435,-1.6088,-1.6484,-1.6151,-1.602,-1.6479,-1.6637,-1.6811,0.0,0.0,0.0,0.0,0.0,0.0,0.0,0.0,0.0,0.0,0.0,0.0,0.0,0.0,0.0,0.0,0.0,0.0,0.0,0.0,0.0,0.0,0.0,0.0,0.0,0.0,0.0,-0.4312,-0.453,0.0,0.0,0.0,0.0,0.0,0.0,0.0,0.0,0.0,0.0,0.0,-0.5987,-0.6253,0.0,0.0,0.0,0.0,0.0,0.0,0.0,0.0,0.0,0.0,0.0,0.0,-0.8187,-0.8138,-0.9096,-0.9784,-1.0035,-1.0028,-1.0198,-1.047,-1.1023,-1.0905,-1.0036,0.0,0.0,0.0,0.0,0.0,0.0,0.0,0.0,0.0,0.0,0.0,0.0,0.0,0.0,0.0,0.0,0.0,0.0,0.0,0.0,0.0,0.0,0.0,0.0,0.0,-1.1354,0.0,0.0,0.0,0.0,0.0,0.0,0.0,0.0,0.0,0.0,0.0,-1.5657,-1.6296,-1.659,-1.6873,-1.7295,-1.7131,-1.698,0.0,0.0,0.0,0.0,0.0,0.0,0.0,0.0,0.0,0.0,0.0,0.0,0.0,0.0,-2.0414,-1.8523,-1.7791,-1.7588,-1.7908,0.0,0.0,0.0,0.0,0.0,0.0,0.0,0.0,0.0,0.0,0.0,0.0,0.0,0.0,-0.5695,0.0,-0.4568,0.0,0.0,0.0,0.0,0.0,0.0,0.0,0.0,-0.6684,-0.7056,-0.6971,-0.7065,-0.7057,0.0,-0.6292,-0.59,0.0,0.0,0.0,0.0,0.0,0.0,0.0,0.0,-0.7916,-0.8059,-0.8712,-0.9249,-0.9562,-0.9496,-0.9703,-1.0249,-1.0761,-1.0621,-0.9776,-0.9674,-0.9331,0.0,0.0,0.0,0.0,0.0,0.0,0.0,0.0,0.0,0.0,0.0,0.0,0.0,0.0,0.0,0.0,0.0,0.0,0.0,0.0,0.0,0.0,0.0,-1.1975,0.0,0.0,0.0,0.0,0.0,0.0,0.0,0.0,0.0,-1.4827,-1.5629,-1.6512,-1.7066,-1.7227,-1.7365,-1.7584,0.0,0.0,0.0,0.0,0.0,0.0,0.0,-1.7743,-1.8291,-1.8537,-1.8967,-1.9857,-2.0855,-2.1763,-2.2561,0.0,0.0,-1.9984,-1.9083,-1.8767,-1.934,-1.9715,-2.0098,-2.0776,-2.0933,-2.099,0.0,0.0,0.0,0.0,0.0,0.0,0.0,0.0,-0.725,-0.7027,0.0,-0.61,0.0,0.0,0.0,0.0,0.0,-0.6053,0.0,0.0,-0.8751,-0.9227,-0.8622,-0.7857,-0.7796,-0.8196,-0.71,-0.6763,-0.6998,-0.6039,0.0,0.0,0.0,0.0,0.0,0.0,-0.7729,-0.8533,-0.8692,-0.8942,-0.9173,-0.8935,-0.9131,-0.9814,-1.0249,-1.0295,-0.9938,-0.9898,-0.963,-0.9069,-0.891,0.0,0.0,0.0,0.0,0.0,0.0,0.0,0.0,0.0,0.0,0.0,0.0,0.0,0.0,0.0,0.0,0.0,0.0,0.0,0.0,-1.1743,0.0,0.0,0.0,0.0,0.0,0.0,0.0,0.0,0.0,0.0,-1.5595,-1.6411,-1.7368,-1.7868,0.0,0.0,0.0,0.0,-1.7366,-1.6905,-1.6471,-1.633,-1.6782,-1.7446,-1.8102,-1.8788,0.0,0.0,-2.1059,-2.1818,-2.2446,-2.2739,-2.2617,-2.2508,-2.2798,-2.2038,-2.1635,-2.2061,-2.1816,-2.1878,-2.2453,-2.2537,-2.2669,-0.562,0.0,0.0,0.0,0.0,-0.7727,-0.8229,-0.8931,-0.8312,-0.8187,-0.8383,-0.8257,0.0,0.0,0.0,0.0,0.0,0.0,-0.7529,-0.8587,-0.8817,-0.88,-0.8532,-0.8104,-0.7759,-0.7451,-0.7121,-0.6978,-0.7105,-0.7443,-0.6899,-0.5504,0.0,0.0,0.0,0.0,-0.7923,-0.7833,-0.8401,-0.8851,-0.9044,-0.8976,-0.9193,-0.9769,-1.0257,-1.0295,-0.9889,-0.9873,-0.9723,-0.9298,-0.929,0.0,0.0,0.0,0.0,0.0,0.0,0.0,0.0,0.0,0.0,0.0,0.0,0.0,0.0,0.0,0.0,0.0,0.0,0.0,-1.242,-1.277,-1.3203,0.0,0.0,0.0,0.0,0.0,0.0,0.0,0.0,0.0,-1.8099,-1.8084,-1.8001,0.0,0.0,-1.8113,-1.7282,-1.7499,-1.7704,-1.7474,-1.7406,0.0,-1.757,-1.7676,-1.8045,-1.8912,-2.0065,-2.1318,-2.247,-2.3087,-2.3636,-2.413,-2.4265,-2.4264,-2.4249,-2.3129,-2.2392,-2.2844,-2.2705,-2.2641,-2.3305,-2.3259,-2.3168,-0.9202,-0.796,-0.6627,-0.7108,-0.8728,-0.8236,-0.8759,-0.9793,-0.9365,-0.9325,-0.9649,-0.9558,-0.8725,-0.7355,-0.6771,0.0,0.0,0.0,-0.7291,-0.8435,-0.8307,-0.822,-0.8214,-0.7741,-0.745,-0.7251,-0.6683,-0.6652,-0.7085,-0.7471,-0.7109,-0.6071,0.0,0.0,-0.6403,-0.7551,-0.8092,-0.7983,-0.8422,-0.8771,-0.889,-0.9112,-0.9405,-0.9705,-1.0216,-1.0359,-1.0153,-1.0145,-1.0067,-0.9902,-0.9737,-0.9681,0.0,0.0,0.0,0.0,0.0,0.0,0.0,0.0,0.0,0.0,0.0,-1.0222,-0.9164,0.0,0.0,0.0,-1.1559,-1.2511,-1.3471,-1.3791,0.0,0.0,0.0,0.0,0.0,0.0,0.0,-1.9105,-2.0146,-2.0725,-2.0295,-2.0084,-1.953,-1.8492,-1.8344,-1.814,-1.7475,0.0,-1.8234,-1.7855,-1.7842,-1.7922,-1.7922,-1.8167,-1.8738,-1.9929,-2.0971,-2.2024,-2.3071,-2.374,-2.4233,-2.4752,-2.4825,-2.4903,-2.5374,-2.4208,-2.3291,-2.3714,-2.3624,-2.3624,-2.4178,-2.4138,-2.4151,-1.1578,-1.101,-0.7916,-0.7483,-0.8807,-0.8812,-0.9237,-0.9994,-1.029,-1.0381,-1.0345,-1.0331,-1.0146,-0.9684,-0.7961,0.0,-0.7038,-0.661,-0.6924,-0.7628,-0.7633,-0.772,-0.7868,-0.7068,-0.6915,-0.7305,-0.6064,-0.5992,-0.6915,-0.6647,-0.6694,-0.7098,-0.7639,-0.7914,-0.7908,-0.7973,-0.8227,-0.8705,-0.8735,-0.8735,-0.877,-0.9329,-0.9611,-0.9604,-1.0166,-1.0522,-1.0522,-1.0522,-1.0521,-1.0578,-1.0181,-1.0031,-1.0198,0.0,0.0,0.0,0.0,0.0,0.0,0.0,0.0,0.0,0.0,0.0,0.0,0.0,0.0,0.0,-1.2736,0.0,-1.4527,-1.4752,0.0,0.0,0.0,-1.6201,-1.7461,-1.8741,-2.0012,-2.1167,0.0,0.0,-2.2221,-2.2237,-2.1704,-2.0378,-1.8769,-1.7894,-1.8313,-1.8838,-1.893,-1.8289,-1.8085,-1.8018,-1.8086,-1.8809,-1.9872,-2.1237,-2.2009,-2.2532,-2.3225,-2.3736,-2.4315,-2.4823,-2.4639,-2.4821,-2.59,-2.5279,-2.4661,-2.4726,-2.4588,-2.4594,-2.4959,-2.5222,-2.5339,-1.1828,-1.2487,-1.1492,-1.0854,-1.0484,-1.0484,-1.0642,-1.084,-1.104,-1.1033,-1.0855,-1.12,-1.0827,-0.9979,-0.957,-0.9014,-0.8445,-0.8539,-0.8641,-0.8837,-0.8694,-0.8268,-0.7651,-0.724,-0.6717,-0.6242,-0.6001,-0.598,-0.6113,-0.6756,-0.7015,-0.6965,-0.7596,-0.7907,-0.7936,-0.8506,-0.8853,-0.8974,-0.9184,-0.919,-0.9029,-0.9378,-0.9611,-0.9611,-1.0174,-1.0522,-1.0522,-1.0522,-1.0482,-1.0545,-1.0466,-1.063,-1.1085,-1.0845,0.0,0.0,0.0,0.0,0.0,0.0,0.0,0.0,0.0,-1.2594,-1.1068,0.0,-1.322,0.0,-1.373,-1.4433,-1.4802,-1.5167,0.0,0.0,-1.6523,-1.7137,-1.893,-1.9171,-1.9877,-2.1825,-2.2599,-2.3371,-2.4338,-2.4025,-2.3541,-2.2934,-2.0246,-1.8413,-1.8645,-1.9466,-1.9987,-1.9822,-1.9497,-1.9103,-1.8753,-1.9345,-2.037,-2.1708,-2.2154,-2.2701,-2.3871,-2.3561,-2.3579,-2.4641,-2.4936,-2.5254,-2.5955,-2.6117,-2.6184,-2.6115,-2.5504,-2.508,-2.5749,-2.5887,-2.6043,-1.2032,-1.2787,-1.2795,-1.2387,-1.1781,-1.1657,-1.1608,-1.1595,-1.154,-1.147,-1.1345,-1.171,-1.155,-1.1046,-1.0228,-0.9638,-0.9199,-0.8562,-0.8232,-0.8237,-0.8012,-0.7647,-0.7179,-0.6878,-0.6532,-0.6006,-0.6081,-0.6081,-0.6077,-0.6529,-0.6852,-0.6985,-0.7267,-0.7637,-0.7921,-0.8564,-0.8914,-0.8862,-0.9273,-0.9406,-0.9307,-0.9434,-0.9538,-0.9532,-0.9969,-1.019,-1.0198,-1.0411,-1.0522,-1.0514,-1.0531,-1.0833,-1.1368,-1.1249,-1.1071,0.0,0.0,0.0,0.0,0.0,0.0,0.0,0.0,0.0,0.0,0.0,-1.4392,-1.3964,-1.4801,-1.5542,-1.589,-1.6386,-1.7033,-1.7861,-1.8073,-1.8797,-2.037,-2.0621,-2.1286,-2.297,-2.3792,-2.4373,-2.4834,-2.4832,-2.4513,-2.3702,-2.1846,-2.0385,-2.0087,-2.0651,-2.1062,-2.0595,-2.0224,-2.0048,-1.9828,-2.0021,-2.0736,-2.2261,-2.2559,-2.2848,-2.4045,-2.3887,-2.3803,-2.4697,-2.5104,-2.5466,-2.6021,-2.6436,-2.6708,-2.6707,-2.6324,-2.6103,-2.6444,-2.6557,-2.6756,-1.2228,-1.276,-1.2994,-1.3,-1.2734,-1.2465,-1.2299,-1.2222,-1.1953,-1.1819,-1.1781,-1.1929,-1.2003,-1.1848,-1.0346,-0.9523,-0.9221,-0.7702,-0.6938,-0.6942,-0.6714,-0.6641,-0.6563,-0.6412,-0.6261,-0.6261,-0.6261,-0.6261,-0.6254,-0.6125,-0.6353,-0.7009,-0.6872,-0.7144,-0.7677,-0.8344,-0.8652,-0.8689,-0.9151,-0.942,-0.9542,-0.9417,-0.9421,-0.9537,-0.9778,-0.9962,-1.0028,-1.0403,-1.0624,-1.0624,-1.0624,-1.0923,-1.1524,-1.1546,-1.1448,0.0,-1.1531,0.0,0.0,0.0,0.0,0.0,0.0,0.0,0.0,-1.5535,-1.5608,-1.5051,-1.6059,-1.6898,-1.7369,-1.8035,-1.8649,-1.9185,-1.9851,-2.0606,-2.1629,-2.2318,-2.316,-2.424,-2.4898,-2.5121,-2.4904,-2.5233,-2.4951,-2.3858,-2.3392,-2.2865,-2.2147,-2.2196,-2.2047,-2.1023,-2.0806,-2.0906,-2.1121,-2.0927,-2.1396,-2.3172,-2.315,-2.3122,-2.4265,-2.4256,-2.4318,-2.4854,-2.5281,-2.5681,-2.6155,-2.6614,-2.6995,-2.7148,-2.7147,-2.7058,-2.6956,-2.7141,-2.723,-1.2342,-1.3838,-1.3838,-1.3838,-1.3811,-1.3437,-1.2889,-1.2235,-1.233,-1.2319,-1.2157,-1.2224,-1.1552,-1.0346,-0.997,-0.9145,-0.7863,-0.7557,-0.733,-0.7103,-0.6942,-0.6788,-0.6563,-0.6412,-0.6261,-0.6261,-0.6261,-0.6261,-0.6257,-0.6234,-0.6294,-0.6444,-0.6416,-0.6414,-0.643,0.0,0.0,0.0,-0.9011,-0.9017,-0.9664,-0.9284,-0.9477,-1.0172,-1.0536,0.0,-1.1032,-1.1124,-1.1124,-1.1175,-1.1377,0.0,0.0,0.0,0.0,0.0,0.0,0.0,0.0,0.0,0.0,0.0,-1.4101,-1.4452,-1.5424,-1.635,-1.6687,-1.6275,-1.7552,-1.8479,-1.8584,-1.9551,-2.045,-2.1101,-2.1323,-2.1716,-2.2483,-2.2803,-2.339,-2.4595,-2.4948,-2.537,-2.6058,-2.6045,-2.5671,-2.5275,-2.4928,-2.4573,-2.4286,-2.3553,-2.3121,-2.3243,-2.2522,-2.1979,-2.2051,-2.2332,-2.2847,-2.4109,-2.3851,-2.3846,-2.4774,-2.4225,-2.401,-2.5025,-2.5534,-2.6093,-2.675,-2.7535,-2.8055,-2.825,-2.8046,-2.7725,-2.7225,-2.7369,-2.7619,-1.2095,0.0,-1.3913,-1.4088,0.0,-1.3921,-1.3451,-1.2876,-1.2896,-1.2822,-1.2752,-1.2752,-1.2043,-1.0801,-1.0406,-0.9546,-0.8291,-0.7729,-0.7458,-0.7462,-0.7057,-0.6865,-0.6872,-0.6718,-0.6641,-0.6641,-0.6563,-0.6563,-0.6563,-0.6563,-0.6563,-0.6412,-0.6563,-0.6521,-0.6366,-0.7917,-0.9189,-1.0139,-0.9538,-0.9466,-0.9856,-0.9525,-0.9481,-0.9826,0.0,0.0,0.0,0.0,0.0,0.0,0.0,0.0,0.0,0.0,0.0,-1.3725,-1.3461,-1.3749,-1.4765,-1.4181,-1.4187,-1.5256,-1.5336,-1.5448,-1.5703,-1.6615,-1.7244,-1.737,-1.8312,-1.9252,-2.009,-2.0727,-2.1354,-2.2049,-2.2445,-2.287,-2.3326,-2.3742,-2.4216,-2.4751,-2.5242,-2.5598,-2.5823,-2.592,-2.5784,-2.5508,-2.5174,-2.5005,-2.4964,-2.4503,-2.4177,-2.4068,-2.3337,-2.2902,-2.3105,-2.307,-2.3671,-2.4753,-2.4634,-2.4686,-2.5632,-2.5287,-2.5114,-2.5775,-2.6213,-2.6677,-2.7115,-2.7921,-2.8536,-2.8582,-2.8403,-2.815,-2.7786,-2.7601,-2.7448,-1.1843,-1.279,-1.3743,-1.4088,-1.4088,-1.4088,-1.3864,-1.3441,0.0,0.0,0.0,-1.2969,-1.232,-1.1347,-1.0611,-0.9882,-0.8896,-0.7938,-0.7617,-0.7672,-0.7207,-0.7049,-0.7103,-0.6945,-0.6865,-0.6865,-0.6865,-0.6865,-0.6865,-0.6865,-0.6791,-0.6637,-0.6788,-0.7015,-0.7157,-0.8338,-0.9575,-1.0619,-1.0223,-0.9963,-1.0047,-0.9768,-0.9576,-0.9447,-1.0066,-1.0322,-1.0263,-1.1044,-1.1481,-1.1531,-1.1624,-1.1922,-1.2628,-1.2842,-1.3232,-1.3936,-1.4212,-1.4752,-1.5692,-1.5323,-1.5438,-1.6316,-1.6441,-1.6323,-1.5937,-1.663,-1.7447,-1.8244,-1.8868,-1.9864,-2.142,-2.1811,-2.2205,-2.2814,-2.3482,-2.3899,-2.4079,-2.4581,-2.4964,-2.5061,-2.5412,-2.5577,-2.516,-2.5453,-2.5564,-2.5118,-2.5005,-2.5005,-2.5005,-2.4951,-2.4761,-2.4367,-2.392,-2.3743,-2.4055,-2.4067,-2.4274,-2.5574,-2.5456,-2.5464,-2.626,-2.661,-2.6639,-2.6652,-2.7067,-2.7427,-2.7641,-2.8372,-2.8882,-2.9017,-2.8864,-2.8749,-2.873,-2.8042,-2.7373,-1.1843,-1.279,-1.3743,-1.4088,-1.4088,-1.4088,-1.3633,-1.2868,-1.3118,-1.2724,-1.2,-1.1994,-1.11,-0.9557,-0.9481,-0.891,-0.8176,-0.7988,-0.7728,0.0,-0.7398,-0.7156,-0.6945,-0.6942,-0.6865,-0.6865,-0.6865,-0.6865,-0.6865,-0.6942,-0.6865,-0.6865,-0.6865,-0.7625,-0.9049,-0.9153,-1.0018,-1.1596,-1.0239,-0.9741,-1.0244,-0.9691,-0.9712,-1.0467,-1.0694,-1.1161,-1.1952,-1.2045,-1.2288,-1.2495,-1.2735,-1.2871,-1.2958,-1.365,-1.4039,-1.4035,-1.4953,-1.5622,-1.5771,-1.5698,-1.576,-1.5917,-1.6282,-1.6479,-1.6417,-1.6508,-1.723,-1.8668,-1.975,-2.0775,-2.1725,-2.2929,-2.3642,-2.3809,-2.4209,-2.4543,-2.463,-2.4824,-2.5005,-2.5005,-2.5048,-2.5147,-2.5061,-2.5118,-2.5174,-2.5005,-2.5005,-2.5005,-2.5005,-2.5005,-2.4978,-2.491,-2.4829,-2.4801,-2.483,-2.5273,-2.5624,-2.6414,-2.635,-2.6456,-2.7149,-2.7334,-2.7426,-2.7457,-2.7983,-2.845,-2.8635,-2.9426,-2.9865,-3.0045,-3.0095,-3.016,-3.0144,-2.9161,-2.8058,-1.1408,-1.2699,-1.3137,-1.3652,-1.4082,-1.3568,-1.279,-1.1992,-1.211,-1.1922,-1.1589,-1.1505,-1.0831,-0.9658,-0.9573,-0.907,-0.8312,-0.8127,-0.7955,-0.7863,-0.7596,-0.7387,-0.7391,-0.7297,-0.7249,-0.7253,-0.7352,-0.7348,-0.7265,-0.7344,-0.727,-0.7111,-0.7026,-0.7783,-0.9069,-0.942,-1.0115,-1.1215,-1.0591,-1.0384,-1.0659,-1.0251,-1.0158,-1.0416,-1.0696,-1.1012,-1.1318,-1.1975,-1.235,-1.2502,-1.2949,-1.328,-1.3494,-1.4092,-1.4625,-1.4942,-1.5502,-1.6041,-1.6561,-1.6631,-1.6492,-1.6241,-1.6343,-1.6616,-1.6895,-1.7123,-1.778,-1.8897,-2.0251,-2.1423,-2.2248,-2.3418,-2.4015,-2.3794,-2.4266,-2.4549,-2.4607,-2.4821,-2.5005,-2.5005,-2.5005,-2.5005,-2.5005,-2.5005,-2.5005,-2.5005,-2.5005,-2.5005,-2.5005,-2.5005,-2.5005,-2.5005,-2.5005,-2.5005,-2.5005,-2.5508,-2.6096,-2.664,-2.6908,-2.7293,-2.7871,-2.8108,-2.8202,-2.828,-2.8607,-2.8858,-2.8982,-2.9528,-3.0038,-3.0452,-3.0393,-3.0387,-3.0453,-2.9748,-2.8678,-1.111,-1.2363,-1.2619,-1.296,-1.3392,-1.2705,-1.1843,-1.0977,-1.0977,-1.0895,-1.0722,-1.0895,-1.0463,-0.9685,-0.9602,-0.9257,-0.8636,-0.8249,-0.8166,-0.8264,-0.7831,-0.7692,-0.7809,-0.7667,-0.7602,-0.7618,-0.7752,-0.7724,-0.7581,-0.7691,-0.7588,-0.7277,-0.7261,-0.7787,-0.8998,-0.9599,-1.0256,-1.1009,-1.1181,-1.1156,-1.1082,-1.0808,-1.0541,-1.0334,-1.0662,-1.0809,-1.0755,-1.1759,-1.236,-1.2453,-1.3074,-1.3606,-1.3882,-1.4443,-1.5077,-1.5712,-1.6007,-1.6488,-1.7189,-1.7313,-1.7114,-1.6732,-1.6841,-1.7124,-1.7481,-1.8155,-1.8713,-1.9377,-2.044,-2.162,-2.2842,-2.3399,-2.3649,-2.3467,-2.393,-2.4203,-2.4118,-2.4478,-2.4708,-2.4708,-2.4708,-2.465,-2.4708,-2.4708,-2.465,-2.465,-2.4708,-2.4708,-2.4892,-2.4935,-2.5005,-2.5174,-2.5188,-2.5131,-2.5131,-2.577,-2.6297,-2.6692,-2.7297,-2.7834,-2.8352,-2.8542,-2.8685,-2.881,-2.8889,-2.8982,-2.9121,-2.9589,-3.0081,-3.0444,-3.0544,-3.0575,-3.0607,-3.0231,-2.9386,-1.1428,-1.1596,-1.2363,-1.2272,-1.158,-1.1494,-1.0895,-1.012,-1.0028,-0.9602,-0.9087,-0.9685,-0.9602,-0.874,-0.874,-0.8652,-0.8568,-0.8548,-0.845,-0.8308,-0.8256,-0.815,-0.7996,-0.7967,-0.7967,-0.7955,-0.7979,-0.7902,-0.774,-0.7832,-0.7667,-0.7504,-0.7484,-0.8241,-0.9593,-0.982,-1.0628,-1.2111,-1.1951,-1.1657,-1.1383,-1.1102,-1.0935,-1.0909,-1.0712,-1.0878,-1.1298,-1.2112,-1.2574,-1.2879,-1.3477,-1.383,-1.3968,-1.4721,-1.5379,-1.5771,-1.6655,-1.7235,-1.7279,-1.7323,-1.7312,-1.7301,-1.7924,-1.8328,-1.8442,-1.9479,-2.0191,-2.0299,-2.0427,-2.1571,-2.3586,-2.3228,-2.298,-2.31,-2.3378,-2.3509,-2.3509,-2.3649,-2.3695,-2.3767,-2.3813,-2.3754,-2.3813,-2.3872,-2.3826,-2.3943,-2.3989,-2.4234,-2.4751,-2.4865,-2.509,-2.5564,-2.5633,-2.5494,-2.5536,-2.6297,-2.6721,-2.6826,-2.771,-2.8268,-2.8381,-2.8605,-2.8904,-2.892,-2.8967,-2.9075,-2.9305,-2.9766,-3.0335,-3.0559,-3.0909,-3.1436,-3.0903,-3.0644,-3.0196,-1.1081,-1.1515,-1.1727,-1.1327,-1.0549,-1.0463,-0.9946,-0.9174,-0.9174,-0.8911,-0.8656,-0.8999,-0.8915,-0.8568,-0.8572,-0.8572,-0.8572,-0.8572,-0.8528,-0.8446,-0.8345,-0.8247,-0.8174,-0.8061,-0.8012,-0.8024,-0.8122,-0.8085,-0.7923,-0.7893,-0.7663,-0.75,-0.748,-0.8313,-0.9739,-0.989,-1.072,-1.2224,-1.2184,-1.2064,-1.1904,-1.149,-1.1169,-1.1002,-1.0875,-1.085,-1.1073,-1.1958,-1.2562,-1.2742,-1.3703,-1.4234,-1.424,-1.4897,-1.5509,-1.6115,-1.7002,-1.7557,-1.7557,-1.7656,-1.789,-1.8227,-1.8544,-1.8942,-1.9604,-2.0087,-2.0499,-2.0845,-2.1181,-2.1616,-2.186,-2.2396,-2.2786,-2.2688,-2.304,-2.3343,-2.309,-2.3424,-2.3577,-2.3577,-2.3577,-2.3577,-2.3577,-2.3577,-2.3695,-2.393,-2.4002,-2.4358,-2.5032,-2.5174,-2.5397,-2.5784,-2.5948,-2.5893,-2.5839,-2.6312,-2.6721,-2.693,-2.761,-2.8284,-2.8396,-2.8653,-2.8904,-2.8967,-2.9075,-2.9091,-2.9091,-2.9605,-3.014,-3.0518,-3.1179,-3.1716,-3.1441,-3.1425,-3.1252,-1.0739,-1.1199,-1.1077,-1.0425,-0.9602,-0.9515,-0.9174,-0.8656,-0.8572,-0.8572,-0.8572,-0.8572,-0.8572,-0.8572,-0.8572,-0.8572,-0.8572,-0.8572,-0.8572,-0.8556,-0.8426,-0.8365,-0.8353,-0.8231,-0.8162,-0.8187,-0.8304,-0.8243,-0.802,-0.7841,-0.7667,-0.7508,-0.748,-0.8318,-0.9739,-0.989,-1.0714,-1.215,-1.2305,-1.2305,-1.2245,-1.1884,-1.153,-1.1256,-1.1069,-1.0889,-1.0752,-1.1887,-1.2512,-1.2512,-1.3761,-1.4515,-1.4515,-1.4961,-1.5604,-1.6472,-1.7386,-1.7947,-1.8024,-1.8372,-1.8701,-1.9057,-1.9264,-1.9773,-2.0398,-2.0749,-2.1067,-2.1444,-2.1889,-2.1625,-2.08,-2.1774,-2.247,-2.225,-2.2738,-2.2982,-2.2739,-2.3017,-2.3173,-2.3233,-2.3113,-2.3308,-2.3422,-2.3546,-2.3837,-2.427,-2.4583,-2.5002,-2.5736,-2.6005,-2.6176,-2.6353,-2.6583,-2.6483,-2.6153,-2.6525,-2.6721,-2.6945,-2.7575,-2.8268,-2.8332,-2.8637,-2.8967,-2.9075,-2.9091,-2.9137,-2.9213,-2.956,-3.0225,-3.0764,-3.1372,-3.1819,-3.1789,-3.1877,-3.1913,-1.0632,-1.0527,-1.0315,-0.9682,-0.8656,-0.8656,-0.8656,-0.8572,-0.8572,-0.8572,-0.8572,-0.8572,-0.8572,-0.8572,-0.8572,-0.8572,-0.8572,-0.8572,-0.8572,-0.8568,-0.8552,-0.8552,-0.8556,-0.8548,-0.8532,-0.8495,-0.8511,-0.8361,-0.8028,-0.7849,-0.7667,-0.7496,-0.7561,-0.8313,-0.9664,-0.9965,-1.072,-1.215,-1.2305,-1.2305,-1.2305,-1.2265,-1.2091,-1.179,-1.1303,-1.1015,-1.1059,-1.1944,-1.252,-1.2512,-1.3761,-1.4515,-1.4565,-1.497,-1.5788,-1.6871,-1.7805,-1.8462,-1.8862,-1.9298,-1.9668,-1.9772,-2.0334,-2.0805,-2.0946,-2.158,-2.1966,-2.2123,-2.2123,-2.1842,-2.1339,-2.1608,-2.2061,-2.2308,-2.2259,-2.2321,-2.2283,-2.2395,-2.2259,-2.2345,-2.2492,-2.2773,-2.3074,-2.3503,-2.4067,-2.4621,-2.5316,-2.6054,-2.6722,-2.719,-2.7385,-2.7437,-2.7469,-2.7299,-2.6562,-2.663,-2.6907,-2.7026,-2.7473,-2.8253,-2.8334,-2.8463,-2.8826,-2.9075,-2.9091,-2.9183,-2.9305,-2.9793,-3.0625,-3.1218,-3.1542,-3.1856,-3.1948,-3.1894,-3.1984,-1.0745,-1.0459,-0.9795,-0.9229,-0.8723,-0.8617,-0.8572,-0.8572,-0.8572,-0.8572,-0.8572,-0.8572,-0.8572,-0.8572,-0.8572,-0.8572,-0.8572,-0.8572,-0.8572,-0.8572,-0.8572,-0.8572,-0.8572,-0.8572,-0.8572,-0.8572,-0.8568,-0.8442,-0.8199,-0.8012,-0.7837,-0.782,-0.8077,-0.8846,-0.982,-1.0426,-1.1254,-1.2157,-1.2305,-1.2305,-1.2305,-1.2305,-1.2245,-1.2138,-1.1764,-1.1376,-1.1009,-1.2161,-1.275,-1.2712,-1.3932,-1.4666,-1.4881,-1.5515,-1.6427,-1.7529,-1.8397,-1.9109,-1.9645,-2.0087,-2.0463,-2.0784,-2.1033,-2.1367,-2.1653,-2.2015,-2.2197,-2.2197,-2.2197,-2.2025,-2.1951,-2.1963,-2.2315,-2.2992,-2.2599,-2.2318,-2.2534,-2.2414,-2.2306,-2.2654,-2.2967,-2.3304,-2.3518,-2.4161,-2.4798,-2.5268,-2.57,-2.6492,-2.7502,-2.8037,-2.8211,-2.779,-2.7723,-2.7451,-2.6746,-2.6765,-2.6937,-2.6989,-2.7335,-2.776,-2.7978,-2.8367,-2.8764,-2.9075,-2.9137,-2.9213,-2.938,-2.9924,-3.0804,-3.1504,-3.18,-3.1929,-3.2001,-3.202,-3.2108,-1.0663,-1.0282,-0.978,-0.9283,-0.8898,-0.8787,-0.8705,-0.8576,-0.8572,-0.8572,-0.8572,-0.8572,-0.8572,-0.8572,-0.8572,-0.8572,-0.8572,-0.8572,-0.8572,-0.8572,-0.8572,-0.8572,-0.8572,-0.8572,-0.8572,-0.8572,-0.8572,-0.8475,-0.8296,-0.8162,-0.8143,-0.8224,-0.8627,-0.9286,-1.0212,-1.0807,-1.1484,-1.2157,-1.2305,-1.2305,-1.2305,-1.2305,-1.2305,-1.2278,-1.2111,-1.1784,-1.1357,-1.245,-1.3004,-1.3099,-1.423,-1.5097,-1.5438,-1.6001,-1.6767,-1.7708,-1.8451,-1.9282,-2.0097,-2.0582,-2.1033,-2.1608,-2.1668,-2.1837,-2.2161,-2.2197,-2.2197,-2.2197,-2.2197,-2.2197,-2.2197,-2.2197,-2.2527,-2.3103,-2.2599,-2.2342,-2.2666,-2.2558,-2.2727,-2.3159,-2.3496,-2.3773,-2.4111,-2.4772,-2.5524,-2.6218,-2.6636,-2.7506,-2.8519,-2.9058,-2.9088,-2.8465,-2.8378,-2.8042,-2.7393,-2.72,-2.6992,-2.7039,-2.7335,-2.7595,-2.7929,-2.8319,-2.8716,-2.9029,-2.9213,-2.9335,-2.9633,-3.014,-3.0804,-3.1579,-3.1893,-3.2037,-3.2073,-3.2144,-3.2232,-1.029,-1.0123,-1.0105,-0.9783,-0.9224,-0.9169,-0.8983,-0.8668,-0.8656,-0.8656,-0.8656,-0.8568,-0.8572,-0.8572,-0.8572,-0.8572,-0.8572,-0.8572,-0.8572,-0.8572,-0.8572,-0.8572,-0.8572,-0.8572,-0.8572,-0.8572,-0.8572,-0.8479,-0.8321,-0.8437,-0.8586,-0.8922,-0.9154,-0.9874,-1.1037,-1.1186,-1.1558,-1.2157,-1.2305,-1.2305,-1.2305,-1.2305,-1.2305,-1.2305,-1.2271,-1.2204,-1.1992,-1.278,-1.33,-1.3498,-1.4817,-1.5775,-1.6151,-1.6456,-1.6865,-1.7541,-1.8154,-1.905,-2.0177,-2.0779,-2.1362,-2.1842,-2.2161,-2.2137,-2.2037,-2.2135,-2.2197,-2.2197,-2.2197,-2.2209,-2.2258,-2.227,-2.2342,-2.2246,-2.244,-2.233,-2.2486,-2.2751,-2.3195,-2.373,-2.3948,-2.4025,-2.451,-2.5386,-2.6334,-2.7393,-2.8275,-2.908,-2.9722,-3.0098,-3.019,-2.9711,-2.9247,-2.8739,-2.8187,-2.7679,-2.7287,-2.7074,-2.7467,-2.778,-2.8027,-2.8367,-2.8858,-2.9167,-2.938,-2.956,-3.014,-3.0601,-3.0948,-3.1562,-3.1802,-3.2108,-3.2144,-3.2214,-3.2267,-1.0667,-1.0307,-1.0368,-1.0076,-0.964,-0.9505,-0.9344,-0.9091,-0.8911,-0.8823,-0.8736,-0.8652,-0.8572,-0.8568,-0.8572,-0.8568,-0.8572,-0.8572,-0.8572,-0.866,-0.8568,-0.8572,-0.8572,-0.8572,-0.8572,-0.8572,-0.8572,-0.8627,-0.864,-0.9029,-0.9234,-0.9323,-1.0258,-1.0829,-1.1135,-1.1632,-1.2083,-1.2231,-1.2305,-1.2305,-1.2305,-1.2305,-1.2305,-1.2305,-1.2452,-1.2691,-1.315,-1.3646,-1.4239,-1.4702,-1.5677,-1.6465,-1.6951,-1.7103,-1.7556,-1.8404,-1.8678,-1.9414,-2.0579,-2.0957,-2.1135,-2.1463,-2.1851,-2.1925,-2.1588,-2.1925,-2.2123,-2.2197,-2.2197,-2.233,-2.2742,-2.2814,-2.2947,-2.3547,-2.3156,-2.3015,-2.3556,-2.3869,-2.4165,-2.4493,-2.482,-2.5306,-2.6076,-2.6773,-2.7551,-2.8515,-2.9435,-3.0144,-3.0401,-3.0507,-3.0306,-2.9769,-2.9566,-2.9232,-2.8502,-2.7954,-2.7733,-2.7469,-2.7604,-2.7913,-2.8158,-2.8559,-2.8997,-2.938,-2.9605,-2.9984,-3.0559,-3.0965,-3.1278,-3.1637,-3.2001,-3.2144,-3.2196,-3.2267,-3.2354,-1.1002,-1.0681,-1.0692,-1.0391,-0.9912,-0.9804,-0.9527,-0.9275,-0.9087,-0.9082,-0.8999,-0.8828,-0.8744,-0.8656,-0.8652,-0.8652,-0.874,-0.8652,-0.8652,-0.8828,-0.8652,-0.8568,-0.8572,-0.8572,-0.8828,-0.8999,-0.9087,-0.9257,-0.9598,-1.0071,-1.0312,-1.0587,-1.1318,-1.178,-1.1759,-1.2166,-1.2425,-1.2325,-1.2305,-1.2305,-1.2305,-1.2305,-1.2298,-1.2452,-1.2532,-1.3171,-1.4227,-1.4582,-1.507,-1.5683,-1.6354,-1.7048,-1.7568,-1.7627,-1.7925,-1.8449,-1.871,-1.9233,-2.0484,-2.0398,-2.0602,-2.1008,-2.1273,-2.14,-2.1198,-2.1588,-2.1851,-2.2123,-2.2197,-2.2342,-2.2718,-2.2971,-2.332,-2.4008,-2.3651,-2.373,-2.4418,-2.4599,-2.4844,-2.5139,-2.5709,-2.6296,-2.6854,-2.7644,-2.8441,-2.9219,-2.9766,-3.0343,-3.0418,-3.0582,-3.0263,-2.9958,-2.974,-2.9231,-2.8554,-2.8243,-2.8107,-2.7889,-2.781,-2.8027,-2.8255,-2.8842,-2.9335,-2.9677,-2.9941,-3.0241,-3.0781,-3.1123,-3.1414,-3.1821,-3.2196,-3.2284,-3.2319,-3.2371,-3.2406,-1.1194,-1.117,-1.0981,-1.0674,-1.019,-0.999,-0.9709,-0.9362,-0.9345,-0.9257,-0.9257,-0.9087,-0.8915,-0.8915,-0.874,-0.8828,-0.8828,-0.874,-0.8915,-0.9087,-0.8999,-0.8828,-0.8656,-0.8744,-0.9087,-0.9772,-0.9859,-1.0376,-1.1058,-1.1381,-1.1714,-1.2129,-1.2304,-1.2512,-1.2659,-1.2815,-1.2647,-1.2331,-1.2305,-1.2305,-1.2305,-1.2305,-1.2452,-1.2606,-1.2673,-1.3535,-1.5029,-1.5632,-1.5826,-1.6129,-1.6997,-1.7578,-1.791,-1.8008,-1.7978,-1.8066,-1.8008,-1.8731,-1.9573,-1.9573,-1.9628,-2.0602,-2.0624,-2.0291,-2.073,-2.1123,-2.1588,-2.1987,-2.2123,-2.2258,-2.2525,-2.2874,-2.3405,-2.3851,-2.4044,-2.4316,-2.4779,-2.4901,-2.5188,-2.5807,-2.6414,-2.6921,-2.7056,-2.7855,-2.8505,-2.9282,-2.9538,-2.9983,-3.0343,-3.0568,-3.0539,-3.0293,-2.9857,-2.9427,-2.8833,-2.8979,-2.8824,-2.8483,-2.8352,-2.8496,-2.8638,-2.912,-2.9649,-3.0,-3.03,-3.0593,-3.0942,-3.1317,-3.162,-3.1984,-3.2232,-3.2371,-3.2406,-3.2406,-3.2457,-1.1194,-1.117,-1.0981,-1.0773,-1.0468,-1.0267,-1.0061,-0.9791,-0.9602,-0.9515,-0.9432,-0.9262,-0.9174,-0.9174,-0.9174,-0.9174,-0.9262,-0.9174,-0.9174,-0.9349,-0.9864,-0.9515,-0.8999,-0.9087,-0.9602,-1.0376,-1.0549,-1.0885,-1.1821,-1.251,-1.2806,-1.2795,-1.3389,-1.3427,-1.314,-1.3071,-1.2743,-1.2345,-1.2305,-1.2378,-1.2526,-1.2526,-1.2599,-1.2826,-1.2973,-1.3905,-1.5463,-1.6733,-1.7335,-1.7436,-1.7629,-1.7881,-1.7988,-1.8008,-1.8008,-1.8008,-1.8008,-1.8337,-1.9044,-1.911,-1.9166,-1.9562,-2.0226,-2.042,-1.9628,-2.1008,-2.16,-2.1663,-2.1812,-2.2561,-2.3252,-2.3644,-2.4207,-2.5091,-2.5095,-2.5168,-2.5465,-2.5632,-2.5763,-2.6107,-2.6327,-2.696,-2.7789,-2.8298,-2.8889,-2.9856,-3.0162,-3.0208,-3.0507,-3.0642,-3.0628,-3.0265,-2.9868,-2.954,-2.9343,-2.9585,-2.9562,-2.9171,-2.9058,-2.9166,-2.9257,-2.9499,-2.9957,-3.0342,-3.0551,-3.0855,-3.1235,-3.16,-3.1875,-3.2144,-3.2301,-3.2422,-3.244,-3.2406,-3.2507,-1.1146,-1.1052,-1.0844,-1.0641,-1.0433,-1.0225,-1.0064,-0.997,-0.9864,-0.9777,-0.9689,-0.9519,-0.9432,-0.9428,-0.9878,-1.0047,-1.0033,-1.0289,-1.0544,-1.0799,-1.1225,-1.0966,-1.0453,-1.0366,-1.0885,-1.166,-1.1746,-1.2334,-1.3105,-1.3704,-1.3774,-1.3751,-1.4214,-1.4065,-1.3452,-1.3383,-1.3099,-1.2681,-1.2526,-1.2599,-1.2753,-1.2753,-1.282,-1.3046,-1.3411,-1.441,-1.6026,-1.7373,-1.8008,-1.8008,-1.8008,-1.8008,-1.8008,-1.8008,-1.8008,-1.8008,-1.8008,-1.8259,-1.8777,-1.8787,-1.8721,-1.8977,-1.9628,-1.9486,-1.9278,-2.0268,-2.0666,-2.0778,-2.1416,-2.2266,-2.3137,-2.3917,-2.4854,-2.5746,-2.591,-2.591,-2.605,-2.6037,-2.6131,-2.6327,-2.6658,-2.7162,-2.8363,-2.8684,-2.947,-3.0251,-3.0507,-3.0568,-3.0642,-3.0717,-3.0674,-3.0324,-3.0104,-2.9885,-2.9653,-2.9793,-2.9878,-2.955,-2.9601,-2.9722,-2.9766,-2.987,-3.0087,-3.0468,-3.0814,-3.1095,-3.1428,-3.1728,-3.2001,-3.2179,-3.2371,-3.2473,-3.2473,-3.2525,-3.259,-1.1075,-1.0882,-1.066,-1.0456,-1.0267,-1.005,-1.0052,-1.0038,-0.9951,-0.9951,-0.9951,-0.9685,-0.9598,-0.9689,-1.04,-1.1008,-1.0982,-1.1316,-1.2163,-1.2504,-1.2766,-1.2589,-1.2419,-1.1901,-1.2419,-1.3112,-1.3451,-1.388,-1.4398,-1.4734,-1.4734,-1.4692,-1.4782,-1.4419,-1.395,-1.3824,-1.3495,-1.3068,-1.2847,-1.2826,-1.29,-1.2973,-1.3112,-1.3542,-1.441,-1.5321,-1.6585,-1.7579,-1.8008,-1.8008,-1.8008,-1.8008,-1.8008,-1.8008,-1.8008,-1.8008,-1.8008,-1.8269,-1.8654,-1.8337,-1.8269,-1.8664,-1.8462,-1.8337,-1.8977,-1.9573,-2.0074,-2.0462,-2.1071,-2.2121,-2.3019,-2.4238,-2.529,-2.6052,-2.6201,-2.6213,-2.6213,-2.6201,-2.627,-2.6465,-2.7027,-2.767,-2.8441,-2.9093,-2.9732,-3.0372,-3.0628,-3.0613,-3.0702,-3.085,-3.0719,-3.0485,-3.0362,-3.028,-3.0045,-2.9911,-2.9934,-2.9902,-3.0044,-3.013,-3.013,-3.0172,-3.03,-3.051,-3.0895,-3.1213,-3.1445,-3.1746,-3.2073,-3.2284,-3.2489,-3.2573,-3.2639,-3.2722,-3.277,-1.1075,-1.0877,-1.0664,-1.0456,-1.0253,-1.0133,-1.0038,-1.0038,-1.0038,-1.0038,-0.9951,-0.9951,-0.9859,-0.9951,-1.0304,-1.0559,-1.1235,-1.166,-1.2254,-1.3711,-1.3795,-1.4223,-1.4139,-1.3353,-1.319,-1.3795,-1.3964,-1.4398,-1.5082,-1.5173,-1.5257,-1.5257,-1.5151,-1.4972,-1.4451,-1.418,-1.3818,-1.336,-1.3033,-1.2987,-1.3119,-1.32,-1.3615,-1.4322,-1.5525,-1.6367,-1.6862,-1.7579,-1.8008,-1.8008,-1.8008,-1.8008,-1.8008,-1.8008,-1.8008,-1.8008,-1.8008,-1.8076,-1.8134,-1.8144,-1.7998,-1.8269,-1.8664,-1.9039,-1.9049,-2.0118,-2.0694,-2.1164,-2.204,-2.3159,-2.434,-2.5066,-2.5765,-2.6258,-2.6396,-2.6396,-2.6465,-2.6408,-2.6465,-2.6589,-2.6726,-2.7175,-2.8312,-2.8634,-2.9407,-3.0312,-3.0628,-3.0658,-3.0792,-3.0955,-3.094,-3.0746,-3.0952,-3.0963,-3.0903,-3.0767,-3.0794,-3.0718,-3.075,-3.083,-3.0813,-3.0642,-3.0775,-3.0857,-3.1038,-3.1329,-3.1648,-3.1965,-3.2318,-3.2456,-3.2606,-3.2705,-3.2802,-3.2866,-3.3024,-1.0929,-1.0726,-1.0523,-1.0315,-1.0121,-1.0003,-1.0038,-1.0038,-1.0038,-1.0038,-1.0038,-1.0038,-1.0038,-1.0038,-1.0559,-1.1154,-1.1804,-1.276,-1.3711,-1.4573,-1.4741,-1.4999,-1.5173,-1.4566,-1.4314,-1.4657,-1.4741,-1.4999,-1.5347,-1.5431,-1.5347,-1.5431,-1.5431,-1.5158,-1.4815,-1.4598,-1.4201,-1.3805,-1.3515,-1.3431,-1.3375,-1.3695,-1.4537,-1.5455,-1.6507,-1.701,-1.7432,-1.7784,-1.8008,-1.8008,-1.8008,-1.8008,-1.8008,-1.8008,-1.8008,-1.8008,-1.8008,-1.8008,-1.8008,-1.8008,-1.8008,-1.8008,-1.8462,-1.8822,-1.9178,-2.0182,-2.0928,-2.1447,-2.2503,-2.3916,-2.5299,-2.5857,-2.6176,-2.6339,-2.6521,-2.6521,-2.6521,-2.6521,-2.6645,-2.685,-2.704,-2.7815,-2.8454,-2.8826,-2.9407,-3.0507,-3.0718,-3.0748,-3.091,-3.1084,-3.1267,-3.1273,-3.1587,-3.1706,-3.1678,-3.172,-3.1867,-3.1847,-3.1797,-3.1824,-3.1824,-3.1515,-3.1256,-3.1341,-3.1365,-3.1696,-3.2029,-3.2301,-3.2489,-3.2672,-3.2802,-3.2866,-3.2961,-3.3086,-3.3238,-1.0754,-1.0513,-1.0343,-1.0149,-1.0057,-1.0038,-1.0038,-1.0038,-1.0038,-1.0038,-1.0038,-1.0038,-1.0038,-1.0212,-1.1176,-1.174,-1.2729,-1.4112,-1.5173,-1.5257,-1.5257,-1.5347,-1.5347,-1.5257,-1.5173,-1.5431,-1.5347,-1.5347,-1.5347,-1.5431,-1.5431,-1.5431,-1.5431,-1.5223,-1.4998,-1.4933,-1.4619,-1.419,-1.417,-1.4059,-1.3968,-1.4457,-1.5455,-1.6446,-1.701,-1.7373,-1.7794,-1.8008,-1.8008,-1.7998,-1.8008,-1.8008,-1.8076,-1.8008,-1.8008,-1.8008,-1.8008,-1.8008,-1.8008,-1.8076,-1.8076,-1.8076,-1.8269,-1.8728,-1.9443,-2.0374,-2.1197,-2.1999,-2.3053,-2.4274,-2.5582,-2.5925,-2.6319,-2.6496,-2.6521,-2.6521,-2.6521,-2.6602,-2.6985,-2.7284,-2.7417,-2.7934,-2.8839,-2.9421,-3.0068,-3.0568,-3.0703,-3.0881,-3.1113,-3.1438,-3.1855,-3.2098,-3.2491,-3.2676,-3.2657,-3.2278,-3.2453,-3.2591,-3.2591,-3.2536,-3.258,-3.2437,-3.2114,-3.1681,-3.1725,-3.2076,-3.2265,-3.2457,-3.2672,-3.2866,-3.2961,-3.3024,-3.3147,-3.3316,-3.3491,-1.0674,-1.0319,-1.0291,-1.0149,-1.0052,-1.0038,-1.0038,-1.0038,-1.0038,-1.0038,-1.0038,-1.0038,-1.0038,-1.0309,-1.0987,-1.2174,-1.3561,-1.4846,-1.5431,-1.5431,-1.5431,-1.5431,-1.5431,-1.5431,-1.5431,-1.5431,-1.5431,-1.5431,-1.5431,-1.5431,-1.5431,-1.5431,-1.5431,-1.5365,-1.5337,-1.5094,-1.5057,-1.4945,-1.498,-1.4911,-1.4862,-1.5312,-1.5948,-1.6941,-1.7442,-1.7803,-1.794,-1.8008,-1.8076,-1.8212,-1.8076,-1.8212,-1.8347,-1.8279,-1.8202,-1.8134,-1.8202,-1.8202,-1.8337,-1.8269,-1.8269,-1.8405,-1.8988,-1.9674,-2.0487,-2.1452,-2.2359,-2.3203,-2.396,-2.4996,-2.6201,-2.6101,-2.605,-2.6276,-2.6521,-2.6521,-2.6658,-2.6973,-2.743,-2.7802,-2.7868,-2.8065,-2.917,-2.9946,-3.0312,-3.0881,-3.1351,-3.1537,-3.1675,-3.2345,-3.2986,-3.3287,-3.3467,-3.36,-3.362,-3.3073,-3.2857,-3.3034,-3.3045,-3.2921,-3.2957,-3.3152,-3.2968,-3.2539,-3.2288,-3.2406,-3.2578,-3.2672,-3.2816,-3.3055,-3.3117,-3.3147,-3.3327,-3.3491,-3.3643,-1.0551,-1.0267,-1.0154,-1.0045,-1.0047,-1.0038,-1.0038,-1.0038,-1.0038,-1.0038,-1.0038,-1.0043,-1.0109,-1.0441,-1.1164,-1.2545,-1.4163,-1.5049,-1.5362,-1.5431,-1.5431,-1.5431,-1.5431,-1.5431,-1.5431,-1.5431,-1.5431,-1.5431,-1.5431,-1.5431,-1.5431,-1.5431,-1.5431,-1.559,-1.5966,-1.5993,-1.5854,-1.5881,-1.5959,-1.5799,-1.5557,-1.6026,-1.6673,-1.7373,-1.7794,-1.8008,-1.8144,-1.8144,-1.8212,-1.8405,-1.8664,-1.8854,-1.9054,-1.9177,-1.9177,-1.8911,-1.8854,-1.8988,-1.9233,-1.9431,-1.9497,-1.9562,-2.002,-2.0542,-2.1368,-2.2348,-2.367,-2.4774,-2.5259,-2.5795,-2.6377,-2.6163,-2.6226,-2.6364,-2.6521,-2.6658,-2.6973,-2.7284,-2.7868,-2.8376,-2.8762,-2.9219,-2.987,-3.0447,-3.0568,-3.1117,-3.1799,-3.2109,-3.2327,-3.2986,-3.3748,-3.3949,-3.4102,-3.4219,-3.4286,-3.3968,-3.3549,-3.3689,-3.3667,-3.3496,-3.3498,-3.3722,-3.3606,-3.3296,-3.3142,-3.2869,-3.2905,-3.2993,-3.3135,-3.3256,-3.3327,-3.3444,-3.3559,-3.3698,-3.3834,-1.0395,-1.0197,-1.0022,-1.0038,-1.0038,-1.0038,-1.0038,-1.0043,-1.0095,-1.0027,-1.0109,-1.0162,-1.0281,-1.0731,-1.1704,-1.3079,-1.4722,-1.531,-1.5362,-1.5431,-1.5431,-1.5431,-1.5431,-1.5431,-1.5431,-1.5431,-1.5431,-1.5431,-1.5431,-1.5431,-1.5431,-1.5431,-1.5431,-1.5824,-1.6445,-1.6503,-1.6826,-1.697,-1.7093,-1.6703,-1.6501,-1.6802,-1.7364,-1.794,-1.8008,-1.8066,-1.8269,-1.8462,-1.8664,-1.8931,-1.9386,-1.9824,-1.9955,-2.0398,-2.0451,-2.0117,-1.9933,-2.015,-2.0506,-2.0515,-2.0386,-2.0386,-2.0884,-2.1458,-2.2215,-2.3287,-2.4609,-2.609,-2.6402,-2.6352,-2.6508,-2.6508,-2.6508,-2.6508,-2.6521,-2.6714,-2.7284,-2.7868,-2.8519,-2.9093,-2.967,-3.0176,-3.0687,-3.1014,-3.1116,-3.145,-3.2135,-3.2617,-3.2864,-3.3489,-3.4137,-3.4382,-3.4578,-3.4771,-3.4891,-3.4905,-3.4635,-3.4568,-3.4543,-3.4406,-3.4358,-3.437,-3.4038,-3.3545,-3.3499,-3.3265,-3.3309,-3.3274,-3.3286,-3.3375,-3.3577,-3.3671,-3.3671,-3.386,-3.4067,-1.0182,-1.0076,-1.0047,-1.0038,-1.0038,-1.0038,-1.0043,-1.0071,-1.0238,-1.0234,-1.0333,-1.0491,-1.0663,-1.1202,-1.2299,-1.3905,-1.5205,-1.5466,-1.5573,-1.5656,-1.5565,-1.5482,-1.5445,-1.5431,-1.5506,-1.5506,-1.5431,-1.5431,-1.559,-1.559,-1.5431,-1.5506,-1.559,-1.5906,-1.6944,-1.7107,-1.6903,-1.7389,-1.7703,-1.7805,-1.7662,-1.7725,-1.7862,-1.8008,-1.8066,-1.8202,-1.8529,-1.8911,-1.9375,-1.9704,-2.0215,-2.0602,-2.0869,-2.0771,-2.1106,-2.1158,-2.1003,-2.0711,-2.1186,-2.1238,-2.1181,-2.1412,-2.2039,-2.2614,-2.3328,-2.428,-2.5506,-2.6271,-2.6521,-2.6589,-2.6645,-2.6577,-2.6521,-2.6633,-2.6744,-2.7149,-2.767,-2.8492,-2.9156,-2.9889,-3.045,-3.0792,-3.119,-3.1422,-3.1736,-3.2059,-3.2391,-3.2933,-3.3443,-3.4023,-3.4475,-3.4721,-3.4835,-3.5024,-3.5211,-3.5274,-3.5396,-3.535,-3.5479,-3.526,-3.484,-3.4533,-3.3844,-3.3523,-3.3535,-3.3502,-3.3394,-3.3364,-3.3393,-3.3491,-3.3661,-3.3698,-3.368,-3.3947,-3.4288,-1.0819,-1.0727,-1.0727,-1.0722,-1.0727,-1.0722,-1.0804,-1.0926,-1.0766,-1.079,-1.0985,-1.1339,-1.2021,-1.2995,-1.3875,-1.473,-1.5655,-1.5745,-1.6025,-1.6247,-1.6079,-1.601,-1.6225,-1.5845,-1.5582,-1.5982,-1.5824,-1.6154,-1.6229,-1.5906,-1.5582,-1.6147,-1.6221,-1.6944,-1.7836,-1.8158,-1.8478,-1.8614,-1.8526,-1.826,-1.8095,-1.8008,-1.8076,-1.8212,-1.8529,-1.8854,-1.9243,-1.9803,-2.0268,-2.0602,-2.1101,-2.1479,-2.1741,-2.1916,-2.2274,-2.2396,-2.2224,-2.2149,-2.2357,-2.2488,-2.2459,-2.2754,-2.346,-2.4144,-2.455,-2.514,-2.5915,-2.6427,-2.6837,-2.704,-2.7136,-2.7167,-2.7392,-2.7472,-2.7406,-2.8076,-2.8607,-2.9066,-2.9827,-3.0569,-3.1233,-3.1537,-3.1781,-3.1977,-3.2226,-3.2407,-3.2895,-3.3543,-3.4018,-3.4431,-3.4816,-3.5102,-3.5135,-3.5182,-3.5396,-3.5549,-3.581,-3.5907,-3.6533,-3.613,-3.5151,-3.4568,-3.4017,-3.3566,-3.3454,-3.3436,-3.3393,-3.3422,-3.3452,-3.3577,-3.3744,-3.3834,-3.3947,-3.4197,-3.4473,-1.1666,-1.1666,-1.1408,-1.1322,-1.1332,-1.1392,-1.1521,-1.1604,-1.1478,-1.1431,-1.1718,-1.2216,-1.3465,-1.4724,-1.4905,-1.535,-1.6335,-1.6244,-1.6783,-1.702,-1.6944,-1.6896,-1.7036,-1.6637,-1.6542,-1.7017,-1.678,-1.6944,-1.7269,-1.7025,-1.6698,-1.7025,-1.7025,-1.7836,-1.8807,-1.9167,-1.921,-1.938,-1.8879,-1.8397,-1.8154,-1.8076,-1.8337,-1.8654,-1.911,-1.9562,-2.0074,-2.0719,-2.1164,-2.1416,-2.1928,-2.2298,-2.2421,-2.2689,-2.2871,-2.3055,-2.3021,-2.3293,-2.3467,-2.3654,-2.4029,-2.4318,-2.4759,-2.5209,-2.5927,-2.6067,-2.6355,-2.7082,-2.7471,-2.7736,-2.7776,-2.7891,-2.8074,-2.8282,-2.8498,-2.9233,-2.9879,-3.0303,-3.0837,-3.1618,-3.2155,-3.2281,-3.2516,-3.2625,-3.2734,-3.2788,-3.3335,-3.4151,-3.4546,-3.4835,-3.5088,-3.5383,-3.5577,-3.5605,-3.5739,-3.5958,-3.6139,-3.6405,-3.6988,-3.6648,-3.5456,-3.4858,-3.4434,-3.4015,-3.3542,-3.3509,-3.3549,-3.352,-3.3538,-3.3689,-3.3834,-3.4092,-3.4264,-3.4495,-3.4647,-1.2619,-1.2534,-1.1671,-1.1332,-1.144,-1.158,-1.1682,-1.1885,-1.2156,-1.2307,-1.251,-1.3082,-1.4135,-1.5178,-1.5371,-1.5921,-1.7315,-1.7062,-1.7466,-1.7834,-1.7887,-1.7907,-1.8044,-1.7993,-1.79,-1.7989,-1.7819,-1.7971,-1.8372,-1.8452,-1.806,-1.7997,-1.8069,-1.8567,-1.9143,-1.9599,-1.9563,-1.959,-1.9056,-1.8725,-1.8516,-1.8492,-1.8721,-1.9365,-1.9628,-1.9944,-2.0696,-2.1479,-2.1877,-2.2051,-2.2555,-2.2871,-2.2871,-2.3005,-2.3078,-2.3167,-2.3602,-2.404,-2.4506,-2.4406,-2.4343,-2.4745,-2.5365,-2.6123,-2.6865,-2.722,-2.7644,-2.8103,-2.8233,-2.8373,-2.8465,-2.8542,-2.9038,-2.9364,-2.9886,-3.0453,-3.1056,-3.1414,-3.2007,-3.2779,-3.3093,-3.3145,-3.3355,-3.3459,-3.3319,-3.3335,-3.3885,-3.4691,-3.4883,-3.5118,-3.5321,-3.5549,-3.5915,-3.6071,-3.6241,-3.6433,-3.6684,-3.6816,-3.7127,-3.647,-3.5416,-3.5019,-3.4921,-3.4073,-3.3577,-3.3633,-3.3698,-3.378,-3.3834,-3.3834,-3.3965,-3.4197,-3.4409,-3.4604,-3.4751,-1.3053,-1.354,-1.3188,-1.2853,-1.2441,-1.2545,-1.2765,-1.2957,-1.2879,-1.3321,-1.3882,-1.4241,-1.5013,-1.5893,-1.6073,-1.6234,-1.6985,-1.7371,-1.8129,-1.8702,-1.8906,-1.9002,-1.9075,-1.8967,-1.8691,-1.8939,-1.893,-1.9325,-2.007,-1.965,-1.9825,-1.9678,-1.9274,-1.9608,-2.002,-2.0157,-2.0109,-1.996,-1.9683,-1.9384,-1.9431,-1.9225,-1.9497,-2.0246,-2.091,-2.1164,-2.1655,-2.2298,-2.2567,-2.2763,-2.2944,-2.3065,-2.3163,-2.315,-2.3142,-2.3207,-2.3729,-2.4646,-2.5486,-2.5304,-2.5247,-2.5832,-2.6416,-2.7037,-2.7657,-2.7855,-2.8182,-2.8505,-2.8939,-2.9213,-2.8965,-2.9903,-3.0866,-3.0997,-3.1327,-3.1845,-3.2235,-3.2571,-3.2861,-3.3531,-3.3716,-3.3834,-3.4086,-3.4333,-3.4102,-3.3968,-3.4578,-3.5071,-3.5333,-3.5498,-3.5739,-3.5941,-3.6308,-3.6498,-3.6678,-3.6939,-3.7228,-3.7272,-3.7274,-3.65,-3.5738,-3.5711,-3.5447,-3.4483,-3.3771,-3.386,-3.3972,-3.4099,-3.4124,-3.4099,-3.4173,-3.4358,-3.4539,-3.4751,-3.487,-1.366,-1.4353,-1.4616,-1.4359,-1.3951,-1.376,-1.387,-1.3958,-1.3673,-1.4135,-1.5186,-1.5369,-1.6031,-1.6703,-1.6661,-1.7099,-1.7587,-1.8112,-1.9041,-1.9679,-1.9984,-2.0188,-2.0235,-2.0163,-1.9894,-2.006,-2.0051,-2.0372,-2.1041,-2.0702,-2.0779,-2.0867,-2.0634,-2.0644,-2.0741,-2.0954,-2.0781,-2.04,-2.0339,-2.0089,-2.0084,-2.0063,-2.0322,-2.1078,-2.1604,-2.199,-2.2298,-2.275,-2.2944,-2.3005,-2.3065,-2.3065,-2.3201,-2.324,-2.3281,-2.3505,-2.4053,-2.5152,-2.5955,-2.6257,-2.6148,-2.6713,-2.7059,-2.763,-2.813,-2.8634,-2.9016,-2.9331,-2.978,-2.9947,-2.9784,-3.0849,-3.1894,-3.2069,-3.2671,-3.314,-3.3355,-3.3633,-3.382,-3.4153,-3.4415,-3.48,-3.4925,-3.5157,-3.5065,-3.4878,-3.522,-3.5688,-3.589,-3.6105,-3.6249,-3.6498,-3.6781,-3.6978,-3.7094,-3.7377,-3.7614,-3.7612,-3.7462,-3.6906,-3.6363,-3.623,-3.5577,-3.4421,-3.3965,-3.4117,-3.4245,-3.439,-3.4409,-3.4363,-3.4476,-3.4607,-3.4793,-3.4981,-3.5049,-1.4558,-1.4668,-1.5459,-1.5732,-1.5693,-1.5139,-1.4767,-1.4526,-1.4315,-1.481,-1.5812,-1.6313,-1.6866,-1.7337,-1.6857,-1.749,-1.8607,-1.8878,-1.9608,-2.0574,-2.086,-2.1053,-2.1178,-2.1051,-2.0944,-2.1195,-2.1185,-2.1175,-2.1502,-2.1415,-2.1655,-2.1655,-2.1492,-2.1405,-2.1282,-2.1195,-2.0828,-2.0194,-2.0686,-2.0482,-2.0335,-2.0551,-2.1215,-2.1842,-2.2175,-2.2494,-2.2823,-2.3005,-2.3125,-2.3125,-2.3125,-2.3175,-2.3288,-2.3665,-2.3717,-2.3654,-2.4818,-2.5826,-2.6499,-2.6523,-2.6909,-2.7324,-2.767,-2.826,-2.917,-2.9685,-2.9979,-3.0389,-3.0792,-3.0894,-3.1106,-3.1546,-3.2509,-3.324,-3.3829,-3.4167,-3.4366,-3.456,-3.4736,-3.4908,-3.5431,-3.5847,-3.5933,-3.5977,-3.5959,-3.5942,-3.6045,-3.6215,-3.6422,-3.6626,-3.6764,-3.6837,-3.7084,-3.7306,-3.7434,-3.7772,-3.7977,-3.7954,-3.7671,-3.707,-3.6428,-3.5938,-3.5172,-3.4227,-3.4203,-3.4413,-3.4586,-3.4691,-3.4691,-3.4691,-3.4752,-3.4889,-3.5069,-3.5181,-3.5232,-1.4605,-1.5679,-1.5945,-1.6708,-1.7424,-1.5773,-1.4769,-1.4484,-1.4665,-1.5244,-1.5898,-1.624,-1.6591,-1.6873,-1.7036,-1.7565,-1.8772,-1.9316,-1.9979,-2.1086,-2.1413,-2.1533,-2.1578,-2.1578,-2.1655,-2.1655,-2.1731,-2.1807,-2.1731,-2.1807,-2.1807,-2.1807,-2.2252,-2.2392,-2.2275,-2.2274,-2.2093,-2.1596,-2.1541,-2.1408,-2.1226,-2.1475,-2.1966,-2.2689,-2.2689,-2.2836,-2.3128,-2.3153,-2.3213,-2.3213,-2.3213,-2.3314,-2.3601,-2.4016,-2.4532,-2.5014,-2.6259,-2.6882,-2.7628,-2.8038,-2.7802,-2.7973,-2.8492,-2.9142,-2.9747,-3.0387,-3.0911,-3.1349,-3.158,-3.1496,-3.1243,-3.2463,-3.3467,-3.4202,-3.4739,-3.4913,-3.5115,-3.5419,-3.5627,-3.5742,-3.6105,-3.6239,-3.6364,-3.6643,-3.6724,-3.6649,-3.6706,-3.6626,-3.6746,-3.7058,-3.7248,-3.7146,-3.7274,-3.7557,-3.7783,-3.7972,-3.8176,-3.8273,-3.782,-3.7124,-3.65,-3.5855,-3.5205,-3.4521,-3.4623,-3.4772,-3.4831,-3.4908,-3.4982,-3.5019,-3.5054,-3.5088,-3.5184,-3.5277,-3.5355,-1.5265,-1.6352,-1.6912,-1.7582,-1.8118,-1.6629,-1.5598,-1.5042,-1.5344,-1.5885,-1.6277,-1.6473,-1.6993,-1.7322,-1.736,-1.8057,-1.9325,-1.9626,-2.0274,-2.1263,-2.1655,-2.1762,-2.1731,-2.1807,-2.1731,-2.1807,-2.1807,-2.1807,-2.1807,-2.1807,-2.1959,-2.2402,-2.2979,-2.3412,-2.3486,-2.3338,-2.2778,-2.236,-2.2183,-2.205,-2.1975,-2.2243,-2.2628,-2.2944,-2.309,-2.3165,-2.3315,-2.3366,-2.3353,-2.3414,-2.3464,-2.3611,-2.3986,-2.4579,-2.5301,-2.6327,-2.7183,-2.7561,-2.8148,-2.8415,-2.8216,-2.8547,-2.9567,-3.024,-3.0615,-3.1407,-3.1849,-3.217,-3.2305,-3.2166,-3.2151,-3.3494,-3.4137,-3.4818,-3.5195,-3.5362,-3.5548,-3.5795,-3.6101,-3.6266,-3.6347,-3.6501,-3.6829,-3.7208,-3.7485,-3.7413,-3.734,-3.7228,-3.7114,-3.7432,-3.7667,-3.7594,-3.7556,-3.7749,-3.7935,-3.8077,-3.8264,-3.8535,-3.7927,-3.7137,-3.6608,-3.5979,-3.5359,-3.4862,-3.4907,-3.4945,-3.5019,-3.5108,-3.5157,-3.5223,-3.5251,-3.5277,-3.5307,-3.5397,-3.5483,-1.6574,-1.6871,-1.8172,-1.8342,-1.7777,-1.7662,-1.7028,-1.6078,-1.6506,-1.6698,-1.6718,-1.7132,-1.7676,-1.8558,-1.8305,-1.9084,-2.0349,-2.0439,-2.1013,-2.1466,-2.1752,-2.1807,-2.1807,-2.1807,-2.1807,-2.1807,-2.1807,-2.1883,-2.1883,-2.2241,-2.2606,-2.3128,-2.3852,-2.442,-2.4554,-2.4108,-2.3375,-2.2933,-2.2876,-2.2524,-2.2279,-2.2727,-2.3106,-2.3339,-2.3366,-2.3602,-2.3766,-2.3853,-2.3828,-2.3828,-2.3915,-2.4016,-2.4421,-2.5232,-2.6014,-2.6844,-2.7762,-2.8237,-2.8404,-2.8684,-2.9174,-2.9855,-3.0626,-3.1267,-3.1804,-3.2336,-3.2664,-3.2933,-3.3077,-3.322,-3.3416,-3.3941,-3.4448,-3.4961,-3.5407,-3.561,-3.577,-3.6032,-3.6361,-3.6491,-3.654,-3.6755,-3.7362,-3.7775,-3.7916,-3.7846,-3.7774,-3.781,-3.7739,-3.7828,-3.8002,-3.7966,-3.7962,-3.8029,-3.814,-3.8131,-3.8173,-3.8375,-3.7757,-3.7023,-3.6531,-3.6017,-3.538,-3.4984,-3.5058,-3.511,-3.5176,-3.5258,-3.535,-3.5374,-3.5411,-3.5451,-3.5489,-3.5558,-3.5646,-1.6379,-1.7419,-1.7878,-1.8164,-1.845,-1.845,-1.7751,-1.661,-1.6662,-1.6677,-1.6773,-1.7499,-1.8051,-1.8288,-1.8727,-1.9692,-2.0244,-2.0693,-2.1118,-2.1492,-2.1807,-2.1807,-2.1807,-2.1807,-2.1807,-2.1807,-2.1883,-2.2176,-2.2692,-2.3043,-2.3768,-2.4659,-2.4719,-2.537,-2.5391,-2.4976,-2.4147,-2.3514,-2.3445,-2.2945,-2.2713,-2.3158,-2.3454,-2.3715,-2.4029,-2.418,-2.4255,-2.4204,-2.4053,-2.3674,-2.4043,-2.4341,-2.4865,-2.566,-2.651,-2.8182,-2.9171,-2.9931,-2.9924,-2.9985,-3.0287,-3.1078,-3.1873,-3.2326,-3.2729,-3.3045,-3.3427,-3.3767,-3.3903,-3.4007,-3.4199,-3.4631,-3.5161,-3.5645,-3.6036,-3.6215,-3.6383,-3.6566,-3.686,-3.6844,-3.6868,-3.735,-3.7943,-3.8088,-3.8189,-3.8158,-3.8192,-3.8259,-3.8259,-3.8259,-3.8241,-3.8204,-3.8176,-3.8154,-3.8099,-3.8102,-3.8118,-3.8048,-3.7451,-3.6906,-3.6442,-3.5894,-3.5322,-3.5089,-3.5143,-3.5226,-3.532,-3.5393,-3.5463,-3.5509,-3.5538,-3.5604,-3.5657,-3.5688,-3.5718,-1.6567,-1.7684,-1.7971,-1.835,-1.8727,-1.8827,-1.8159,-1.7244,-1.7159,-1.7103,-1.7044,-1.7677,-1.8149,-1.8745,-1.9432,-2.0226,-2.1031,-2.1118,-2.1405,-2.1645,-2.1807,-2.1807,-2.1807,-2.1807,-2.1807,-2.1883,-2.2187,-2.2542,-2.3213,-2.3779,-2.4492,-2.517,-2.5312,-2.5669,-2.5704,-2.5353,-2.4685,-2.4035,-2.3604,-2.3183,-2.317,-2.348,-2.3841,-2.418,-2.462,-2.4874,-2.5076,-2.5011,-2.4722,-2.4614,-2.5186,-2.5175,-2.5816,-2.6624,-2.7882,-2.9312,-2.9693,-3.0088,-3.008,-3.0113,-3.0831,-3.171,-3.259,-3.3174,-3.3664,-3.4088,-3.4445,-3.48,-3.4797,-3.4888,-3.511,-3.5389,-3.5968,-3.6542,-3.6737,-3.6956,-3.7086,-3.7202,-3.723,-3.7221,-3.7525,-3.799,-3.8282,-3.8378,-3.8483,-3.8515,-3.8546,-3.8546,-3.8515,-3.8451,-3.8419,-3.8368,-3.8264,-3.8224,-3.8198,-3.819,-3.8141,-3.7933,-3.7246,-3.671,-3.6291,-3.5812,-3.5293,-3.5174,-3.5223,-3.532,-3.5407,-3.5502,-3.5546,-3.5604,-3.5648,-3.5689,-3.5728,-3.5737,-3.5765,-1.7138,-1.7878,-1.8542,-1.8735,-1.8827,-1.878,-1.8398,-1.7834,-1.7747,-1.761,-1.7495,-1.7916,-1.863,-1.9423,-2.0294,-2.0934,-2.1415,-2.1568,-2.1568,-2.1807,-2.1807,-2.1883,-2.2025,-2.1949,-2.2252,-2.2327,-2.2692,-2.3276,-2.3497,-2.4215,-2.5075,-2.5382,-2.5453,-2.5677,-2.5682,-2.5448,-2.4831,-2.4117,-2.3789,-2.3472,-2.3364,-2.3627,-2.4154,-2.443,-2.5102,-2.5831,-2.6509,-2.6676,-2.6519,-2.6695,-2.6662,-2.6245,-2.7084,-2.7942,-2.9342,-2.9946,-3.0164,-3.0305,-3.0314,-3.0312,-3.0735,-3.156,-3.2419,-3.344,-3.4124,-3.4818,-3.5244,-3.5504,-3.5559,-3.5377,-3.5503,-3.6191,-3.6803,-3.7129,-3.7324,-3.7327,-3.7286,-3.7232,-3.702,-3.7088,-3.7459,-3.7978,-3.8603,-3.8701,-3.867,-3.8822,-3.8766,-3.8766,-3.8803,-3.8664,-3.8634,-3.8603,-3.8524,-3.8508,-3.8628,-3.8558,-3.8252,-3.7848,-3.711,-3.648,-3.5982,-3.5613,-3.5245,-3.5285,-3.534,-3.5388,-3.5457,-3.5565,-3.5646,-3.5698,-3.5737,-3.5773,-3.5791,-3.5782,-3.5782,-1.7885,-1.855,-1.8727,-1.8827,-1.8788,-1.8541,-1.8343,-1.8128,-1.7604,-1.7619,-1.7924,-1.8683,-1.9344,-2.006,-2.1011,-2.1568,-2.1731,-2.1807,-2.1807,-2.1807,-2.1807,-2.2111,-2.2553,-2.2553,-2.2905,-2.3475,-2.3841,-2.4143,-2.4719,-2.537,-2.5943,-2.6164,-2.6082,-2.5946,-2.5523,-2.5272,-2.481,-2.4102,-2.4348,-2.4051,-2.3615,-2.4348,-2.5005,-2.5695,-2.6472,-2.7188,-2.7578,-2.7344,-2.6868,-2.6632,-2.6888,-2.7401,-2.8415,-2.9186,-2.9772,-3.0287,-3.0566,-3.0714,-3.0867,-3.0938,-3.1388,-3.2037,-3.2947,-3.3717,-3.4493,-3.5334,-3.5865,-3.6104,-3.6232,-3.6055,-3.6169,-3.693,-3.7578,-3.7753,-3.7848,-3.7653,-3.7484,-3.7106,-3.6803,-3.7109,-3.7442,-3.7997,-3.8691,-3.8939,-3.891,-3.8836,-3.8696,-3.8726,-3.8952,-3.897,-3.898,-3.8952,-3.8844,-3.8849,-3.8995,-3.864,-3.8199,-3.7656,-3.6919,-3.6285,-3.5703,-3.55,-3.5345,-3.5411,-3.5477,-3.5509,-3.5546,-3.5635,-3.5718,-3.5766,-3.5784,-3.5791,-3.5791,-3.5791,-3.5791,-1.8156,-1.8735,-1.8827,-1.8732,-1.8573,-1.8375,-1.8136,-1.789,-1.7839,-1.8118,-1.8585,-1.9097,-1.958,-2.0216,-2.1165,-2.1807,-2.1807,-2.1807,-2.1807,-2.1807,-2.1959,-2.2338,-2.2703,-2.3075,-2.3412,-2.3986,-2.4492,-2.5016,-2.5734,-2.6094,-2.6383,-2.6521,-2.6471,-2.6118,-2.5438,-2.5128,-2.4858,-2.4236,-2.4983,-2.4962,-2.4505,-2.5448,-2.5867,-2.6606,-2.727,-2.8024,-2.8245,-2.8067,-2.8078,-2.7783,-2.8047,-2.8559,-2.9316,-2.9826,-3.0284,-3.0733,-3.1072,-3.1329,-3.1542,-3.1837,-3.2141,-3.2686,-3.3509,-3.4311,-3.4666,-3.5456,-3.6302,-3.6593,-3.7255,-3.7219,-3.7286,-3.7881,-3.8409,-3.8711,-3.848,-3.8224,-3.7755,-3.7264,-3.737,-3.7776,-3.8089,-3.835,-3.8947,-3.9301,-3.9275,-3.9275,-3.909,-3.9122,-3.9268,-3.9369,-3.9376,-3.9345,-3.9268,-3.9287,-3.9438,-3.8792,-3.7919,-3.7319,-3.6856,-3.6128,-3.5585,-3.5532,-3.547,-3.5514,-3.5562,-3.5615,-3.5667,-3.5708,-3.5737,-3.5773,-3.5782,-3.5791,-3.5791,-3.5791,-3.5791,-1.8149,-1.8609,-1.8684,-1.851,-1.8247,-1.8168,-1.7834,-1.7512,-1.8104,-1.8623,-1.9054,-1.9335,-1.9492,-2.0129,-2.1001,-2.1492,-2.1807,-2.1807,-2.1807,-2.1807,-2.1949,-2.2478,-2.2927,-2.3287,-2.407,-2.4636,-2.5217,-2.5734,-2.6314,-2.6521,-2.6521,-2.6521,-2.6312,-2.6025,-2.546,-2.5439,-2.5468,-2.5119,-2.5488,-2.619,-2.6538,-2.6984,-2.6884,-2.7106,-2.7687,-2.845,-2.8826,-2.902,-2.938,-2.9304,-2.9202,-2.9681,-3.0149,-3.0559,-3.0868,-3.1295,-3.1524,-3.1674,-3.186,-3.2316,-3.255,-3.3001,-3.4002,-3.459,-3.49,-3.5647,-3.6485,-3.7071,-3.7744,-3.8314,-3.8383,-3.8608,-3.9076,-3.9201,-3.8877,-3.8461,-3.7851,-3.7205,-3.7459,-3.792,-3.8276,-3.8464,-3.8957,-3.9352,-3.9583,-3.9626,-3.9679,-3.9777,-3.9867,-3.9905,-3.9965,-3.9876,-3.9821,-3.9861,-3.9878,-3.9083,-3.8061,-3.7661,-3.7211,-3.6234,-3.5528,-3.5553,-3.557,-3.5585,-3.5629,-3.5698,-3.5728,-3.5747,-3.5782,-3.5791,-3.5791,-3.5791,-3.5791,-3.5791,-3.5791,-1.8142,-1.7969,-1.7969,-1.793,-1.7834,-1.7604,-1.739,-1.7407,-1.7918,-1.8129,-1.8736,-1.9825,-2.0615,-2.1318,-2.1568,-2.1807,-2.1807,-2.1807,-2.1807,-2.1807,-2.2262,-2.2703,-2.3361,-2.4299,-2.5229,-2.5734,-2.6013,-2.6302,-2.6521,-2.6533,-2.6577,-2.6663,-2.6673,-2.6452,-2.61,-2.6055,-2.5983,-2.5743,-2.665,-2.7657,-2.7482,-2.7723,-2.7767,-2.828,-2.9139,-2.9878,-3.034,-3.0266,-3.0083,-2.9957,-3.0048,-3.0501,-3.0868,-3.1201,-3.1507,-3.1787,-3.202,-3.2265,-3.255,-3.2885,-3.313,-3.3393,-3.4119,-3.4308,-3.4903,-3.5899,-3.6535,-3.6906,-3.7627,-3.8598,-3.886,-3.9117,-3.9492,-3.9063,-3.8689,-3.8053,-3.744,-3.6546,-3.6081,-3.6779,-3.7418,-3.7911,-3.8555,-3.9053,-3.9614,-3.966,-3.9731,-3.9842,-4.0139,-4.0329,-4.05,-4.0364,-4.0264,-4.0177,-4.006,-3.9356,-3.8517,-3.8112,-3.7504,-3.6485,-3.5825,-3.5695,-3.5678,-3.5679,-3.5708,-3.5765,-3.5782,-3.5782,-3.5782,-3.5791,-3.5791,-3.5791,-3.5791,-3.5791,-3.5791]}]]